GFSGL_850_temp_024.txt.gz
Temp
8 8 7 7 5 5 4 3 3 2 2 1 1 0 0 0 0 -0 -0 -1 -1 -1 -2 -2 -3 -4 -3 -3 -4 -4 -4 -4 -4 -5 -5 -5 -6 -6 -6 -7 -7 -7 -7
6 7 6 5 5 4 4 3 3 2 1 1 0 -0 -0 -0 -0 -0 -1 -1 -2 -2 -2 -3 -4 -3 -4 -4 -4 -5 -5 -5 -5 -6 -6 -7 -7 -7 -8 -7 -7 -7 -7
6 5 5 5 5 4 4 3 3 2 1 0 -0 -0 -0 -0 -1 -2 -2 -2 -2 -3 -3 -3 -4 -5 -5 -5 -5 -5 -6 -7 -8 -8 -8 -8 -8 -8 -8 -8 -8 -8 -7
6 5 5 5 5 4 4 3 2 2 1 0 -0 -1 -1 -1 -1 -2 -2 -3 -3 -3 -4 -4 -5 -5 -5 -5 -6 -7 -8 -8 -9 -9 -9 -9 -9 -9 -9 -9 -8 -8 -8
6 5 5 6 5 4 3 3 2 1 1 -0 -0 -1 -1 -1 -2 -2 -3 -3 -4 -4 -5 -5 -5 -5 -6 -6 -7 -8 -9 -9 -10 -10 -10 -10 -9 -9 -9 -9 -9 -9 -8
6 5 6 5 4 4 3 2 2 1 1 0 -0 -1 -1 -2 -2 -3 -3 -4 -4 -5 -5 -5 -6 -6 -6 -7 -8 -9 -9 -10 -10 -10 -10 -10 -10 -10 -10 -10 -10 -10 -10
6 5 4 4 3 2 2 2 1 1 0 0 -1 -1 -2 -2 -3 -3 -4 -4 -5 -6 -6 -6 -7 -7 -7 -8 -8 -9 -9 -10 -10 -10 -10 -10 -10 -11 -11 -11 -11 -11 -10
5 4 4 2 2 2 1 1 0 0 -0 -1 -1 -2 -2 -3 -3 -4 -4 -4 -5 -6 -7 -7 -8 -8 -8 -8 -9 -9 -9 -10 -10 -10 -10 -10 -11 -11 -11 -11 -11 -11 -10
4 2 -0 1 1 1 0 0 -0 -1 -1 -1 -2 -2 -2 -3 -3 -4 -5 -5 -6 -7 -7 -8 -8 -8 -9 -9 -9 -9 -9 -9 -11 -11 -10 -11 -11 -11 -10 -10 -10 -10 -10
1 0 0 0 1 1 -1 -1 -2 -2 -2 -2 -2 -2 -3 -3 -4 -4 -5 -6 -6 -7 -8 -8 -9 -9 -9 -9 -9 -9 -10 -10 -10 -11 -11 -11 -11 -10 -10 -10 -9 -10 -10
-1 -2 -1 0 -0 -2 -3 -3 -3 -3 -3 -3 -3 -3 -3 -4 -5 -5 -5 -6 -7 -7 -8 -8 -9 -9 -9 -9 -9 -10 -10 -11 -11 -12 -12 -11 -11 -11 -10 -10 -10 -10 -9
-1 -1 1 0 -1 -3 -3 -3 -3 -3 -3 -3 -3 -4 -4 -4 -5 -5 -6 -6 -7 -7 -8 -8 -9 -9 -9 -9 -9 -10 -11 -11 -12 -12 -12 -12 -11 -11 -11 -10 -10 -9 -9
-2 1 0 -2 -3 -3 -3 -4 -4 -4 -4 -4 -4 -4 -4 -5 -5 -6 -6 -6 -7 -7 -8 -9 -9 -9 -9 -10 -10 -11 -11 -11 -12 -12 -12 -12 -12 -11 -11 -10 -10 -9 -8
0 -0 -3 -2 -2 -3 -4 -4 -4 -4 -5 -4 -4 -4 -5 -5 -5 -6 -6 -7 -7 -8 -8 -9 -9 -9 -10 -10 -10 -10 -11 -11 -11 -12 -12 -12 -12 -12 -11 -11 -10 -9 -8
-1 -1 -1 -2 -2 -3 -4 -4 -4 -5 -6 -6 -5 -5 -5 -5 -6 -6 -6 -7 -8 -8 -8 -9 -9 -9 -10 -10 -10 -10 -10 -11 -11 -12 -12 -13 -12 -12 -12 -11 -11 -10 -10
-1 -1 -2 -2 -3 -4 -4 -5 -4 -5 -5 -5 -5 -5 -5 -6 -6 -6 -7 -7 -8 -8 -9 -9 -9 -9 -9 -10 -10 -10 -10 -11 -11 -12 -12 -13 -13 -13 -12 -11 -11 -11 -10
-2 -2 -2 -3 -4 -5 -5 -5 -6 -5 -5 -5 -5 -5 -6 -6 -6 -7 -7 -8 -8 -9 -9 -9 -9 -9 -9 -10 -10 -10 -10 -11 -11 -12 -13 -13 -13 -13 -12 -12 -12 -11 -11
-3 -3 -3 -4 -5 -5 -5 -6 -7 -7 -6 -5 -6 -6 -6 -6 -6 -7 -7 -8 -9 -9 -9 -9 -10 -9 -9 -9 -10 -10 -10 -11 -12 -12 -13 -13 -13 -13 -13 -13 -12 -12 -12
-3 -3 -4 -4 -5 -5 -5 -6 -6 -6 -6 -6 -6 -6 -6 -6 -6 -7 -8 -8 -9 -9 -9 -9 -9 -9 -9 -9 -9 -10 -10 -12 -12 -12 -13 -13 -13 -13 -13 -13 -13 -12 -12
-4 -4 -4 -4 -5 -5 -5 -6 -6 -6 -6 -6 -6 -6 -6 -7 -6 -6 -7 -7 -8 -8 -9 -9 -9 -9 -9 -9 -9 -10 -11 -11 -12 -12 -12 -13 -13 -13 -13 -13 -13 -13 -13
-4 -4 -4 -4 -5 -5 -5 -6 -6 -6 -6 -6 -6 -6 -7 -7 -7 -6 -6 -7 -7 -7 -8 -8 -8 -8 -9 -9 -9 -10 -10 -11 -12 -12 -13 -13 -13 -13 -13 -13 -13 -13 -13
-5 -5 -5 -5 -5 -5 -6 -6 -6 -7 -7 -7 -7 -7 -7 -7 -7 -7 -6 -7 -7 -7 -7 -8 -8 -8 -8 -8 -9 -9 -10 -11 -11 -12 -12 -13 -13 -13 -13 -13 -13 -13 -14
-6 -6 -6 -6 -6 -6 -6 -6 -7 -7 -7 -7 -7 -7 -7 -7 -7 -6 -6 -7 -7 -7 -8 -8 -8 -8 -8 -8 -9 -9 -9 -10 -10 -11 -11 -11 -12 -13 -14 -14 -14 -14 -14
-7 -7 -7 -6 -6 -6 -7 -7 -7 -7 -7 -7 -7 -7 -7 -7 -7 -7 -7 -7 -7 -7 -7 -7 -8 -8 -8 -8 -9 -9 -9 -9 -10 -10 -11 -11 -11 -12 -13 -14 -14 -14 -14
-8 -8 -8 -8 -7 -6 -7 -7 -8 -8 -8 -8 -8 -8 -8 -8 -8 -8 -8 -8 -8 -8 -8 -8 -8 -8 -8 -8 -8 -8 -9 -9 -9 -10 -10 -11 -11 -12 -12 -13 -13 -13 -14
-9 -9 -8 -8 -8 -7 -8 -8 -9 -10 -10 -10 -10 -10 -10 -10 -9 -9 -9 -8 -9 -8 -8 -9 -8 -8 -8 -8 -8 -8 -8 -9 -10 -10 -10 -11 -11 -11 -12 -13 -13 -13 -14

GFSGL_850_temp_027.txt.gz
Temp
9 8 8 8 7 6 5 5 4 4 3 3 2 1 1 -0 -0 -0 -0 -0 -1 -1 -2 -2 -3 -3 -3 -4 -4 -4 -4 -4 -5 -5 -5 -5 -6 -6 -6 -7 -7 -7 -8
9 8 8 7 6 5 5 4 3 3 3 2 2 1 0 -0 -0 -1 -1 -1 -1 -2 -2 -3 -3 -4 -4 -4 -5 -4 -5 -5 -6 -6 -6 -7 -7 -8 -8 -8 -8 -8 -8
9 8 7 6 5 5 4 4 3 3 2 2 1 1 -0 -1 -1 -1 -1 -2 -2 -2 -3 -3 -4 -4 -4 -5 -5 -5 -6 -6 -7 -8 -8 -8 -9 -9 -9 -9 -9 -9 -9
8 7 7 6 5 4 4 4 3 3 2 2 1 0 -0 -1 -1 -1 -1 -2 -3 -3 -3 -4 -5 -5 -5 -5 -5 -6 -6 -7 -8 -8 -9 -9 -9 -9 -9 -10 -10 -9 -9
8 7 6 5 4 4 4 3 3 2 2 1 1 0 -0 -1 -1 -1 -2 -3 -3 -4 -4 -5 -5 -5 -5 -6 -6 -7 -7 -8 -8 -9 -10 -10 -10 -10 -10 -10 -10 -10 -9
8 7 6 5 4 4 3 2 1 2 1 1 0 -0 -0 -1 -1 -2 -2 -3 -3 -4 -4 -5 -5 -6 -6 -7 -7 -8 -8 -9 -9 -10 -11 -11 -11 -11 -10 -10 -11 -11 -10
7 6 5 5 4 2 1 0 1 1 1 0 0 -0 -1 -1 -2 -2 -3 -3 -4 -4 -5 -6 -6 -7 -7 -7 -8 -8 -8 -8 -9 -10 -11 -11 -11 -11 -11 -11 -10 -11 -10
6 5 5 3 2 0 -1 1 -0 1 -0 -0 -1 -1 -1 -2 -2 -3 -3 -4 -4 -5 -6 -6 -7 -8 -8 -8 -8 -8 -9 -9 -9 -10 -11 -11 -11 -11 -11 -11 -10 -10 -9
5 4 2 -0 -2 -2 -1 -0 1 -1 -1 -1 -2 -2 -2 -2 -3 -3 -4 -4 -5 -6 -6 -7 -7 -8 -8 -9 -9 -9 -9 -9 -9 -10 -11 -11 -11 -11 -11 -11 -10 -10 -10
1 -1 -1 -1 -1 -1 0 0 -3 -2 -3 -3 -2 -2 -2 -3 -3 -3 -4 -5 -5 -6 -6 -7 -8 -8 -9 -9 -9 -9 -9 -10 -10 -10 -11 -11 -11 -11 -11 -11 -11 -10 -10
-1 -1 -1 -1 -1 0 -1 -2 -3 -3 -3 -3 -3 -3 -3 -3 -3 -4 -4 -5 -6 -6 -6 -7 -8 -8 -8 -9 -9 -10 -10 -10 -11 -11 -11 -11 -11 -11 -11 -11 -10 -10 -10
0 0 -0 0 -0 -1 -2 -3 -3 -3 -3 -4 -4 -4 -4 -4 -4 -5 -5 -5 -6 -6 -7 -7 -8 -8 -9 -9 -10 -10 -11 -11 -11 -11 -12 -12 -12 -12 -11 -11 -11 -10 -9
-0 -1 -1 -1 -1 -2 -3 -2 -3 -3 -4 -4 -4 -4 -5 -5 -4 -5 -5 -6 -6 -6 -7 -7 -8 -8 -9 -9 -10 -10 -11 -11 -11 -11 -12 -12 -12 -12 -12 -11 -11 -10 -9
-1 -1 -0 -1 -2 -2 -2 -3 -4 -4 -4 -4 -5 -5 -5 -5 -5 -5 -6 -6 -6 -7 -7 -7 -8 -8 -9 -9 -10 -10 -10 -11 -11 -11 -11 -12 -12 -12 -12 -12 -11 -10 -9
-1 -1 -1 -2 -2 -2 -2 -3 -4 -5 -5 -5 -5 -5 -5 -6 -5 -5 -6 -6 -7 -7 -8 -8 -8 -8 -9 -9 -10 -10 -10 -11 -11 -11 -12 -12 -12 -13 -12 -12 -11 -11 -11
-1 -1 -2 -2 -2 -2 -3 -3 -4 -5 -5 -5 -6 -6 -6 -6 -6 -6 -6 -6 -7 -8 -8 -8 -9 -9 -9 -9 -10 -10 -10 -11 -11 -11 -11 -12 -13 -13 -13 -12 -12 -12 -11
-2 -2 -2 -2 -3 -3 -4 -4 -5 -4 -4 -5 -5 -6 -6 -6 -6 -6 -6 -6 -7 -8 -8 -8 -9 -9 -9 -9 -10 -10 -10 -11 -11 -11 -11 -12 -13 -13 -13 -13 -13 -12 -12
-3 -3 -3 -3 -4 -4 -4 -5 -5 -6 -6 -5 -5 -5 -6 -6 -6 -6 -7 -7 -7 -8 -8 -8 -8 -9 -9 -9 -9 -10 -10 -10 -10 -11 -11 -12 -13 -13 -13 -13 -13 -13 -12
-4 -4 -4 -4 -4 -4 -4 -5 -5 -5 -5 -5 -5 -6 -6 -6 -6 -6 -7 -7 -7 -7 -7 -8 -8 -9 -9 -9 -9 -9 -9 -10 -10 -10 -11 -12 -13 -13 -13 -13 -13 -13 -13
-4 -5 -5 -5 -4 -4 -4 -5 -5 -5 -6 -6 -6 -6 -6 -7 -7 -7 -7 -7 -7 -7 -7 -7 -8 -8 -9 -9 -9 -9 -9 -9 -10 -10 -11 -12 -13 -13 -13 -13 -13 -13 -13
-6 -6 -6 -6 -5 -6 -5 -5 -5 -6 -6 -7 -7 -7 -7 -7 -7 -7 -7 -7 -7 -7 -7 -7 -7 -8 -8 -8 -9 -9 -9 -9 -9 -10 -10 -11 -12 -11 -13 -13 -13 -13 -13
-8 -8 -7 -7 -7 -7 -6 -7 -6 -6 -6 -7 -7 -7 -7 -7 -7 -7 -7 -7 -7 -7 -7 -7 -7 -8 -8 -8 -8 -9 -9 -9 -9 -9 -10 -10 -11 -11 -12 -13 -14 -13 -14
-9 -9 -9 -8 -8 -8 -7 -7 -7 -6 -6 -7 -7 -7 -7 -7 -7 -7 -7 -7 -7 -7 -7 -7 -7 -7 -7 -8 -8 -8 -8 -9 -9 -9 -10 -10 -10 -11 -12 -12 -13 -14 -14
-11 -11 -10 -10 -10 -8 -8 -8 -7 -7 -7 -8 -8 -8 -8 -8 -8 -8 -8 -8 -7 -8 -7 -7 -7 -7 -8 -8 -8 -8 -8 -8 -9 -9 -9 -10 -10 -11 -11 -12 -13 -13 -13
-11 -12 -12 -11 -11 -11 -10 -10 -9 -9 -9 -9 -9 -10 -10 -9 -9 -9 -9 -9 -9 -8 -8 -8 -8 -8 -8 -8 -8 -8 -8 -8 -8 -9 -9 -10 -10 -11 -11 -12 -12 -13 -13
-13 -13 -13 -13 -13 -13 -13 -12 -12 -12 -12 -12 -12 -12 -12 -12 -11 -11 -11 -11 -10 -10 -9 -9 -9 -8 -8 -8 -8 -8 -8 -8 -8 -9 -9 -10 -10 -10 -11 -12 -12 -13 -13

GFSGL_850_temp_030.txt.gz
Temp
11 11 10 9 8 8 7 6 5 4 3 4 4 3 2 1 1 0 -1 -1 -1 -1 -1 -2 -2 -2 -3 -3 -4 -4 -5 -5 -6 -5 -6 -6 -6 -6 -6 -7 -8 -8 -8
12 11 10 9 8 8 7 6 5 3 3 3 3 2 2 1 1 0 -1 -1 -1 -1 -2 -3 -3 -3 -4 -4 -5 -5 -5 -5 -6 -6 -6 -7 -7 -7 -8 -9 -9 -9 -9
11 10 9 8 8 7 6 5 4 3 3 2 2 2 2 1 0 -0 -1 -1 -2 -2 -3 -3 -4 -4 -4 -5 -5 -5 -6 -6 -7 -7 -8 -7 -8 -8 -9 -9 -9 -9 -9
10 9 8 8 7 6 5 4 3 3 2 1 2 2 1 0 -0 -1 -1 -1 -2 -3 -4 -4 -4 -4 -5 -5 -6 -6 -6 -7 -8 -8 -8 -8 -9 -9 -10 -10 -10 -10 -10
10 9 8 8 7 5 4 4 3 2 1 0 1 1 1 0 -0 -1 -1 -2 -2 -3 -3 -4 -4 -5 -5 -6 -6 -7 -7 -8 -8 -8 -8 -9 -9 -10 -11 -11 -11 -11 -10
9 8 7 6 5 5 4 2 2 1 -1 1 0 1 0 -0 -1 -1 -2 -2 -3 -3 -4 -4 -5 -5 -6 -7 -7 -8 -8 -8 -9 -9 -9 -10 -11 -11 -11 -11 -11 -11 -11
8 7 6 5 5 3 2 1 -0 -1 -1 0 1 -0 -1 -1 -1 -2 -2 -3 -3 -3 -4 -5 -5 -6 -6 -7 -8 -8 -9 -9 -9 -9 -9 -10 -11 -11 -11 -12 -11 -11 -10
7 6 5 4 3 2 -0 -1 -0 -0 -1 1 -0 -1 -1 -2 -2 -2 -3 -3 -4 -4 -5 -5 -6 -6 -7 -8 -8 -8 -8 -9 -9 -9 -10 -10 -11 -12 -12 -11 -11 -11 -10
5 3 1 0 -0 -1 -0 0 -1 0 0 -1 -1 -2 -2 -2 -2 -3 -3 -4 -4 -5 -5 -6 -6 -7 -8 -8 -8 -8 -8 -9 -9 -10 -10 -11 -11 -12 -11 -11 -11 -11 -11
2 0 -1 -1 0 0 -0 -1 -0 -1 -1 -2 -2 -3 -3 -3 -3 -3 -3 -4 -4 -5 -5 -6 -6 -7 -8 -8 -8 -8 -9 -9 -10 -10 -10 -11 -11 -11 -11 -11 -11 -11 -11
1 0 0 0 -0 -2 -1 -1 -1 -2 -2 -3 -2 -2 -3 -3 -4 -4 -4 -4 -5 -5 -6 -6 -7 -7 -8 -8 -8 -8 -9 -10 -10 -11 -11 -11 -11 -12 -12 -11 -11 -11 -11
0 0 -0 -1 -1 -1 -1 -1 -2 -2 -2 -2 -3 -3 -4 -4 -4 -5 -5 -5 -5 -6 -6 -6 -7 -7 -8 -8 -8 -9 -10 -10 -11 -11 -11 -11 -12 -12 -12 -12 -11 -11 -11
-1 -1 -1 -0 -1 -1 -1 -2 -2 -2 -2 -3 -3 -4 -4 -4 -4 -5 -5 -5 -5 -6 -6 -6 -7 -7 -8 -8 -8 -9 -10 -10 -11 -11 -11 -11 -12 -12 -12 -12 -11 -11 -10
-0 -0 -0 -0 -1 -1 -2 -2 -2 -2 -3 -4 -5 -5 -5 -5 -5 -5 -6 -5 -5 -6 -6 -7 -7 -8 -8 -8 -9 -9 -10 -10 -10 -11 -11 -11 -12 -12 -12 -12 -12 -11 -10
-0 -1 -1 -1 -2 -2 -2 -2 -3 -3 -4 -4 -5 -5 -5 -5 -5 -6 -6 -6 -6 -6 -6 -7 -8 -8 -8 -9 -9 -9 -9 -10 -10 -11 -11 -11 -12 -12 -12 -12 -12 -12 -11
-2 -2 -2 -2 -2 -2 -3 -3 -3 -4 -4 -5 -5 -5 -5 -6 -5 -6 -6 -6 -6 -6 -7 -7 -7 -8 -8 -9 -9 -9 -9 -10 -10 -10 -11 -11 -12 -12 -13 -13 -13 -12 -12
-3 -3 -3 -4 -4 -4 -4 -4 -4 -4 -5 -5 -5 -5 -5 -6 -6 -6 -6 -6 -6 -7 -7 -7 -7 -8 -8 -9 -9 -9 -9 -10 -10 -10 -11 -11 -12 -12 -13 -13 -13 -13 -12
-4 -4 -4 -4 -5 -5 -5 -5 -4 -4 -4 -4 -5 -5 -5 -6 -6 -6 -6 -6 -6 -6 -7 -7 -7 -7 -8 -9 -9 -9 -9 -10 -10 -10 -11 -11 -11 -12 -12 -13 -13 -13 -13
-4 -4 -5 -6 -6 -6 -5 -5 -5 -5 -5 -5 -5 -5 -5 -6 -6 -6 -6 -7 -7 -7 -7 -7 -7 -7 -8 -8 -9 -9 -9 -9 -10 -10 -10 -10 -11 -12 -12 -13 -13 -13 -13
-5 -6 -7 -8 -8 -8 -7 -7 -6 -7 -6 -6 -6 -6 -5 -6 -7 -7 -7 -7 -7 -7 -7 -7 -7 -7 -7 -8 -9 -9 -9 -9 -9 -9 -10 -10 -10 -11 -12 -12 -13 -13 -13
-7 -7 -8 -8 -9 -9 -9 -8 -8 -8 -7 -7 -8 -7 -7 -7 -7 -7 -7 -7 -7 -7 -7 -7 -7 -7 -7 -8 -8 -9 -9 -9 -9 -9 -10 -10 -10 -10 -12 -12 -13 -13 -13
-9 -9 -10 -11 -11 -10 -10 -10 -9 -9 -9 -8 -7 -7 -7 -7 -7 -7 -7 -8 -7 -7 -7 -7 -7 -7 -7 -8 -8 -8 -8 -9 -9 -9 -9 -10 -10 -10 -11 -11 -12 -13 -13
-10 -11 -11 -11 -12 -11 -11 -11 -10 -11 -9 -8 -7 -8 -8 -7 -7 -8 -8 -8 -8 -8 -7 -7 -7 -7 -7 -7 -8 -8 -8 -8 -8 -9 -9 -9 -10 -10 -11 -11 -12 -12 -13
-12 -12 -12 -12 -12 -12 -12 -12 -12 -11 -11 -11 -11 -10 -10 -10 -9 -9 -9 -9 -9 -9 -8 -8 -8 -8 -7 -7 -8 -8 -8 -8 -8 -8 -9 -9 -9 -10 -10 -11 -12 -12 -12
-13 -13 -13 -13 -14 -14 -14 -14 -14 -14 -13 -13 -13 -13 -12 -12 -11 -11 -11 -11 -10 -10 -9 -9 -9 -8 -8 -8 -8 -8 -8 -8 -8 -8 -8 -9 -9 -10 -10 -11 -11 -12 -12
-14 -14 -14 -15 -15 -15 -15 -15 -15 -15 -15 -15 -15 -14 -14 -14 -13 -13 -13 -12 -11 -11 -11 -10 -10 -10 -9 -9 -8 -8 -9 -9 -8 -8 -8 -8 -9 -10 -10 -10 -11 -12 -12

GFSGL_850_temp_033.txt.gz
Temp
12 12 12 11 10 9 8 8 8 7 6 5 4 3 3 2 2 1 1 0 -1 -1 -1 -2 -2 -3 -3 -3 -3 -4 -5 -5 -6 -5 -6 -6 -6 -7 -7 -7 -8 -8 -8
12 11 10 10 9 9 8 8 7 6 5 4 3 3 2 2 2 1 1 -0 -1 -1 -2 -2 -2 -3 -4 -4 -4 -5 -5 -6 -6 -6 -6 -7 -7 -7 -8 -8 -8 -8 -9
11 11 10 9 9 9 8 8 8 6 4 3 3 2 2 2 1 1 0 -0 -1 -1 -2 -3 -3 -4 -4 -5 -5 -5 -6 -6 -7 -7 -7 -8 -8 -8 -8 -8 -8 -9 -9
11 11 10 10 10 9 8 7 6 4 3 3 1 1 0 1 1 0 -0 -1 -1 -2 -2 -3 -3 -4 -5 -5 -5 -6 -6 -7 -8 -8 -8 -8 -8 -8 -9 -10 -9 -9 -9
11 11 10 10 9 8 7 5 4 3 2 1 -0 -1 -1 0 0 -0 -1 -1 -2 -2 -3 -3 -4 -4 -5 -5 -6 -6 -7 -8 -8 -9 -9 -9 -9 -9 -10 -10 -10 -10 -10
11 10 9 7 6 5 4 4 2 1 0 -1 -1 0 -1 0 -0 -1 -1 -2 -2 -3 -3 -3 -4 -4 -5 -5 -6 -7 -8 -8 -9 -9 -9 -9 -10 -10 -10 -11 -11 -11 -11
9 8 7 6 6 4 3 2 0 -1 -1 -0 -0 -1 -1 -1 -1 -1 -2 -2 -3 -3 -3 -4 -4 -5 -6 -6 -7 -7 -8 -9 -9 -9 -9 -10 -10 -11 -11 -11 -11 -11 -11
7 6 6 5 4 1 0 -1 -1 -1 0 -0 -1 -1 -1 -1 -2 -2 -2 -2 -3 -3 -4 -4 -5 -5 -6 -7 -7 -8 -8 -9 -9 -9 -10 -10 -11 -11 -12 -12 -12 -11 -11
5 4 3 1 0 -1 -1 -1 -0 -0 -1 -1 -1 -1 -1 -1 -2 -3 -3 -3 -3 -4 -4 -5 -5 -5 -6 -7 -7 -8 -8 -9 -9 -10 -10 -11 -11 -11 -12 -12 -12 -12 -11
3 1 -0 -1 -1 -1 -0 0 -0 -2 -1 -1 -1 -1 -1 -2 -2 -3 -3 -4 -4 -4 -5 -5 -5 -6 -6 -7 -8 -8 -8 -9 -9 -10 -10 -11 -11 -11 -11 -12 -12 -12 -12
1 1 1 0 -0 -0 -1 -1 -1 -1 -2 -2 -2 -2 -2 -3 -3 -4 -4 -4 -5 -5 -5 -5 -6 -6 -6 -7 -7 -8 -8 -9 -10 -10 -11 -11 -11 -11 -11 -12 -12 -12 -12
1 0 0 -1 -1 -0 -1 -1 -1 -2 -2 -2 -2 -2 -3 -3 -4 -4 -4 -4 -5 -5 -5 -5 -6 -6 -7 -7 -7 -8 -9 -9 -10 -10 -11 -11 -11 -11 -12 -12 -12 -12 -12
-0 -0 -0 -0 -0 -1 -1 -1 -2 -2 -2 -2 -3 -3 -3 -3 -4 -5 -5 -5 -6 -6 -6 -5 -6 -6 -7 -7 -8 -8 -9 -9 -10 -10 -10 -11 -11 -12 -12 -12 -11 -12 -11
-1 -1 -1 -1 -1 -2 -2 -2 -2 -2 -3 -3 -3 -3 -4 -4 -4 -4 -5 -6 -6 -6 -6 -6 -6 -6 -7 -7 -8 -8 -9 -9 -10 -10 -10 -10 -11 -12 -12 -12 -12 -12 -11
-1 -1 -2 -2 -3 -2 -3 -3 -3 -3 -4 -4 -4 -4 -4 -4 -5 -5 -5 -5 -6 -6 -6 -6 -6 -6 -7 -7 -8 -8 -9 -9 -10 -10 -10 -10 -11 -12 -12 -12 -12 -12 -12
-2 -2 -2 -2 -2 -3 -3 -3 -3 -4 -4 -5 -4 -4 -4 -5 -5 -5 -5 -6 -6 -6 -6 -6 -6 -6 -7 -7 -8 -8 -9 -9 -10 -10 -10 -10 -11 -11 -11 -12 -12 -13 -12
-2 -2 -3 -3 -3 -4 -4 -5 -5 -5 -5 -5 -5 -5 -5 -5 -5 -6 -6 -6 -6 -7 -7 -6 -6 -7 -7 -7 -8 -8 -9 -9 -10 -10 -10 -11 -11 -11 -11 -12 -12 -12 -13
-3 -4 -4 -4 -5 -6 -6 -7 -8 -7 -7 -7 -6 -6 -6 -6 -6 -6 -6 -6 -6 -6 -7 -7 -7 -6 -7 -7 -8 -8 -9 -9 -10 -10 -10 -10 -11 -11 -11 -12 -12 -12 -13
-4 -5 -5 -6 -7 -7 -8 -8 -9 -9 -9 -9 -8 -7 -7 -7 -6 -6 -7 -7 -7 -7 -7 -7 -7 -7 -7 -7 -7 -8 -9 -9 -10 -10 -10 -10 -11 -11 -11 -12 -11 -12 -13
-6 -6 -7 -7 -8 -8 -9 -10 -10 -10 -10 -9 -9 -9 -8 -8 -7 -6 -7 -7 -7 -7 -7 -7 -7 -7 -7 -7 -7 -8 -8 -9 -9 -9 -9 -10 -10 -11 -11 -11 -11 -12 -12
-7 -7 -8 -9 -9 -10 -11 -11 -11 -11 -11 -11 -11 -10 -9 -8 -8 -7 -7 -7 -7 -7 -8 -7 -8 -7 -7 -7 -7 -7 -8 -9 -9 -9 -9 -9 -10 -10 -11 -11 -11 -11 -12
-9 -9 -10 -11 -11 -12 -12 -12 -12 -12 -12 -12 -12 -11 -10 -9 -9 -9 -8 -8 -8 -8 -8 -8 -8 -8 -7 -8 -7 -7 -8 -8 -8 -9 -9 -9 -10 -10 -10 -11 -11 -11 -12
-10 -11 -11 -12 -12 -12 -13 -13 -13 -13 -13 -13 -12 -12 -11 -12 -12 -12 -11 -10 -10 -9 -9 -9 -8 -8 -8 -9 -8 -8 -8 -8 -8 -8 -9 -9 -9 -10 -10 -11 -11 -11 -12
-12 -12 -12 -13 -13 -13 -14 -14 -14 -14 -14 -14 -14 -14 -13 -13 -13 -12 -12 -12 -12 -11 -10 -9 -9 -9 -9 -8 -8 -9 -8 -8 -8 -8 -8 -8 -9 -9 -10 -10 -11 -11 -12
-13 -13 -13 -14 -14 -14 -15 -15 -15 -15 -16 -16 -15 -15 -15 -15 -14 -14 -13 -13 -12 -12 -12 -11 -11 -10 -9 -9 -8 -8 -8 -8 -8 -8 -8 -8 -8 -9 -9 -10 -11 -11 -11
-14 -14 -15 -15 -15 -15 -16 -16 -16 -16 -17 -17 -17 -17 -17 -16 -16 -16 -16 -15 -14 -13 -13 -12 -11 -11 -11 -10 -10 -9 -9 -9 -8 -8 -8 -8 -8 -9 -9 -10 -10 -11 -11

GFSGL_850_temp_036.txt.gz
Temp
14 13 12 11 12 12 12 11 9 8 7 6 6 5 3 3 3 2 2 1 0 -0 -1 -1 -2 -2 -3 -3 -3 -4 -4 -5 -5 -5 -6 -6 -7 -7 -7 -7 -7 -7 -7
15 13 12 12 12 11 10 10 9 8 7 6 5 4 3 2 2 1 1 0 -0 -1 -1 -1 -2 -2 -3 -3 -4 -4 -5 -5 -6 -6 -6 -7 -7 -7 -8 -8 -8 -8 -8
15 14 13 11 10 10 10 9 8 7 5 4 4 3 2 1 0 -1 1 0 -0 -1 -1 -2 -2 -3 -3 -3 -4 -5 -5 -6 -6 -7 -7 -8 -8 -8 -8 -8 -8 -8 -8
14 14 11 10 9 9 8 7 7 5 5 4 3 2 1 -0 -0 -0 0 -0 -1 -1 -2 -2 -3 -3 -3 -4 -5 -5 -6 -6 -7 -8 -8 -8 -8 -8 -9 -9 -8 -9 -9
11 9 9 9 8 8 8 7 6 4 3 2 1 0 -1 -0 -0 -0 -0 -0 -1 -1 -2 -2 -3 -3 -4 -4 -5 -6 -6 -7 -8 -8 -8 -9 -8 -9 -9 -10 -10 -10 -10
10 9 8 8 7 7 6 6 5 4 2 0 -1 -1 -0 -1 -2 -2 -1 -1 -1 -2 -2 -3 -3 -4 -4 -5 -5 -6 -7 -7 -8 -9 -9 -9 -9 -10 -10 -11 -11 -11 -12
8 8 7 6 5 5 4 3 2 1 -0 -1 -1 -1 -1 -1 -2 -1 -1 -2 -2 -2 -3 -3 -4 -4 -5 -5 -6 -6 -7 -8 -8 -9 -9 -9 -10 -10 -11 -11 -11 -12 -12
7 6 5 5 4 3 2 1 -1 -2 -1 -1 -0 -1 -2 -2 -1 -2 -2 -2 -3 -3 -3 -3 -4 -4 -5 -6 -6 -6 -7 -8 -9 -9 -9 -9 -10 -11 -11 -12 -12 -12 -11
5 4 4 3 2 0 -1 -1 -1 -0 -1 -0 -1 -1 -2 -1 -2 -2 -2 -3 -3 -3 -3 -4 -5 -5 -5 -6 -6 -6 -7 -8 -9 -9 -9 -10 -11 -11 -12 -12 -11 -12 -11
3 2 1 1 -0 -0 -1 -1 -0 -1 -1 -1 -2 -2 -2 -2 -2 -2 -3 -3 -3 -4 -4 -5 -5 -5 -6 -6 -6 -6 -7 -7 -9 -9 -10 -10 -11 -11 -11 -12 -12 -12 -12
1 1 1 0 -0 -0 -0 -1 -1 -1 -1 -1 -2 -2 -2 -2 -3 -3 -3 -4 -4 -4 -4 -5 -5 -5 -6 -6 -6 -7 -7 -8 -8 -9 -10 -10 -11 -11 -11 -11 -12 -12 -12
0 0 0 -0 -0 -1 -1 -1 -1 -1 -2 -2 -2 -2 -2 -3 -3 -3 -4 -4 -5 -5 -5 -5 -5 -6 -5 -6 -7 -6 -7 -8 -8 -9 -10 -10 -10 -11 -11 -11 -11 -11 -12
-1 -1 -1 -1 -1 -1 -1 -2 -2 -2 -2 -2 -3 -3 -3 -3 -3 -4 -4 -4 -5 -5 -5 -5 -6 -6 -6 -6 -7 -7 -7 -8 -9 -9 -10 -10 -10 -11 -11 -12 -11 -11 -11
-1 -1 -1 -1 -1 -2 -2 -2 -2 -3 -3 -4 -4 -4 -4 -4 -4 -4 -4 -5 -5 -5 -5 -6 -6 -6 -6 -6 -6 -7 -7 -8 -9 -9 -10 -10 -10 -11 -11 -12 -11 -11 -11
-1 -1 -2 -2 -2 -2 -2 -3 -3 -3 -4 -5 -5 -5 -5 -5 -5 -5 -5 -5 -6 -5 -6 -6 -6 -6 -6 -6 -7 -7 -7 -8 -8 -9 -9 -10 -10 -11 -11 -11 -11 -12 -12
-2 -2 -2 -2 -2 -3 -3 -2 -3 -3 -4 -5 -5 -6 -6 -6 -6 -6 -6 -6 -6 -6 -7 -6 -6 -6 -6 -6 -7 -7 -7 -7 -8 -9 -9 -10 -10 -11 -11 -11 -11 -12 -12
-2 -2 -2 -3 -3 -4 -4 -5 -5 -5 -6 -7 -8 -9 -8 -8 -7 -7 -7 -7 -6 -7 -7 -7 -7 -6 -6 -7 -7 -7 -7 -7 -8 -9 -10 -10 -10 -11 -11 -11 -12 -12 -12
-3 -4 -4 -5 -5 -6 -6 -7 -8 -8 -8 -8 -9 -10 -10 -9 -9 -8 -7 -7 -7 -7 -7 -8 -7 -7 -7 -7 -7 -7 -7 -8 -8 -9 -9 -10 -10 -10 -11 -11 -12 -12 -12
-4 -5 -5 -6 -7 -8 -8 -9 -9 -10 -11 -11 -10 -10 -10 -9 -8 -7 -8 -8 -8 -8 -7 -8 -8 -7 -7 -7 -7 -7 -7 -8 -8 -9 -9 -10 -10 -10 -11 -11 -11 -12 -12
-6 -6 -7 -8 -8 -9 -9 -10 -10 -11 -12 -12 -12 -12 -11 -11 -11 -10 -9 -9 -8 -8 -8 -8 -8 -7 -8 -8 -8 -8 -7 -8 -8 -8 -9 -9 -10 -10 -10 -11 -11 -11 -12
-7 -8 -8 -9 -9 -10 -11 -11 -12 -12 -12 -13 -13 -13 -13 -13 -12 -12 -12 -11 -10 -10 -9 -9 -8 -8 -8 -8 -8 -8 -8 -8 -8 -8 -9 -9 -10 -10 -10 -11 -11 -11 -11
-8 -9 -10 -10 -11 -11 -12 -13 -13 -13 -14 -14 -14 -13 -13 -13 -13 -12 -12 -12 -12 -12 -12 -10 -10 -9 -9 -8 -8 -8 -9 -9 -8 -8 -9 -9 -9 -10 -10 -10 -11 -11 -11
-10 -10 -11 -11 -12 -12 -13 -13 -14 -14 -14 -15 -15 -15 -14 -14 -14 -14 -14 -13 -13 -12 -12 -12 -12 -10 -9 -9 -9 -8 -9 -9 -8 -8 -9 -9 -9 -9 -9 -10 -10 -11 -11
-11 -12 -12 -13 -13 -13 -14 -14 -15 -15 -15 -15 -16 -16 -16 -16 -16 -15 -15 -15 -14 -14 -13 -13 -12 -12 -11 -10 -10 -10 -10 -9 -9 -8 -8 -8 -9 -9 -9 -10 -10 -10 -11
-12 -13 -13 -14 -14 -14 -15 -15 -15 -16 -16 -16 -16 -16 -17 -17 -17 -16 -16 -16 -15 -15 -15 -14 -13 -13 -12 -11 -11 -10 -10 -10 -9 -9 -8 -8 -8 -8 -9 -9 -10 -10 -11
-14 -14 -14 -15 -15 -15 -15 -16 -16 -16 -17 -17 -17 -17 -18 -18 -18 -17 -17 -17 -16 -16 -15 -15 -15 -14 -13 -12 -12 -11 -11 -10 -10 -9 -9 -9 -9 -8 -8 -9 -9 -10 -10

GFSGL_850_temp_039.txt.gz
Temp
16 15 14 14 13 12 12 11 10 9 8 7 6 5 5 3 3 2 2 1 0 1 0 -0 -1 -1 -2 -2 -3 -3 -4 -4 -4 -4 -5 -6 -6 -7 -8 -7 -7 -7 -7
15 15 14 14 13 13 12 11 9 8 7 6 5 5 3 2 2 1 1 0 0 0 -0 -1 -1 -2 -2 -3 -3 -4 -4 -5 -5 -5 -5 -7 -8 -7 -7 -7 -7 -7 -8
15 15 14 14 13 12 10 10 9 8 7 5 5 4 3 2 1 0 -0 -1 -0 -0 -1 -1 -1 -2 -2 -3 -3 -4 -4 -5 -5 -6 -6 -7 -8 -9 -9 -9 -9 -8 -9
15 14 13 11 9 9 9 9 8 8 5 5 4 3 1 1 -0 -1 -0 -1 -1 -1 -1 -1 -1 -2 -3 -3 -4 -4 -5 -5 -6 -7 -7 -7 -8 -9 -9 -9 -9 -9 -10
11 11 10 9 9 8 8 7 6 5 4 3 3 2 1 -0 -1 -0 -1 -2 -1 -0 -1 -1 -2 -2 -3 -3 -4 -4 -5 -6 -7 -7 -7 -8 -8 -8 -9 -10 -10 -10 -10
9 9 8 8 7 7 6 5 5 4 3 2 1 -0 -1 0 -1 -1 -1 -2 -1 -1 -1 -2 -2 -2 -3 -4 -4 -5 -5 -6 -7 -8 -8 -8 -8 -9 -10 -11 -11 -11 -10
9 8 7 7 6 5 5 5 4 3 1 0 0 -0 -0 -0 -1 -1 -1 -2 -2 -1 -2 -2 -2 -3 -3 -4 -4 -5 -5 -6 -6 -8 -9 -9 -9 -10 -11 -11 -11 -11 -11
8 6 5 5 5 4 3 2 1 1 1 0 -0 -1 -1 -1 -2 -2 -2 -2 -2 -2 -2 -3 -3 -3 -4 -4 -5 -5 -6 -6 -6 -7 -8 -9 -9 -9 -10 -11 -11 -11 -11
6 5 4 3 3 3 2 1 -0 0 -0 -1 -1 -1 -1 -1 -2 -2 -2 -2 -2 -2 -2 -3 -3 -3 -4 -5 -5 -6 -6 -6 -6 -7 -8 -8 -9 -9 -10 -12 -11 -11 -11
3 2 2 1 1 0 -0 -1 -0 -0 -1 -1 -1 -1 -1 -2 -2 -2 -3 -3 -3 -3 -2 -3 -4 -4 -4 -5 -5 -6 -6 -6 -7 -7 -8 -8 -9 -10 -10 -11 -11 -11 -11
1 1 0 0 0 0 -0 -0 -0 -1 -1 -1 -1 -1 -2 -2 -2 -3 -3 -4 -4 -4 -4 -3 -4 -4 -4 -5 -5 -6 -6 -6 -7 -7 -8 -8 -9 -10 -11 -11 -11 -12 -12
0 0 0 -0 0 -0 -0 -1 -1 -1 -1 -2 -2 -2 -2 -2 -3 -3 -4 -4 -4 -5 -4 -4 -4 -4 -5 -5 -6 -6 -6 -7 -7 -8 -8 -8 -9 -10 -11 -11 -11 -12 -12
-0 -0 -0 -0 -1 -1 -1 -1 -2 -2 -3 -3 -3 -3 -3 -4 -4 -4 -4 -5 -5 -5 -5 -5 -5 -5 -5 -6 -6 -6 -6 -7 -8 -8 -8 -8 -9 -10 -10 -10 -11 -11 -11
-1 -1 -1 -1 -1 -2 -2 -2 -2 -3 -3 -4 -4 -5 -5 -6 -7 -7 -7 -6 -5 -5 -5 -6 -6 -6 -6 -6 -7 -6 -7 -7 -7 -8 -8 -8 -9 -9 -10 -10 -11 -12 -12
-1 -1 -1 -2 -2 -2 -2 -3 -3 -4 -5 -6 -6 -8 -8 -8 -8 -9 -8 -8 -8 -7 -7 -6 -6 -6 -6 -6 -6 -7 -7 -7 -8 -8 -8 -8 -9 -10 -10 -10 -11 -11 -12
-2 -2 -2 -2 -2 -3 -3 -3 -4 -5 -6 -7 -7 -8 -9 -10 -9 -8 -8 -8 -8 -8 -7 -7 -7 -7 -6 -6 -6 -7 -7 -7 -7 -8 -8 -8 -9 -9 -10 -10 -11 -11 -12
-2 -2 -3 -3 -3 -4 -5 -5 -6 -6 -6 -7 -8 -9 -10 -10 -10 -9 -9 -8 -7 -8 -8 -7 -7 -7 -7 -7 -7 -8 -7 -7 -7 -7 -8 -8 -9 -9 -10 -10 -11 -11 -12
-3 -4 -4 -4 -5 -6 -6 -7 -7 -8 -9 -10 -10 -10 -11 -11 -11 -11 -10 -9 -9 -9 -8 -8 -8 -8 -8 -8 -8 -8 -8 -7 -7 -8 -8 -8 -9 -9 -10 -10 -11 -11 -12
-4 -5 -5 -6 -7 -7 -8 -8 -9 -9 -10 -10 -10 -11 -11 -11 -11 -11 -11 -11 -12 -11 -10 -9 -8 -8 -8 -8 -8 -8 -8 -8 -8 -8 -8 -8 -9 -10 -10 -10 -11 -11 -11
-5 -6 -7 -7 -8 -9 -9 -10 -10 -11 -11 -12 -12 -12 -12 -12 -12 -12 -12 -12 -12 -12 -12 -12 -10 -9 -8 -8 -8 -8 -8 -8 -8 -8 -8 -8 -9 -10 -10 -10 -10 -11 -11
-7 -7 -8 -9 -9 -10 -10 -11 -11 -12 -12 -13 -13 -13 -14 -14 -14 -14 -14 -14 -14 -13 -12 -12 -11 -12 -11 -10 -9 -9 -8 -8 -9 -9 -9 -8 -9 -9 -10 -10 -10 -11 -11
-8 -9 -9 -10 -10 -11 -11 -12 -13 -13 -13 -14 -14 -14 -14 -14 -15 -15 -15 -15 -15 -14 -14 -13 -12 -12 -12 -12 -11 -9 -9 -9 -9 -9 -9 -9 -9 -9 -10 -10 -10 -10 -11
-9 -10 -10 -11 -12 -12 -13 -13 -14 -14 -14 -15 -15 -15 -15 -15 -15 -16 -16 -16 -16 -15 -15 -14 -14 -13 -12 -12 -12 -11 -10 -10 -10 -10 -10 -9 -9 -9 -9 -10 -10 -10 -10
-10 -11 -12 -12 -13 -13 -14 -14 -15 -15 -16 -16 -16 -16 -16 -16 -16 -16 -16 -16 -16 -16 -16 -16 -15 -14 -14 -13 -12 -12 -11 -11 -10 -10 -10 -9 -9 -9 -9 -9 -9 -10 -10
-12 -13 -13 -13 -14 -15 -15 -16 -16 -16 -17 -17 -17 -17 -17 -17 -17 -17 -17 -17 -17 -17 -16 -16 -16 -15 -14 -14 -13 -13 -12 -11 -11 -10 -10 -10 -9 -9 -9 -9 -9 -9 -10
-13 -14 -14 -15 -16 -16 -16 -17 -17 -17 -17 -17 -17 -18 -18 -18 -18 -18 -18 -18 -18 -17 -17 -16 -16 -16 -15 -15 -14 -13 -13 -12 -11 -11 -10 -10 -10 -9 -9 -9 -9 -9 -10

GFSGL_850_temp_042.txt.gz
Temp
12 13 14 14 13 13 13 12 12 11 10 9 8 7 7 6 4 3 1 0 -0 1 -0 -0 -0 -0 -0 -0 -1 -1 -1 -1 -2 -1 -1 -1 -3 -4 -5 -5 -6 -6 -6
12 11 13 13 13 13 13 12 11 10 9 8 8 7 6 4 3 2 0 -0 1 -0 -0 0 -0 -0 -1 -1 -1 -1 -1 -1 -2 -1 -2 -2 -3 -4 -5 -6 -6 -6 -7
13 14 14 14 14 13 12 11 10 9 9 8 6 5 3 3 2 1 -0 -1 -0 -1 -1 -0 -0 -0 -0 -1 -1 -1 -1 -2 -2 -2 -3 -3 -3 -4 -5 -6 -6 -7 -7
14 13 13 12 11 10 10 9 8 8 7 7 5 3 2 2 1 -0 -1 -0 -0 -0 -2 -1 -1 -1 -1 -1 -1 -1 -2 -2 -2 -3 -3 -3 -4 -4 -5 -6 -6 -6 -6
12 11 11 10 9 9 9 8 8 7 7 5 4 2 2 0 0 1 -1 -0 -1 -2 -2 -1 -1 -2 -1 -1 -2 -2 -2 -2 -3 -3 -3 -4 -4 -4 -5 -6 -7 -7 -7
11 10 9 9 8 8 8 7 7 6 5 3 3 3 2 1 1 0 -1 -1 -1 -2 -2 -1 -1 -2 -2 -2 -2 -3 -3 -3 -3 -4 -4 -4 -4 -5 -6 -6 -7 -7 -7
9 9 8 7 7 7 6 5 5 4 3 3 2 2 0 0 -0 -0 -1 -2 -3 -2 -2 -2 -2 -1 -2 -3 -3 -3 -4 -4 -4 -5 -5 -5 -5 -6 -6 -7 -7 -7 -8
8 7 6 6 5 5 4 4 3 2 1 1 0 -0 -0 -0 -1 -1 -1 -2 -3 -3 -2 -2 -2 -2 -2 -3 -4 -3 -4 -5 -5 -5 -5 -6 -6 -7 -8 -8 -8 -9 -8
4 4 3 3 2 2 2 1 0 -0 -0 -0 -0 -1 -1 -1 -1 -1 -2 -2 -3 -3 -3 -3 -3 -3 -3 -3 -4 -4 -4 -5 -5 -6 -6 -6 -6 -7 -8 -9 -9 -9 -8
2 2 1 0 0 0 -0 1 0 0 -1 -0 -1 -2 -2 -1 -1 -2 -2 -3 -4 -4 -4 -4 -4 -3 -3 -4 -4 -4 -5 -5 -5 -6 -7 -6 -6 -7 -8 -9 -10 -9 -8
2 2 2 1 1 0 -1 -1 -1 -2 -1 -2 -1 -1 -3 -3 -3 -3 -3 -4 -4 -5 -4 -4 -4 -4 -4 -4 -4 -5 -5 -5 -6 -6 -7 -7 -7 -8 -8 -9 -9 -9 -9
1 1 0 0 0 -0 -0 -1 -1 -2 -2 -3 -3 -3 -4 -4 -4 -5 -5 -5 -5 -5 -5 -5 -5 -5 -5 -5 -5 -5 -5 -6 -6 -6 -7 -8 -7 -8 -8 -8 -8 -9 -9
1 0 0 0 -0 -0 -1 -1 -3 -3 -4 -4 -4 -5 -5 -6 -6 -7 -7 -8 -7 -7 -7 -6 -6 -6 -6 -6 -6 -5 -6 -6 -6 -7 -7 -8 -8 -8 -8 -8 -9 -9 -10
-0 -0 -0 -0 -1 -1 -2 -2 -3 -4 -4 -5 -6 -6 -7 -7 -7 -8 -8 -9 -9 -8 -8 -7 -7 -7 -7 -6 -6 -6 -6 -7 -7 -7 -7 -8 -8 -8 -9 -9 -9 -9 -10
-1 -1 -1 -1 -1 -2 -3 -3 -3 -5 -4 -5 -6 -7 -9 -10 -9 -10 -10 -10 -9 -9 -8 -8 -8 -7 -7 -6 -7 -6 -6 -7 -7 -7 -7 -8 -8 -8 -9 -9 -9 -10 -10
-1 -1 -1 -2 -2 -3 -5 -7 -5 -5 -6 -6 -7 -8 -8 -9 -10 -10 -10 -10 -10 -9 -8 -9 -8 -7 -7 -6 -6 -7 -7 -7 -8 -7 -7 -8 -8 -9 -9 -9 -9 -10 -9
-2 -2 -2 -3 -4 -4 -5 -7 -8 -9 -8 -8 -8 -8 -9 -9 -10 -10 -10 -10 -11 -11 -10 -9 -8 -8 -7 -7 -7 -7 -8 -8 -8 -8 -8 -8 -8 -8 -9 -9 -9 -10 -10
-3 -3 -4 -4 -5 -6 -6 -7 -9 -9 -10 -11 -11 -10 -10 -10 -10 -10 -11 -11 -13 -12 -12 -12 -12 -11 -9 -8 -7 -7 -8 -8 -8 -8 -8 -8 -8 -8 -9 -9 -9 -9 -10
-4 -4 -5 -5 -6 -6 -7 -8 -9 -10 -11 -12 -12 -13 -12 -11 -11 -12 -12 -14 -15 -14 -14 -14 -13 -12 -11 -9 -8 -7 -8 -8 -8 -8 -8 -8 -8 -8 -9 -9 -9 -10 -10
-5 -5 -6 -7 -7 -8 -8 -9 -10 -11 -12 -13 -14 -15 -13 -12 -14 -15 -16 -16 -16 -16 -16 -16 -15 -14 -12 -11 -11 -9 -8 -8 -8 -8 -8 -9 -9 -9 -9 -9 -9 -10 -10
-6 -7 -7 -8 -8 -9 -10 -10 -11 -11 -12 -14 -15 -15 -13 -13 -16 -17 -17 -17 -17 -17 -17 -17 -17 -16 -15 -12 -12 -11 -10 -9 -9 -9 -9 -9 -9 -9 -9 -9 -10 -10 -10
-7 -8 -9 -9 -10 -10 -11 -11 -12 -12 -13 -15 -16 -15 -14 -16 -18 -18 -18 -18 -19 -19 -19 -18 -18 -17 -16 -16 -13 -12 -11 -11 -11 -10 -9 -10 -10 -9 -9 -9 -10 -10 -11
-8 -9 -10 -10 -11 -11 -12 -12 -13 -13 -14 -15 -16 -16 -16 -18 -18 -19 -19 -19 -19 -18 -19 -19 -17 -16 -16 -16 -14 -14 -13 -12 -12 -11 -10 -10 -10 -10 -9 -10 -10 -10 -11
-10 -11 -11 -12 -12 -13 -13 -14 -14 -15 -15 -16 -17 -18 -19 -19 -19 -20 -20 -20 -18 -18 -18 -18 -17 -16 -16 -15 -15 -14 -14 -13 -12 -12 -11 -11 -10 -10 -10 -10 -10 -10 -10
-12 -12 -13 -13 -13 -14 -14 -15 -15 -16 -16 -17 -18 -19 -19 -20 -20 -21 -20 -19 -18 -18 -17 -17 -17 -17 -16 -16 -15 -15 -15 -14 -13 -13 -12 -11 -11 -10 -10 -9 -10 -10 -10
-14 -14 -14 -15 -16 -16 -16 -16 -16 -17 -17 -18 -18 -19 -19 -20 -20 -20 -19 -19 -19 -18 -18 -17 -17 -17 -16 -16 -16 -15 -15 -14 -14 -13 -12 -11 -11 -10 -10 -10 -9 -10 -9

GFSGL_850_temp_045.txt.gz
Temp
12 12 11 12 12 12 12 10 10 9 9 9 9 7 6 6 6 4 4 3 2 1 1 1 0 0 1 1 1 1 1 1 1 1 1 1 0 -0 -1 -2 -3 -4 -4
14 13 12 10 10 11 10 10 10 9 8 8 8 8 6 6 4 4 3 1 1 0 1 1 -0 0 -0 1 0 0 0 0 0 -0 0 -0 -0 -1 -1 -2 -3 -4 -4
15 13 12 11 11 11 10 10 9 9 8 8 7 6 5 4 3 2 2 0 1 1 0 -0 -1 -0 -0 -1 -0 -0 0 0 -0 -0 -0 -1 -1 -1 -2 -2 -3 -4 -4
13 12 11 10 10 10 9 9 9 8 8 7 6 5 4 3 2 2 1 1 1 0 0 -0 -0 -1 -1 -0 0 0 0 -0 -0 -1 -1 -1 -1 -1 -2 -3 -3 -3 -4
11 10 9 9 8 8 7 7 7 7 7 6 6 4 3 3 2 2 1 -1 -0 0 -0 -1 -1 -1 -0 -0 -0 -0 -0 -0 -0 -1 -1 -1 -1 -2 -2 -2 -3 -4 -5
9 8 7 7 7 6 6 7 7 6 6 5 5 4 3 2 1 1 0 -0 -1 -0 -1 -1 -1 -1 -1 -1 -1 -1 -1 -2 -2 -1 -2 -2 -2 -2 -3 -3 -4 -4 -5
7 6 6 6 7 7 6 6 5 5 4 3 2 2 1 0 -0 0 -0 -1 -1 -1 -2 -2 -1 -1 -1 -1 -1 -1 -2 -2 -3 -3 -3 -3 -3 -3 -4 -4 -5 -5 -6
6 6 6 6 6 6 5 4 4 3 2 2 1 0 0 0 -0 -0 -0 -1 -1 -2 -2 -2 -1 -1 -1 -2 -2 -2 -2 -2 -3 -3 -3 -4 -4 -5 -4 -5 -6 -6 -7
5 5 4 4 3 2 2 2 2 1 0 1 0 0 -0 -0 -0 -1 -1 -2 -3 -3 -3 -2 -2 -2 -2 -3 -3 -3 -3 -3 -3 -3 -4 -5 -5 -6 -6 -6 -7 -7 -8
4 4 3 3 2 1 1 1 1 1 1 0 -1 -1 -1 -2 -2 -2 -2 -3 -4 -4 -4 -3 -3 -3 -3 -4 -4 -4 -4 -4 -4 -4 -5 -5 -5 -6 -6 -7 -8 -9 -8
3 2 2 2 2 1 0 0 0 0 -0 -1 -1 -2 -2 -2 -3 -3 -4 -4 -5 -5 -6 -6 -5 -5 -5 -5 -5 -5 -5 -5 -5 -5 -5 -5 -5 -6 -7 -7 -7 -8 -8
3 3 1 0 0 0 0 -0 -1 -1 -1 -2 -2 -3 -3 -3 -4 -4 -5 -5 -6 -6 -6 -6 -7 -6 -6 -6 -6 -5 -5 -5 -6 -6 -6 -6 -6 -6 -6 -7 -8 -8 -8
1 0 0 -0 -0 -1 -0 -1 -1 -1 -2 -3 -3 -4 -4 -5 -5 -6 -6 -6 -6 -6 -6 -6 -6 -6 -6 -7 -7 -7 -6 -6 -6 -6 -6 -6 -6 -6 -7 -7 -8 -8 -8
0 -0 -1 -1 -1 -2 -2 -2 -2 -3 -4 -4 -5 -5 -6 -7 -7 -6 -6 -6 -7 -8 -8 -8 -7 -7 -7 -7 -7 -7 -7 -7 -6 -6 -7 -6 -7 -7 -7 -7 -8 -8 -8
-1 -1 -2 -2 -2 -3 -3 -3 -3 -2 -3 -3 -4 -5 -6 -6 -7 -8 -8 -9 -9 -9 -9 -9 -9 -8 -8 -8 -7 -7 -7 -6 -7 -7 -7 -7 -7 -7 -7 -7 -8 -8 -8
-2 -3 -3 -3 -3 -4 -4 -4 -4 -4 -4 -4 -5 -6 -7 -7 -8 -9 -9 -9 -9 -10 -10 -10 -10 -9 -9 -9 -8 -7 -6 -6 -7 -7 -7 -7 -7 -7 -7 -7 -8 -8 -9
-3 -2 -2 -3 -5 -5 -5 -6 -6 -7 -6 -6 -7 -8 -8 -8 -9 -9 -9 -9 -10 -12 -11 -11 -11 -11 -12 -11 -10 -9 -8 -6 -7 -7 -7 -7 -7 -7 -7 -8 -8 -8 -9
-2 -2 -5 -6 -6 -5 -6 -6 -8 -8 -9 -9 -10 -11 -11 -9 -10 -10 -10 -10 -12 -12 -12 -12 -13 -13 -13 -13 -12 -11 -9 -7 -7 -7 -7 -7 -7 -7 -7 -8 -8 -8 -9
-5 -5 -4 -4 -4 -5 -6 -7 -8 -9 -10 -11 -11 -11 -12 -11 -11 -12 -14 -14 -14 -14 -13 -14 -14 -14 -14 -14 -14 -13 -11 -10 -8 -7 -8 -8 -8 -8 -8 -8 -8 -8 -9
-4 -4 -4 -5 -6 -7 -8 -9 -11 -11 -12 -12 -12 -13 -14 -11 -12 -14 -14 -15 -15 -15 -15 -16 -16 -16 -16 -16 -15 -14 -12 -10 -10 -9 -8 -8 -8 -8 -8 -8 -8 -8 -9
-5 -5 -6 -7 -8 -8 -9 -10 -11 -12 -13 -13 -13 -14 -14 -13 -15 -15 -15 -16 -16 -17 -17 -17 -17 -17 -17 -17 -16 -16 -15 -12 -11 -11 -10 -8 -8 -8 -8 -8 -8 -8 -9
-7 -7 -8 -8 -9 -10 -10 -11 -12 -14 -14 -14 -15 -15 -16 -16 -16 -16 -16 -17 -17 -18 -18 -18 -18 -18 -18 -18 -18 -17 -16 -15 -13 -12 -11 -11 -9 -9 -9 -9 -8 -9 -9
-8 -9 -10 -11 -10 -11 -13 -14 -15 -15 -16 -16 -16 -16 -17 -17 -17 -18 -18 -18 -19 -19 -19 -19 -20 -19 -19 -19 -19 -18 -18 -17 -16 -14 -13 -12 -11 -10 -10 -9 -9 -9 -9
-9 -10 -11 -12 -13 -13 -15 -16 -16 -16 -17 -17 -17 -17 -18 -18 -18 -19 -19 -19 -20 -20 -20 -20 -20 -20 -20 -19 -18 -17 -16 -16 -16 -15 -14 -13 -12 -11 -10 -10 -9 -9 -9
-11 -11 -12 -14 -16 -17 -17 -17 -17 -18 -18 -18 -18 -19 -19 -19 -19 -20 -20 -20 -21 -21 -21 -19 -19 -20 -20 -18 -17 -16 -16 -16 -15 -15 -14 -14 -13 -12 -11 -10 -9 -9 -10
-13 -15 -15 -17 -17 -17 -18 -18 -18 -19 -19 -19 -20 -20 -20 -20 -21 -21 -21 -22 -21 -21 -19 -21 -19 -19 -18 -17 -17 -17 -17 -16 -16 -15 -15 -14 -13 -12 -12 -10 -9 -9 -9

GFSGL_850_temp_048.txt.gz
Temp
15 15 14 14 13 12 12 11 11 10 9 9 9 9 8 8 7 6 6 5 3 3 2 1 1 1 2 1 1 1 1 1 1 1 0 1 1 0 0 -0 -1 -1 -2
16 15 15 13 12 11 10 10 10 10 9 9 8 8 8 8 6 5 4 3 3 3 2 2 1 1 1 0 0 0 0 -0 0 0 0 0 0 -0 -0 -0 -1 -1 -2
15 14 13 12 11 11 10 10 9 9 9 8 8 8 7 5 4 3 2 2 2 2 1 1 0 0 1 0 0 -0 -1 -1 -0 0 0 0 -0 -0 -1 -1 -1 -2 -2
15 14 13 13 11 11 10 9 9 8 8 8 7 6 6 5 4 4 3 2 2 1 1 0 -0 -0 -0 -0 -0 -0 -1 -0 -0 -0 -1 -0 -0 -1 -1 -1 -1 -2 -2
14 13 12 11 10 9 9 8 8 8 7 7 7 6 5 4 4 3 2 1 1 0 -0 -1 -0 -1 -0 -1 -1 -1 -1 -0 -0 -1 -1 -1 -1 -1 -1 -1 -2 -2 -3
11 11 10 9 8 7 7 6 6 7 6 6 5 4 3 3 2 1 1 -0 -0 -1 -0 -1 -1 -1 -1 -1 -1 -0 -1 -1 -1 -1 -1 -2 -2 -2 -2 -2 -3 -3 -4
10 9 8 7 7 7 6 6 6 5 5 4 4 3 2 1 1 0 0 -0 -1 -1 -1 -1 -1 -2 -1 -1 -1 -1 -1 -1 -1 -1 -2 -2 -2 -2 -2 -3 -4 -4 -4
8 7 7 7 7 7 6 5 5 4 4 3 3 1 1 0 -0 -1 -1 -1 -1 -1 -2 -3 -2 -2 -2 -2 -2 -2 -2 -2 -2 -3 -3 -3 -3 -3 -3 -4 -4 -4 -6
7 7 6 6 5 5 5 4 4 3 1 1 0 0 -0 -1 -1 -1 -1 -1 -1 -2 -2 -2 -3 -3 -3 -3 -3 -4 -4 -4 -3 -3 -3 -3 -4 -4 -4 -5 -5 -5 -6
6 5 4 4 3 3 2 2 2 1 1 1 0 -0 -1 -1 -2 -1 -1 -2 -2 -2 -2 -3 -3 -3 -4 -4 -4 -5 -5 -5 -4 -5 -5 -4 -4 -4 -4 -5 -5 -5 -6
5 4 3 3 3 2 2 2 1 1 0 0 -0 -1 -1 -2 -2 -2 -2 -2 -3 -3 -3 -3 -4 -4 -5 -5 -6 -6 -6 -6 -6 -6 -5 -6 -6 -5 -5 -5 -5 -5 -6
4 4 4 3 1 1 1 0 0 -0 -0 -1 -1 -2 -3 -3 -3 -3 -3 -2 -3 -4 -4 -5 -5 -5 -6 -6 -6 -6 -6 -7 -7 -7 -7 -7 -6 -6 -6 -6 -6 -6 -7
3 2 2 1 1 0 0 -0 -0 -1 -1 -2 -2 -2 -3 -4 -4 -3 -3 -4 -4 -5 -5 -5 -6 -6 -7 -7 -7 -7 -7 -7 -7 -8 -8 -7 -7 -6 -6 -6 -6 -7 -7
1 1 0 0 -0 -0 -1 -1 -1 -1 -2 -2 -2 -3 -4 -4 -4 -4 -4 -4 -5 -5 -6 -6 -7 -8 -9 -9 -9 -8 -8 -7 -7 -7 -6 -7 -7 -7 -7 -6 -7 -7 -7
1 -0 -0 -1 -1 -1 -2 -2 -1 -1 -2 -2 -3 -3 -4 -4 -4 -6 -6 -6 -7 -7 -8 -8 -9 -10 -10 -10 -10 -10 -10 -8 -8 -7 -7 -7 -7 -7 -7 -7 -7 -7 -7
-0 -1 -1 -1 -2 -2 -2 -2 -3 -3 -3 -4 -4 -5 -5 -5 -6 -7 -7 -8 -8 -9 -9 -11 -11 -11 -12 -12 -12 -12 -12 -11 -9 -8 -6 -6 -6 -7 -7 -7 -7 -7 -7
-1 -2 -3 -3 -3 -3 -4 -5 -5 -5 -6 -5 -5 -5 -6 -6 -7 -8 -9 -9 -10 -12 -12 -12 -12 -13 -13 -13 -14 -14 -14 -13 -11 -10 -8 -7 -7 -7 -7 -7 -7 -7 -8
-3 -4 -4 -3 -3 -4 -4 -4 -5 -6 -7 -8 -9 -9 -10 -9 -8 -10 -10 -11 -12 -12 -13 -13 -13 -14 -14 -14 -14 -15 -15 -14 -12 -10 -9 -8 -7 -8 -8 -8 -7 -7 -8
-4 -3 -2 -3 -3 -3 -4 -5 -6 -7 -8 -9 -10 -11 -11 -11 -11 -11 -13 -14 -14 -14 -14 -15 -15 -15 -16 -16 -16 -16 -16 -16 -14 -12 -10 -10 -8 -8 -8 -8 -8 -7 -8
-4 -4 -4 -4 -4 -5 -6 -6 -7 -8 -9 -10 -11 -12 -12 -11 -12 -12 -14 -15 -15 -15 -15 -16 -16 -17 -17 -17 -17 -17 -17 -16 -15 -14 -13 -11 -10 -8 -8 -8 -8 -8 -7
-6 -7 -7 -6 -6 -6 -7 -8 -9 -10 -10 -11 -12 -13 -13 -14 -14 -15 -15 -16 -16 -16 -17 -17 -17 -18 -18 -18 -18 -18 -18 -17 -16 -16 -14 -12 -11 -11 -9 -9 -9 -8 -8
-8 -7 -7 -7 -8 -8 -8 -9 -10 -11 -12 -13 -14 -14 -15 -15 -16 -16 -16 -17 -17 -18 -18 -18 -18 -19 -19 -19 -18 -18 -19 -19 -18 -17 -15 -14 -12 -11 -10 -9 -9 -9 -8
-9 -9 -8 -9 -9 -9 -10 -12 -12 -13 -14 -15 -15 -16 -16 -16 -17 -17 -17 -18 -18 -19 -19 -19 -19 -19 -18 -19 -19 -20 -20 -19 -18 -17 -16 -15 -13 -13 -12 -11 -10 -9 -8
-9 -9 -10 -11 -11 -12 -13 -14 -14 -15 -16 -16 -16 -17 -17 -17 -18 -18 -19 -19 -19 -19 -20 -20 -19 -19 -19 -20 -19 -19 -18 -18 -19 -19 -17 -16 -15 -14 -13 -12 -11 -10 -9
-10 -11 -12 -13 -14 -15 -15 -16 -16 -17 -17 -17 -18 -18 -18 -19 -19 -19 -20 -20 -20 -20 -20 -19 -19 -19 -19 -19 -19 -19 -19 -19 -18 -18 -17 -16 -15 -14 -14 -13 -12 -10 -10
-13 -14 -15 -15 -16 -16 -17 -17 -17 -18 -18 -18 -19 -19 -20 -20 -20 -21 -21 -21 -21 -21 -20 -19 -19 -19 -19 -19 -19 -19 -19 -18 -17 -17 -17 -17 -16 -15 -14 -13 -12 -11 -10

GFSGL_850_temp_051.txt.gz
Temp
15 15 14 14 14 14 14 13 12 11 12 12 11 10 9 9 8 8 7 7 5 5 4 3 2 2 2 2 1 1 1 1 1 1 1 1 0 0 0 0 0 -0 -0
15 14 14 14 14 13 13 13 12 11 11 11 9 9 9 8 8 8 7 6 4 4 3 2 2 2 1 1 1 1 1 0 0 0 -0 0 -0 0 0 0 -0 -0 -0
14 14 14 13 13 12 12 11 11 10 10 9 9 8 8 8 8 8 6 4 3 3 2 2 1 0 0 1 0 0 -0 0 -0 -1 -1 -0 -0 -0 -0 -1 -0 -1 -1
14 15 16 15 14 13 12 10 10 9 9 9 9 8 8 7 6 5 4 3 3 3 1 1 1 0 0 -0 -0 -0 -1 -1 -1 -1 -0 -1 -1 -1 -1 -1 -2 -1 -2
16 15 14 14 13 12 11 10 9 9 8 8 8 8 7 6 5 4 3 3 2 1 0 0 -0 -0 -1 -1 -1 -1 -1 -1 -1 -1 -1 -1 -1 -1 -1 -1 -2 -2 -2
16 15 14 13 12 11 10 9 8 8 8 7 7 6 5 4 3 2 2 1 0 0 0 -1 -1 -1 -1 -1 -2 -2 -2 -2 -2 -2 -2 -2 -2 -2 -2 -2 -3 -3 -4
14 13 12 11 10 10 8 8 7 7 7 6 6 5 3 2 2 1 0 0 0 -0 -1 -1 -1 -2 -3 -3 -2 -2 -2 -2 -2 -3 -3 -3 -3 -3 -3 -3 -3 -4 -4
11 10 10 10 9 8 7 6 6 6 5 5 4 3 2 1 0 0 -0 -1 -1 -1 -1 -2 -2 -2 -3 -3 -2 -3 -3 -3 -3 -3 -4 -4 -4 -4 -4 -4 -4 -4 -4
10 9 9 9 8 6 6 5 5 4 4 3 2 1 0 -0 -0 -1 -1 -1 -1 -1 -1 -2 -2 -2 -3 -3 -3 -3 -3 -3 -4 -4 -5 -5 -5 -5 -5 -5 -5 -5 -5
9 8 7 7 6 6 5 4 3 2 1 1 0 -0 -0 -0 -1 -1 -1 -1 -1 -2 -2 -2 -2 -3 -3 -4 -5 -5 -5 -5 -5 -5 -6 -6 -6 -5 -5 -5 -5 -5 -5
7 6 6 6 5 5 4 3 3 2 1 0 -0 -1 -1 -1 -1 -1 -2 -2 -3 -2 -2 -2 -2 -3 -4 -5 -6 -7 -7 -7 -7 -7 -7 -7 -6 -7 -7 -7 -6 -6 -6
6 5 4 4 3 4 3 2 1 1 0 -0 -1 -1 -2 -2 -2 -2 -3 -3 -2 -2 -3 -3 -4 -4 -5 -6 -7 -7 -8 -9 -8 -8 -7 -7 -7 -7 -7 -7 -6 -6 -6
5 4 3 3 3 3 1 1 0 0 0 -0 -1 -2 -3 -3 -3 -3 -3 -3 -3 -4 -4 -5 -5 -6 -7 -7 -8 -9 -9 -9 -10 -9 -9 -8 -8 -7 -7 -7 -7 -6 -6
4 3 2 2 1 1 0 0 -0 -0 -1 -2 -2 -3 -3 -3 -3 -3 -4 -4 -4 -5 -5 -6 -7 -8 -8 -8 -9 -9 -10 -10 -10 -10 -9 -8 -7 -7 -7 -7 -7 -7 -7
2 2 1 1 0 -0 -0 -1 -1 -1 -1 -1 -2 -2 -3 -3 -4 -4 -4 -4 -5 -6 -7 -8 -8 -8 -8 -9 -10 -11 -11 -10 -10 -10 -10 -9 -7 -7 -7 -7 -7 -8 -7
1 0 -0 -0 -1 -1 -1 -1 -2 -2 -2 -2 -2 -3 -3 -4 -5 -5 -6 -7 -8 -8 -8 -9 -11 -11 -12 -12 -12 -12 -13 -12 -12 -11 -11 -10 -10 -8 -7 -7 -7 -7 -7
0 -0 -1 -2 -2 -2 -2 -2 -2 -4 -4 -4 -5 -5 -5 -6 -6 -7 -7 -8 -9 -9 -11 -12 -12 -13 -13 -14 -14 -14 -14 -14 -14 -13 -12 -11 -11 -9 -8 -8 -7 -7 -8
-1 -2 -2 -3 -3 -3 -4 -5 -5 -5 -5 -5 -6 -8 -8 -8 -8 -9 -10 -10 -11 -11 -12 -12 -13 -14 -14 -14 -15 -15 -15 -14 -14 -14 -13 -13 -11 -11 -9 -8 -8 -8 -7
-3 -3 -4 -4 -4 -4 -4 -5 -5 -5 -6 -7 -9 -10 -10 -10 -11 -11 -11 -12 -13 -14 -14 -14 -15 -15 -15 -16 -17 -17 -16 -16 -16 -15 -14 -14 -13 -12 -11 -9 -8 -8 -8
-6 -5 -5 -5 -6 -6 -7 -7 -6 -7 -8 -8 -10 -11 -11 -12 -12 -11 -12 -13 -15 -15 -15 -16 -16 -17 -17 -17 -17 -17 -17 -17 -17 -16 -16 -15 -14 -13 -12 -11 -9 -9 -9
-6 -6 -6 -7 -8 -8 -8 -8 -9 -8 -9 -10 -11 -12 -12 -13 -13 -14 -14 -16 -16 -16 -16 -17 -17 -18 -18 -18 -17 -18 -18 -18 -18 -17 -17 -16 -15 -13 -13 -12 -11 -10 -9
-7 -7 -8 -9 -9 -9 -10 -10 -10 -10 -11 -12 -12 -13 -14 -15 -15 -16 -16 -16 -17 -17 -18 -18 -18 -18 -18 -18 -19 -19 -19 -19 -18 -18 -18 -17 -16 -15 -14 -13 -12 -11 -10
-8 -9 -10 -10 -11 -11 -11 -11 -12 -13 -13 -14 -14 -15 -15 -16 -16 -17 -17 -18 -18 -18 -19 -19 -19 -18 -18 -18 -19 -19 -20 -19 -19 -19 -18 -18 -17 -16 -15 -14 -13 -11 -10
-10 -11 -12 -13 -13 -13 -13 -14 -14 -15 -15 -16 -16 -17 -17 -17 -18 -18 -18 -19 -19 -19 -19 -19 -19 -19 -19 -19 -19 -19 -20 -20 -20 -20 -19 -18 -17 -16 -15 -14 -13 -12 -12
-12 -13 -13 -14 -14 -15 -15 -16 -16 -16 -17 -17 -17 -18 -18 -18 -19 -19 -20 -20 -20 -20 -20 -20 -19 -19 -19 -19 -19 -19 -20 -20 -19 -19 -18 -18 -17 -16 -15 -15 -14 -13 -12
-14 -15 -15 -16 -16 -17 -17 -17 -18 -18 -18 -18 -19 -19 -20 -20 -21 -21 -21 -21 -21 -20 -20 -20 -20 -19 -19 -19 -19 -19 -19 -19 -18 -18 -18 -18 -17 -16 -16 -15 -14 -14 -13

GFSGL_850_temp_054.txt.gz
Temp
13 14 14 13 13 12 12 13 13 12 11 11 12 12 11 11 10 9 9 9 8 7 7 5 4 4 3 2 2 2 2 1 1 1 1 1 1 0 0 0 0 0 0
15 18 16 13 12 12 11 12 12 12 11 11 11 11 10 10 9 9 9 8 8 7 6 5 4 3 2 2 1 1 1 1 0 0 0 0 0 0 0 -0 -0 -0 -0
16 14 14 13 12 11 13 12 12 12 11 10 11 10 10 9 9 9 8 8 6 6 5 4 3 2 1 1 0 0 0 0 0 0 -0 -0 -1 -1 -1 -1 -1 -1 -1
15 15 13 14 13 14 14 13 10 11 11 10 9 9 9 9 9 8 7 7 5 4 4 3 2 0 1 -0 -1 -1 -1 -1 -1 -1 -1 -1 -1 -1 -1 -1 -1 -1 -2
15 15 14 14 14 13 13 14 11 10 9 9 9 9 9 8 8 7 6 5 4 3 3 2 1 0 -0 -1 -2 -2 -1 -1 -1 -2 -2 -2 -2 -2 -2 -2 -3 -3 -3
16 15 15 14 14 14 14 12 11 10 9 9 8 8 8 8 7 6 4 3 3 2 2 0 -0 -1 -2 -2 -1 -2 -2 -2 -2 -3 -3 -3 -3 -3 -4 -4 -4 -4 -4
15 15 15 14 14 13 12 11 10 9 9 8 8 7 7 6 5 4 3 2 2 1 -0 -0 -1 -2 -2 -1 -1 -2 -2 -3 -3 -3 -4 -4 -4 -5 -5 -5 -5 -5 -5
16 15 14 13 12 11 10 9 9 8 7 7 6 6 5 4 3 2 2 1 0 -0 -1 -1 -2 -1 -1 -2 -2 -2 -2 -2 -3 -3 -3 -3 -4 -4 -6 -6 -6 -6 -6
14 12 11 10 10 9 9 8 7 7 6 6 5 5 4 3 2 1 0 -1 -1 -1 -1 -1 -2 -2 -2 -3 -3 -3 -2 -2 -3 -4 -5 -6 -6 -6 -6 -7 -7 -8 -8
11 11 10 9 9 9 8 7 7 6 5 4 3 2 1 1 -0 -1 -1 -1 -1 -2 -2 -2 -3 -3 -3 -3 -3 -3 -3 -4 -4 -5 -6 -6 -6 -6 -6 -8 -8 -9 -8
11 10 9 8 8 7 7 6 6 4 3 2 1 -0 -0 -1 -1 -1 -1 -2 -2 -2 -3 -3 -3 -3 -3 -3 -4 -4 -5 -6 -6 -6 -6 -6 -7 -7 -6 -6 -8 -8 -8
9 8 8 7 7 6 6 5 4 3 2 1 -0 -1 -1 -1 -1 -2 -2 -3 -3 -3 -3 -3 -3 -4 -4 -4 -5 -6 -6 -6 -7 -7 -7 -7 -7 -7 -7 -7 -7 -7 -7
8 7 7 6 5 5 4 3 1 1 0 -0 -1 -1 -1 -2 -2 -3 -3 -3 -4 -4 -4 -4 -4 -5 -6 -7 -7 -8 -8 -8 -8 -8 -8 -9 -9 -9 -8 -7 -7 -7 -7
7 6 5 4 3 2 1 1 1 0 -0 -1 -1 -1 -2 -2 -3 -3 -4 -4 -5 -5 -5 -6 -6 -6 -7 -8 -9 -9 -9 -10 -10 -10 -10 -10 -10 -9 -8 -7 -7 -8 -7
5 4 3 2 2 1 0 -0 -0 -1 -1 -1 -2 -2 -3 -3 -4 -4 -5 -5 -5 -5 -6 -7 -7 -8 -8 -9 -10 -10 -10 -10 -11 -11 -11 -11 -11 -10 -9 -8 -7 -7 -7
4 3 2 1 0 0 -0 -1 -2 -2 -3 -3 -4 -4 -4 -5 -5 -5 -5 -6 -6 -6 -7 -8 -9 -10 -10 -11 -11 -11 -12 -12 -12 -13 -13 -12 -12 -11 -10 -9 -8 -8 -7
3 1 1 0 -0 -1 -1 -2 -2 -3 -3 -4 -4 -4 -5 -5 -6 -7 -7 -8 -8 -8 -9 -10 -11 -11 -12 -12 -12 -13 -13 -14 -14 -14 -14 -13 -13 -12 -11 -10 -10 -8 -8
1 0 -0 -1 -2 -2 -3 -3 -4 -4 -4 -5 -6 -7 -7 -7 -8 -8 -8 -9 -10 -10 -10 -11 -12 -13 -13 -14 -14 -15 -15 -15 -15 -15 -15 -14 -14 -14 -12 -11 -11 -10 -8
-1 -2 -3 -4 -5 -5 -6 -6 -6 -7 -7 -8 -9 -9 -9 -10 -10 -10 -11 -11 -12 -12 -13 -13 -14 -14 -15 -15 -16 -16 -16 -16 -16 -16 -16 -15 -15 -15 -13 -13 -12 -12 -10
-4 -5 -5 -6 -6 -7 -7 -8 -8 -8 -9 -10 -10 -11 -11 -12 -12 -12 -12 -12 -13 -14 -15 -15 -16 -16 -16 -16 -16 -16 -17 -17 -16 -16 -17 -17 -16 -16 -15 -14 -13 -12 -11
-5 -6 -6 -7 -7 -7 -8 -9 -9 -10 -10 -11 -12 -12 -12 -13 -13 -13 -14 -14 -15 -16 -16 -17 -17 -17 -18 -18 -17 -18 -17 -17 -17 -18 -18 -17 -17 -16 -15 -15 -14 -13 -13
-7 -7 -8 -8 -9 -9 -10 -10 -11 -12 -12 -13 -13 -14 -14 -14 -15 -15 -16 -16 -17 -17 -18 -18 -18 -19 -19 -19 -19 -19 -18 -18 -18 -19 -18 -18 -18 -17 -16 -16 -15 -14 -13
-8 -9 -9 -10 -11 -11 -12 -12 -13 -14 -14 -14 -15 -15 -15 -16 -16 -17 -17 -18 -18 -18 -19 -19 -19 -19 -19 -19 -19 -19 -19 -19 -20 -20 -19 -19 -18 -17 -17 -16 -15 -14 -13
-10 -11 -11 -12 -13 -13 -14 -14 -15 -15 -15 -16 -16 -16 -17 -17 -18 -18 -19 -19 -19 -20 -20 -20 -20 -20 -19 -19 -19 -19 -20 -20 -20 -20 -19 -19 -19 -18 -17 -17 -16 -15 -14
-12 -13 -13 -14 -14 -15 -16 -16 -16 -17 -17 -17 -18 -18 -19 -19 -19 -20 -20 -21 -21 -21 -21 -21 -20 -20 -19 -19 -19 -20 -20 -20 -19 -19 -19 -19 -19 -18 -18 -17 -16 -16 -15
-14 -15 -15 -16 -16 -17 -17 -17 -18 -18 -19 -19 -19 -20 -20 -21 -21 -21 -22 -22 -22 -21 -21 -21 -20 -20 -20 -20 -20 -20 -20 -19 -19 -19 -20 -19 -19 -18 -18 -17 -16 -16 -15

GFSGL_850_temp_057.txt.gz
Temp
13 13 13 13 14 13 12 13 13 12 11 11 11 11 11 11 11 10 10 9 9 9 8 8 7 6 5 5 4 3 2 2 1 1 1 1 0 1 1 0 0 -0 0
14 14 14 13 12 12 12 13 13 13 12 11 11 12 12 11 9 9 9 9 9 8 8 7 7 5 4 4 2 2 1 1 1 0 0 0 0 0 -0 -0 -0 -1 -1
14 14 13 13 11 12 13 12 12 13 12 12 10 11 11 11 10 9 8 8 8 8 8 7 5 4 4 3 2 1 1 1 1 -0 -1 -1 -1 -1 -0 -0 -1 -1 -1
14 14 14 14 14 13 13 12 11 12 12 12 11 11 11 10 9 8 8 8 8 7 6 6 4 3 2 1 1 1 1 1 -0 -1 -1 -1 -1 -0 -1 -2 -2 -2 -2
13 12 13 14 14 13 12 12 12 12 12 11 10 10 10 9 9 8 8 8 7 6 5 4 3 2 1 1 0 0 -0 -0 -1 -1 -1 -1 -1 -1 -2 -3 -4 -3 -3
15 14 13 13 13 13 13 13 12 12 10 10 11 10 9 9 8 8 8 7 6 5 5 3 2 1 -0 -0 -1 -2 -1 -1 -2 -2 -1 -1 -2 -2 -3 -4 -4 -5 -6
17 15 14 13 13 12 13 12 12 13 10 9 10 9 9 8 8 8 7 6 5 4 3 1 1 -0 -0 -1 -2 -2 -2 -2 -2 -2 -2 -2 -3 -3 -4 -5 -6 -7 -7
17 15 15 14 13 13 13 12 11 10 10 10 9 9 8 7 7 6 5 4 3 2 1 0 -0 -1 -2 -2 -2 -2 -2 -2 -2 -3 -3 -3 -4 -5 -6 -6 -7 -7 -6
17 16 15 15 13 12 10 10 10 10 10 9 8 8 7 6 6 4 3 2 1 0 -0 -1 -1 -1 -2 -2 -2 -2 -2 -2 -2 -2 -3 -3 -4 -5 -6 -7 -7 -8 -8
16 16 16 15 11 10 10 9 9 9 8 7 6 5 5 4 3 2 1 0 0 -0 -1 -1 -2 -2 -2 -3 -2 -2 -2 -3 -3 -3 -3 -4 -5 -5 -6 -7 -8 -8 -8
15 14 13 11 10 10 10 9 8 7 6 5 4 3 2 1 1 -0 -1 -1 -1 -2 -2 -2 -3 -3 -3 -3 -3 -3 -4 -4 -5 -5 -5 -5 -6 -6 -7 -7 -8 -8 -8
12 11 10 10 9 9 8 7 6 5 4 3 2 2 0 -0 -1 -1 -2 -2 -2 -3 -3 -3 -3 -3 -3 -3 -4 -5 -6 -6 -6 -7 -7 -7 -7 -7 -7 -8 -8 -8 -8
10 9 8 8 7 6 5 5 4 3 2 2 0 0 -1 -1 -2 -2 -2 -3 -3 -4 -4 -4 -4 -4 -5 -6 -7 -7 -7 -7 -7 -7 -7 -8 -8 -8 -8 -8 -8 -8 -8
8 7 6 5 4 4 3 2 2 1 0 0 -0 -1 -1 -2 -2 -3 -4 -4 -4 -4 -4 -5 -5 -6 -6 -7 -8 -8 -8 -8 -9 -9 -9 -9 -9 -9 -9 -9 -9 -8 -8
7 6 5 4 3 2 1 1 1 0 -0 -0 -1 -1 -1 -2 -3 -3 -4 -5 -4 -5 -5 -6 -6 -7 -8 -9 -9 -10 -10 -10 -10 -10 -11 -10 -10 -10 -10 -10 -10 -9 -9
6 5 4 3 2 1 1 0 -1 -1 -2 -2 -3 -3 -3 -4 -4 -4 -5 -6 -7 -7 -7 -8 -9 -10 -10 -11 -11 -11 -11 -12 -12 -12 -12 -12 -12 -12 -11 -11 -11 -11 -10
5 4 2 2 1 1 -0 -0 -1 -3 -4 -4 -5 -5 -5 -5 -4 -6 -7 -8 -8 -9 -9 -10 -11 -11 -12 -12 -13 -13 -13 -14 -14 -14 -14 -14 -14 -14 -13 -12 -12 -12 -11
2 1 1 -1 -1 -2 -3 -4 -5 -5 -5 -6 -6 -6 -7 -7 -7 -9 -9 -10 -11 -12 -12 -12 -13 -13 -14 -14 -14 -15 -15 -15 -15 -15 -15 -15 -15 -15 -14 -14 -13 -13 -12
-0 -2 -3 -3 -4 -5 -5 -5 -5 -6 -6 -7 -7 -8 -8 -9 -10 -11 -11 -12 -12 -13 -14 -14 -14 -15 -15 -15 -16 -16 -16 -16 -16 -16 -16 -16 -16 -16 -15 -15 -15 -13 -13
-3 -3 -4 -5 -5 -5 -6 -6 -6 -7 -7 -8 -9 -10 -11 -11 -12 -12 -12 -13 -13 -14 -14 -15 -16 -16 -17 -17 -17 -17 -17 -17 -16 -16 -17 -17 -17 -17 -17 -16 -16 -15 -14
-5 -6 -6 -6 -6 -7 -7 -8 -9 -9 -10 -10 -11 -12 -12 -12 -13 -13 -14 -15 -15 -16 -16 -16 -17 -17 -18 -18 -18 -18 -17 -17 -17 -18 -18 -18 -18 -18 -17 -17 -17 -16 -15
-7 -7 -8 -8 -9 -9 -10 -10 -11 -11 -12 -12 -13 -13 -14 -14 -15 -15 -16 -16 -17 -17 -17 -18 -18 -19 -19 -19 -19 -19 -18 -18 -18 -18 -19 -19 -19 -18 -18 -17 -17 -16 -16
-8 -9 -9 -10 -10 -11 -12 -12 -13 -13 -14 -14 -15 -15 -16 -16 -16 -17 -17 -18 -18 -19 -19 -19 -20 -20 -20 -20 -20 -20 -19 -19 -19 -19 -19 -19 -19 -19 -18 -18 -17 -17 -16
-10 -10 -11 -11 -12 -13 -13 -14 -15 -15 -16 -16 -16 -17 -17 -18 -18 -19 -19 -19 -20 -20 -21 -21 -21 -21 -21 -20 -20 -20 -20 -20 -20 -20 -20 -20 -19 -19 -19 -18 -18 -17 -17
-12 -12 -13 -13 -14 -15 -15 -16 -16 -17 -17 -18 -18 -18 -19 -19 -20 -20 -21 -21 -22 -22 -22 -22 -22 -22 -21 -21 -20 -20 -20 -20 -20 -20 -20 -20 -20 -20 -19 -19 -18 -18 -17
-14 -14 -15 -15 -16 -16 -17 -18 -18 -19 -19 -20 -20 -20 -21 -21 -21 -22 -22 -22 -23 -23 -23 -22 -22 -21 -21 -20 -20 -20 -20 -20 -20 -20 -20 -20 -20 -20 -19 -19 -18 -18 -17

GFSGL_850_temp_060.txt.gz
Temp
14 14 14 14 14 13 13 13 12 12 12 12 12 11 11 11 12 11 10 10 10 10 10 10 9 8 8 7 7 6 5 4 3 3 2 2 2 2 2 1 0 0 0
15 14 14 14 14 14 14 13 12 12 11 12 11 11 10 11 11 11 10 10 10 10 9 9 9 8 8 7 5 5 4 3 3 2 1 2 2 1 1 0 0 -0 -0
15 15 14 14 14 13 12 12 12 12 12 12 11 10 10 11 12 11 11 10 9 9 9 8 8 8 7 6 5 3 3 2 2 1 1 1 1 1 0 -0 -0 0 -0
16 15 14 14 14 14 13 13 13 12 12 12 11 11 11 11 11 11 10 9 9 8 8 8 8 7 6 5 3 2 2 1 1 0 0 -0 -0 0 -0 -0 0 1 1
16 15 15 15 15 14 13 13 13 13 12 12 11 11 11 10 11 10 10 9 9 8 8 8 7 5 4 3 2 2 1 1 -0 0 -1 -1 -0 -0 -1 -0 -0 -1 -1
18 18 17 14 14 14 14 13 13 13 12 11 10 10 10 10 10 10 9 9 8 8 8 6 4 3 3 2 1 0 -0 -0 -1 -1 -1 -1 -1 -1 -1 -1 -2 -2 -3
19 18 17 15 14 13 13 12 12 11 11 11 10 10 10 9 9 9 9 8 8 7 5 4 3 2 1 1 0 -0 -1 -2 -2 -2 -2 -2 -1 -2 -2 -2 -2 -4 -4
19 18 17 16 14 12 12 12 10 10 10 10 10 9 9 9 9 8 9 8 6 5 4 3 2 1 0 -0 -1 -1 -2 -2 -2 -2 -2 -2 -3 -3 -4 -4 -4 -5 -5
18 17 17 16 14 13 12 11 10 10 9 9 9 8 9 9 9 8 6 5 4 3 2 1 1 -0 -1 -1 -2 -2 -2 -2 -2 -3 -3 -3 -3 -4 -5 -5 -6 -7 -6
17 17 16 15 13 12 10 10 10 9 9 9 8 8 8 7 6 5 4 4 3 2 1 -0 -1 -1 -2 -2 -2 -2 -3 -3 -3 -3 -3 -4 -4 -4 -5 -6 -6 -7 -8
16 16 14 12 10 10 10 9 9 9 8 8 7 7 6 4 4 3 2 2 1 0 -1 -1 -2 -2 -2 -2 -3 -3 -3 -3 -3 -4 -4 -4 -5 -5 -6 -7 -7 -8 -8
14 13 12 12 10 9 9 9 8 8 7 7 6 4 3 2 2 1 -0 -1 -1 -1 -2 -3 -3 -3 -3 -3 -4 -4 -4 -5 -5 -6 -6 -6 -7 -7 -7 -8 -8 -9 -9
12 12 11 10 9 8 8 7 6 5 5 5 3 3 2 1 0 -0 -1 -1 -2 -2 -3 -3 -4 -4 -4 -4 -5 -5 -6 -6 -6 -7 -7 -8 -8 -8 -8 -9 -9 -9 -9
11 10 9 9 8 7 6 5 4 4 3 3 2 1 1 -0 -1 -1 -2 -2 -3 -4 -4 -4 -5 -5 -6 -6 -6 -7 -8 -8 -8 -8 -9 -9 -9 -9 -9 -10 -10 -9 -9
10 9 8 7 6 5 4 3 2 2 1 1 1 0 -0 -1 -2 -3 -3 -4 -4 -5 -5 -6 -7 -7 -8 -8 -8 -9 -9 -9 -9 -10 -10 -10 -10 -10 -11 -11 -11 -11 -11
8 7 6 5 4 3 3 3 1 1 0 -0 -0 -1 -2 -3 -3 -4 -5 -5 -6 -6 -7 -8 -9 -9 -9 -10 -10 -10 -10 -11 -12 -12 -11 -12 -12 -12 -12 -12 -12 -12 -12
6 5 4 3 2 2 1 1 1 -2 -2 -3 -3 -4 -4 -5 -5 -6 -7 -8 -9 -8 -8 -10 -11 -11 -11 -12 -12 -12 -13 -13 -13 -13 -13 -14 -14 -14 -13 -13 -14 -14 -13
3 3 2 1 1 -0 -1 -2 -2 -3 -3 -4 -5 -5 -6 -7 -8 -8 -9 -9 -10 -11 -11 -11 -12 -13 -13 -13 -14 -15 -15 -15 -15 -15 -15 -15 -15 -15 -15 -15 -15 -15 -14
0 -1 -2 -2 -3 -3 -4 -4 -5 -5 -6 -6 -7 -8 -8 -9 -10 -10 -11 -11 -12 -12 -13 -13 -14 -14 -15 -15 -16 -16 -16 -16 -16 -16 -17 -17 -17 -17 -17 -17 -16 -16 -16
-3 -3 -4 -4 -5 -5 -6 -6 -7 -7 -8 -9 -9 -10 -10 -11 -11 -12 -12 -13 -13 -14 -15 -15 -16 -16 -16 -17 -17 -17 -18 -18 -18 -18 -18 -18 -18 -18 -18 -18 -17 -17 -16
-5 -5 -6 -6 -6 -7 -7 -8 -8 -9 -10 -10 -11 -12 -12 -12 -13 -13 -14 -15 -15 -16 -16 -17 -17 -18 -18 -18 -19 -19 -19 -19 -19 -19 -19 -19 -19 -18 -18 -18 -18 -18 -17
-7 -7 -7 -8 -8 -9 -9 -10 -10 -11 -11 -12 -13 -13 -14 -14 -15 -15 -16 -17 -17 -17 -18 -18 -19 -19 -19 -20 -20 -20 -20 -20 -19 -19 -19 -19 -19 -19 -19 -19 -19 -18 -18
-8 -9 -9 -10 -10 -11 -11 -12 -12 -13 -13 -14 -15 -15 -16 -16 -17 -17 -18 -18 -19 -19 -19 -20 -20 -20 -21 -21 -21 -21 -21 -20 -20 -20 -20 -20 -20 -20 -20 -19 -19 -19 -18
-10 -10 -11 -11 -12 -12 -13 -14 -14 -15 -15 -16 -16 -17 -17 -18 -18 -19 -19 -20 -20 -21 -21 -21 -21 -21 -22 -22 -21 -21 -21 -21 -21 -21 -21 -21 -20 -20 -20 -20 -19 -19 -19
-12 -12 -13 -13 -14 -15 -15 -16 -16 -17 -17 -18 -18 -19 -19 -20 -20 -21 -21 -21 -22 -22 -22 -22 -22 -22 -22 -21 -21 -21 -21 -21 -21 -21 -21 -21 -20 -20 -20 -20 -20 -19 -19
-14 -14 -15 -15 -16 -16 -17 -17 -18 -18 -19 -19 -20 -20 -20 -21 -21 -21 -22 -22 -22 -22 -22 -22 -22 -22 -22 -22 -21 -21 -21 -21 -21 -21 -21 -21 -20 -20 -20 -20 -20 -19 -19

GFSGL_850_temp_063.txt.gz
Temp
14 13 12 12 11 11 11 11 10 10 10 10 11 11 11 11 11 11 11 11 11 11 10 10 10 9 10 9 9 8 7 7 6 5 4 4 4 3 3 2 2 1 1
15 15 15 14 13 12 12 13 12 12 12 12 11 11 11 11 11 11 10 10 9 10 9 10 10 9 9 8 8 7 7 6 5 4 4 3 3 2 2 2 1 1 1
15 15 15 14 14 14 14 13 12 13 13 13 13 13 12 11 11 10 10 10 10 10 9 9 10 9 8 8 8 7 6 5 4 3 3 2 1 2 1 1 1 1 1
15 15 15 15 15 15 15 14 14 13 13 13 13 12 12 12 11 10 10 10 9 10 10 9 9 8 8 8 7 6 5 4 3 2 1 1 0 0 0 0 0 0 1
16 15 16 15 15 14 14 14 14 13 13 13 12 12 12 11 11 11 10 10 10 10 9 9 8 8 8 7 6 5 4 3 2 1 -0 -0 -1 -1 -1 -0 -0 -0 1
19 19 17 15 15 15 14 14 13 13 13 12 12 12 10 10 10 10 9 9 9 9 9 9 8 8 7 5 4 2 2 1 1 -0 -1 -1 -1 -1 -1 -1 -1 -2 -3
20 20 18 17 16 15 14 13 13 13 12 12 11 11 11 10 10 9 9 9 9 8 9 8 8 7 5 4 3 2 1 0 -0 -1 -2 -1 -1 -2 -2 -2 -2 -3 -3
20 20 19 18 17 15 13 12 12 11 11 10 9 10 9 9 9 9 9 9 8 8 8 7 6 5 4 3 2 1 0 -1 -1 -2 -2 -2 -2 -2 -3 -3 -3 -4 -3
19 19 18 17 16 15 13 11 11 10 9 10 9 9 9 9 9 9 9 9 8 7 6 5 4 3 3 2 0 -0 -1 -2 -3 -2 -2 -2 -3 -3 -3 -4 -4 -4 -5
18 18 17 16 14 14 13 10 10 10 9 9 9 9 8 8 8 8 8 7 7 5 3 2 2 1 1 -0 -1 -2 -3 -3 -3 -3 -3 -4 -4 -4 -4 -4 -4 -5 -6
15 15 15 14 12 12 10 9 9 9 9 9 8 8 8 7 6 5 4 4 4 3 3 2 0 -1 -1 -2 -3 -4 -3 -3 -3 -4 -4 -5 -5 -5 -5 -5 -6 -5 -6
14 14 13 12 11 10 9 9 9 8 8 8 7 6 5 4 3 2 2 2 1 1 1 -0 -1 -2 -3 -4 -4 -4 -4 -4 -5 -5 -6 -5 -5 -6 -6 -6 -7 -7 -8
12 10 10 10 9 9 9 9 8 8 7 6 4 4 3 1 1 0 0 -1 -1 -1 -2 -2 -3 -4 -4 -4 -4 -5 -5 -6 -6 -8 -7 -7 -7 -8 -8 -8 -8 -8 -9
9 9 9 8 8 8 8 7 6 6 4 4 3 3 2 1 -0 -0 -1 -2 -2 -3 -3 -4 -6 -7 -6 -5 -6 -7 -8 -9 -9 -8 -9 -9 -9 -10 -10 -10 -10 -10 -10
9 9 8 8 7 7 6 5 3 3 3 3 2 2 1 -0 -1 -2 -2 -3 -3 -4 -5 -6 -8 -7 -7 -8 -8 -9 -10 -10 -10 -11 -11 -11 -12 -12 -11 -12 -12 -12 -12
9 7 7 6 6 5 4 3 2 1 1 0 0 -0 -1 -1 -2 -3 -4 -4 -5 -5 -7 -8 -8 -8 -9 -10 -11 -11 -11 -12 -12 -12 -13 -13 -13 -13 -13 -13 -13 -13 -14
6 6 5 4 3 2 2 1 0 -2 -2 -2 -3 -3 -3 -4 -4 -5 -6 -6 -6 -7 -8 -8 -9 -10 -11 -12 -12 -13 -13 -13 -14 -14 -14 -14 -15 -15 -14 -15 -15 -16 -16
3 2 2 1 0 -1 -2 -3 -3 -3 -4 -6 -6 -6 -6 -6 -6 -6 -7 -8 -9 -9 -10 -11 -11 -12 -13 -13 -14 -14 -15 -15 -15 -15 -16 -16 -16 -17 -17 -18 -18 -18 -18
-2 -3 -3 -3 -4 -4 -4 -5 -5 -5 -5 -6 -7 -8 -8 -9 -9 -10 -10 -10 -11 -12 -12 -13 -14 -14 -15 -15 -15 -16 -16 -16 -17 -17 -17 -18 -18 -18 -18 -19 -20 -19 -18
-4 -4 -4 -5 -5 -5 -6 -6 -6 -7 -7 -8 -9 -9 -10 -10 -11 -11 -12 -12 -13 -14 -14 -15 -15 -16 -16 -17 -17 -17 -18 -19 -19 -20 -20 -20 -19 -20 -20 -21 -21 -20 -20
-5 -6 -6 -6 -6 -7 -7 -7 -8 -8 -9 -10 -11 -11 -12 -12 -12 -13 -14 -14 -15 -16 -16 -17 -17 -17 -18 -18 -19 -19 -20 -20 -20 -20 -20 -20 -20 -21 -21 -21 -21 -21 -20
-6 -7 -7 -7 -8 -8 -8 -9 -10 -10 -11 -12 -13 -13 -14 -14 -14 -15 -16 -16 -17 -17 -18 -18 -18 -19 -19 -20 -20 -20 -21 -21 -21 -21 -21 -21 -21 -22 -22 -22 -22 -21 -21
-8 -8 -8 -9 -9 -10 -10 -11 -12 -12 -13 -14 -14 -15 -15 -16 -16 -17 -17 -18 -18 -19 -19 -19 -20 -20 -20 -21 -21 -21 -22 -22 -22 -21 -22 -23 -23 -23 -23 -22 -22 -22 -21
-10 -10 -11 -11 -12 -12 -13 -13 -14 -15 -15 -16 -16 -17 -17 -18 -18 -18 -19 -19 -20 -20 -20 -20 -21 -21 -21 -21 -21 -21 -22 -22 -22 -22 -22 -22 -22 -22 -22 -22 -22 -22 -22
-12 -12 -13 -13 -14 -14 -15 -15 -16 -16 -17 -17 -17 -18 -18 -19 -19 -19 -20 -20 -20 -20 -20 -21 -21 -21 -21 -21 -21 -21 -21 -21 -22 -22 -22 -22 -21 -21 -21 -21 -21 -21 -21
-14 -14 -15 -15 -16 -16 -17 -17 -17 -18 -18 -18 -18 -19 -19 -20 -20 -20 -20 -20 -20 -20 -21 -21 -21 -21 -21 -21 -21 -21 -21 -21 -21 -22 -22 -21 -21 -21 -21 -21 -20 -21 -21

GFSGL_850_temp_066.txt.gz
Temp
9 9 9 9 9 9 9 9 9 9 9 9 10 10 10 10 9 9 9 9 9 10 11 11 11 10 9 9 9 8 8 8 7 7 6 7 6 6 5 4 3 3 1
10 10 9 9 9 9 10 10 10 10 9 9 9 9 9 9 9 9 9 9 10 11 11 10 10 10 9 9 8 9 8 8 7 6 6 6 5 4 4 3 2 1 1
10 10 10 10 10 11 12 11 10 9 9 9 9 9 9 10 10 9 9 10 11 11 10 10 9 9 9 8 9 9 8 7 7 6 5 5 4 4 4 3 2 1 -0
11 11 10 12 13 12 11 11 11 11 11 11 10 9 9 9 9 9 10 12 12 11 10 10 9 9 9 9 9 8 8 7 6 6 5 4 3 2 2 1 -0 -1 -1
11 11 15 15 14 12 12 12 12 11 11 9 9 10 12 11 12 11 11 11 12 12 11 10 10 9 9 9 9 8 8 7 6 4 3 3 2 1 0 -1 -1 -2 -2
15 17 14 12 13 15 14 13 12 12 12 11 11 10 10 10 12 12 12 10 10 10 10 10 10 9 9 8 8 8 7 6 5 4 2 2 1 -0 -2 -2 -3 -3 -2
19 16 14 12 12 12 14 13 13 12 11 10 10 10 10 10 12 12 11 10 9 9 9 9 9 9 8 8 8 7 5 3 2 2 2 0 -1 -2 -2 -3 -3 -4 -4
19 16 15 15 14 12 11 11 10 10 10 10 8 8 8 8 10 10 9 9 9 9 8 8 9 8 8 8 6 4 2 2 1 0 -1 -1 -2 -2 -2 -2 -4 -3 -3
18 18 16 14 14 14 14 11 10 9 9 9 9 9 9 9 9 9 9 9 9 8 8 8 8 7 5 3 2 1 1 -0 -1 -1 -2 -3 -2 -2 -2 -3 -3 -6 -6
14 14 13 13 13 13 12 12 12 10 10 10 10 9 9 9 9 9 9 9 8 8 6 6 4 3 3 1 1 -0 -0 -1 -2 -3 -4 -3 -3 -2 -3 -4 -5 -6 -7
13 13 12 12 11 10 10 11 11 10 10 9 9 9 9 9 8 8 8 8 7 6 4 3 1 0 -0 -0 -1 -2 -3 -3 -4 -4 -4 -4 -4 -4 -5 -5 -6 -6 -8
13 13 13 11 11 11 10 9 10 9 9 9 9 8 8 7 6 5 4 3 3 3 2 0 -0 -1 -1 -2 -3 -3 -4 -6 -6 -5 -5 -5 -5 -6 -7 -7 -7 -8 -8
9 9 10 10 9 9 9 9 9 9 8 8 8 7 6 4 3 1 1 1 1 1 -0 -1 -2 -2 -3 -3 -5 -6 -6 -6 -6 -6 -7 -8 -9 -9 -8 -8 -9 -9 -10
9 9 9 9 9 8 8 8 8 8 7 6 5 4 3 1 1 0 0 -1 -1 -1 -2 -2 -3 -4 -5 -5 -5 -8 -7 -7 -7 -8 -10 -11 -10 -10 -11 -11 -11 -11 -11
7 8 8 8 8 7 7 6 5 4 4 4 3 2 2 0 -0 -1 -1 -1 -2 -3 -3 -4 -5 -6 -7 -8 -8 -8 -9 -9 -11 -11 -11 -12 -13 -13 -14 -14 -14 -14 -14
5 5 6 6 6 5 4 3 1 2 1 1 1 0 -1 -1 -2 -3 -3 -4 -4 -5 -6 -7 -8 -8 -9 -10 -11 -12 -13 -13 -13 -13 -14 -15 -15 -15 -15 -15 -15 -15 -14
3 2 0 1 1 1 0 1 -1 -3 -3 -3 -3 -3 -3 -4 -5 -5 -6 -6 -6 -7 -8 -8 -9 -10 -11 -11 -12 -13 -14 -15 -13 -15 -16 -16 -16 -16 -16 -16 -16 -15 -15
2 0 -0 -2 -2 -2 -3 -4 -4 -5 -5 -7 -7 -7 -7 -7 -7 -7 -7 -8 -8 -9 -10 -11 -12 -13 -13 -14 -14 -15 -15 -16 -16 -17 -17 -17 -17 -17 -17 -17 -16 -16 -16
-1 -3 -3 -3 -4 -4 -5 -5 -6 -6 -6 -8 -8 -8 -9 -9 -9 -9 -10 -10 -12 -12 -13 -13 -14 -14 -15 -15 -16 -17 -17 -17 -18 -18 -18 -18 -18 -18 -18 -18 -17 -18 -18
-4 -5 -5 -5 -5 -5 -6 -6 -7 -8 -8 -9 -10 -11 -11 -11 -11 -12 -12 -13 -14 -14 -15 -15 -16 -16 -17 -17 -18 -18 -18 -18 -18 -18 -19 -19 -19 -19 -19 -19 -18 -18 -18
-6 -6 -6 -6 -6 -7 -8 -8 -9 -9 -10 -10 -11 -12 -12 -12 -13 -14 -15 -15 -16 -16 -17 -17 -18 -18 -19 -19 -19 -19 -20 -20 -20 -20 -20 -20 -20 -20 -20 -20 -19 -19 -19
-7 -7 -8 -8 -8 -8 -9 -10 -11 -11 -12 -12 -12 -13 -13 -14 -16 -17 -17 -17 -17 -18 -18 -19 -19 -20 -20 -21 -21 -21 -21 -22 -22 -22 -22 -22 -21 -21 -21 -20 -20 -20 -19
-8 -9 -9 -10 -11 -11 -11 -12 -13 -14 -15 -16 -16 -16 -17 -17 -18 -19 -19 -18 -19 -19 -18 -19 -19 -20 -21 -21 -21 -23 -23 -23 -23 -23 -23 -23 -22 -22 -21 -21 -21 -20 -20
-10 -10 -11 -11 -13 -15 -16 -16 -15 -15 -17 -17 -18 -18 -19 -19 -20 -19 -18 -18 -18 -19 -19 -19 -19 -19 -19 -20 -20 -21 -23 -23 -22 -22 -24 -24 -23 -23 -22 -22 -21 -21 -21
-12 -13 -13 -14 -15 -17 -17 -17 -18 -18 -18 -19 -20 -20 -20 -20 -21 -21 -21 -19 -19 -19 -19 -19 -19 -20 -20 -20 -20 -20 -20 -20 -21 -21 -21 -22 -24 -24 -23 -23 -22 -22 -21
-14 -15 -16 -16 -16 -17 -18 -18 -18 -19 -19 -20 -20 -20 -20 -21 -21 -19 -19 -19 -19 -19 -19 -20 -20 -20 -20 -20 -20 -20 -21 -21 -21 -21 -21 -21 -22 -23 -23 -22 -22 -22 -21

GFSGL_850_temp_069.txt.gz
Temp
11 10 9 9 9 9 9 9 9 9 10 11 11 11 11 10 10 10 11 10 10 10 10 10 10 10 10 9 9 9 8 8 8 8 8 7 7 6 5 7 6 6 6
12 11 10 10 10 10 10 10 10 10 9 10 10 10 10 10 10 10 10 10 10 10 10 10 10 10 10 10 9 10 8 8 9 8 8 7 6 6 6 7 5 4 4
13 12 11 11 10 10 10 10 10 10 10 10 10 10 10 10 10 10 10 10 10 10 10 10 9 10 10 10 9 8 8 8 8 8 7 6 6 6 5 4 4 4 2
13 13 12 11 11 11 10 10 10 10 10 10 10 10 10 10 10 10 10 10 10 10 9 9 9 10 10 11 10 9 9 8 8 7 7 6 6 5 5 4 3 2 1
13 13 13 12 12 11 11 10 10 10 10 10 10 10 10 10 10 10 10 10 10 10 9 9 9 10 11 11 10 10 9 9 8 7 6 6 5 5 3 3 2 1 0
13 13 13 12 12 11 11 10 10 10 10 10 11 10 10 10 10 10 10 10 9 9 9 9 9 10 10 10 10 9 9 8 8 7 6 6 5 3 2 1 0 -1 -1
14 14 13 13 12 12 11 11 11 11 10 10 10 10 10 10 11 11 10 9 9 9 9 10 9 9 9 9 9 8 7 6 6 5 5 3 2 1 0 -1 -2 -2 -1
15 14 14 13 13 12 11 11 11 10 10 10 10 10 9 10 9 9 9 9 8 8 8 8 9 9 9 8 8 7 5 4 2 2 2 1 -1 -1 -2 -3 -3 -3 -3
16 15 15 14 13 13 12 12 11 10 10 10 10 9 9 9 9 9 9 8 8 8 8 8 8 8 8 8 7 6 4 1 -0 -0 1 -0 -1 -2 -4 -5 -3 -3 -3
18 17 16 15 14 13 13 12 11 11 10 10 10 9 9 9 9 9 9 9 9 9 8 8 7 7 6 5 3 3 2 1 -0 -1 -1 -2 -3 -5 -3 -4 -4 -4 -5
14 15 15 15 14 14 13 12 11 10 10 10 9 9 9 9 9 9 9 9 8 7 7 6 4 3 2 1 0 -0 -1 -1 -3 -3 -4 -7 -7 -6 -6 -4 -4 -5 -6
11 12 13 13 13 12 12 12 11 10 10 10 9 9 9 8 9 8 8 7 6 4 4 2 1 -0 -1 -1 -1 -2 -3 -3 -3 -5 -7 -7 -7 -7 -7 -8 -8 -7 -8
8 9 10 10 10 10 10 10 9 9 9 9 8 8 7 6 7 5 3 2 2 1 0 -1 -2 -2 -2 -2 -3 -3 -3 -4 -5 -6 -7 -8 -8 -9 -9 -9 -9 -9 -10
7 7 7 8 8 8 9 8 9 8 7 7 6 6 4 3 3 2 1 1 0 -0 -1 -2 -3 -3 -3 -3 -4 -5 -6 -6 -7 -8 -8 -9 -10 -10 -11 -11 -12 -12 -12
5 5 4 4 5 5 5 4 5 4 5 5 4 3 1 0 -1 -0 -1 -2 -2 -2 -3 -4 -4 -5 -5 -6 -7 -7 -8 -8 -9 -10 -10 -11 -12 -12 -12 -12 -13 -13 -13
5 5 4 1 0 0 1 1 1 1 1 0 -0 -0 -2 -4 -4 -4 -4 -4 -5 -5 -5 -6 -6 -7 -8 -9 -10 -11 -11 -12 -12 -12 -13 -13 -13 -14 -14 -14 -14 -14 -13
4 3 1 1 1 -3 -5 -5 -5 -5 -4 -4 -4 -4 -5 -6 -5 -5 -5 -6 -6 -7 -7 -9 -9 -9 -10 -11 -11 -12 -12 -13 -13 -14 -14 -15 -15 -15 -15 -15 -15 -14 -14
-1 -1 -1 -1 -3 -3 -4 -5 -6 -6 -7 -8 -8 -7 -6 -6 -6 -7 -7 -7 -8 -8 -9 -10 -11 -11 -12 -13 -13 -13 -14 -14 -15 -15 -16 -16 -16 -16 -16 -16 -15 -15 -15
-4 -4 -5 -5 -5 -5 -5 -5 -6 -7 -8 -9 -9 -9 -9 -9 -9 -9 -9 -9 -10 -11 -12 -12 -13 -13 -14 -14 -15 -15 -16 -16 -17 -17 -17 -17 -17 -17 -17 -17 -17 -17 -17
-6 -7 -7 -7 -7 -8 -8 -9 -9 -9 -10 -10 -11 -11 -11 -11 -10 -11 -11 -12 -12 -13 -14 -15 -15 -16 -16 -16 -16 -17 -17 -17 -17 -18 -18 -18 -18 -18 -18 -18 -18 -18 -18
-7 -7 -7 -7 -8 -9 -9 -10 -10 -10 -11 -11 -12 -12 -12 -12 -14 -14 -14 -14 -15 -16 -16 -16 -17 -17 -17 -18 -18 -18 -19 -19 -19 -19 -19 -19 -20 -20 -19 -19 -19 -19 -18
-8 -8 -8 -9 -9 -10 -11 -11 -11 -12 -13 -13 -14 -14 -14 -15 -16 -16 -17 -17 -18 -18 -18 -19 -18 -19 -19 -20 -20 -20 -20 -20 -20 -21 -21 -21 -21 -21 -20 -20 -20 -20 -19
-11 -11 -12 -12 -12 -12 -12 -14 -14 -14 -15 -15 -16 -16 -17 -17 -17 -18 -19 -19 -19 -20 -18 -19 -20 -19 -21 -19 -19 -21 -22 -22 -22 -22 -22 -22 -22 -21 -21 -21 -21 -20 -20
-14 -14 -14 -15 -15 -15 -15 -15 -16 -16 -16 -17 -17 -17 -18 -18 -19 -19 -20 -19 -19 -20 -20 -18 -19 -20 -18 -19 -20 -20 -22 -22 -20 -20 -21 -23 -23 -22 -22 -22 -21 -21 -20
-16 -16 -16 -16 -16 -16 -17 -17 -17 -17 -18 -18 -18 -19 -19 -19 -19 -20 -20 -20 -18 -18 -19 -20 -20 -20 -20 -19 -19 -19 -19 -19 -20 -20 -20 -21 -23 -24 -23 -22 -22 -21 -21
-17 -17 -18 -18 -18 -18 -18 -18 -18 -19 -19 -19 -20 -20 -20 -20 -21 -21 -22 -22 -19 -19 -21 -21 -20 -20 -19 -19 -20 -19 -20 -20 -20 -20 -20 -21 -21 -23 -23 -22 -22 -22 -21

GFSGL_850_temp_072.txt.gz
Temp
11 10 9 9 10 9 10 10 9 9 9 9 10 11 11 11 11 11 11 11 10 10 10 10 10 11 11 10 10 10 10 10 9 9 9 9 8 8 10 9 9 8 8
12 12 10 10 10 9 9 10 10 10 10 10 10 11 11 11 11 11 11 11 11 11 10 10 10 10 10 10 10 10 10 10 10 9 9 9 8 7 7 7 7 7 7
13 12 11 11 11 10 10 10 10 10 10 10 10 10 11 11 11 11 11 11 11 10 10 10 10 10 10 9 9 10 10 10 9 9 9 8 8 8 7 7 7 7 5
13 13 12 12 13 12 11 10 10 10 9 10 10 10 10 11 11 11 11 11 10 10 10 10 10 10 10 10 10 10 10 9 9 8 8 8 7 8 7 7 6 5 4
13 13 13 12 12 11 11 11 10 10 10 10 10 10 10 10 10 10 10 10 10 10 10 10 10 10 10 10 9 9 9 8 8 7 7 7 7 7 7 7 5 4 3
15 14 13 13 12 12 11 11 11 10 10 10 10 10 10 10 10 10 10 10 10 10 10 10 10 10 10 9 10 9 8 8 7 7 7 6 6 6 6 5 3 1 1
16 15 14 13 13 12 12 11 11 11 11 11 11 10 10 10 10 10 10 10 10 10 10 10 10 9 9 9 9 9 8 8 7 7 7 6 5 4 2 1 0 1 0
17 16 14 14 13 13 12 12 11 11 11 10 10 10 10 10 10 10 10 10 10 10 9 9 9 9 9 9 9 8 8 7 6 6 5 4 3 2 1 0 -0 -0 -2
17 17 16 15 14 13 13 13 12 11 11 10 10 10 10 10 9 10 10 9 9 9 9 9 8 8 8 8 8 8 6 5 4 2 2 1 -0 -0 -1 -1 -3 -4 -5
15 16 15 16 15 15 14 13 13 12 11 11 10 10 10 9 9 9 9 9 9 9 9 9 8 8 8 8 7 5 3 2 -0 -1 -1 -2 -2 -3 -3 -3 -5 -6 -6
11 13 14 14 14 14 14 14 13 13 12 11 11 10 10 10 9 9 9 9 9 9 9 8 8 7 6 5 3 2 0 -1 -2 -2 -3 -3 -3 -4 -5 -5 -6 -6 -7
8 9 11 11 13 13 13 13 13 13 13 11 11 10 10 10 9 9 9 9 9 8 7 6 4 2 1 -0 -1 -2 -2 -3 -3 -3 -3 -4 -5 -6 -7 -7 -7 -7 -7
7 7 8 8 8 9 9 10 10 11 10 11 10 9 9 8 7 7 7 5 6 4 2 1 1 -1 -2 -3 -3 -3 -3 -4 -4 -4 -6 -7 -8 -8 -8 -8 -8 -8 -8
6 6 6 5 6 6 7 6 6 8 8 7 6 6 6 4 2 -2 -2 0 -0 -0 -2 -3 -4 -4 -4 -4 -5 -5 -5 -6 -6 -7 -8 -8 -9 -9 -9 -10 -10 -11 -11
4 5 6 5 5 3 2 1 -1 -1 2 3 1 -0 -2 -2 -4 -2 -1 -2 -3 -5 -5 -5 -5 -6 -5 -6 -6 -6 -7 -7 -8 -9 -9 -10 -10 -11 -11 -12 -12 -12 -13
1 2 2 2 3 2 2 1 -1 -6 -5 -3 -2 -2 -4 -6 -5 -6 -5 -5 -5 -5 -5 -6 -7 -7 -8 -8 -9 -9 -10 -10 -11 -11 -11 -12 -12 -13 -13 -13 -14 -14 -14
-1 -1 -1 -1 -2 -3 -3 -2 -4 -6 -6 -7 -7 -6 -6 -6 -6 -6 -6 -6 -7 -6 -6 -8 -9 -9 -9 -10 -10 -11 -11 -12 -12 -12 -13 -13 -14 -14 -15 -15 -15 -15 -15
-4 -3 -3 -4 -5 -5 -6 -7 -7 -7 -7 -8 -8 -8 -7 -6 -7 -7 -7 -7 -7 -8 -9 -9 -10 -11 -11 -11 -12 -12 -13 -14 -14 -14 -15 -16 -16 -16 -16 -16 -16 -16 -16
-6 -6 -6 -6 -6 -7 -7 -7 -8 -9 -9 -10 -9 -9 -9 -8 -9 -9 -9 -8 -10 -10 -11 -11 -12 -12 -13 -13 -14 -15 -15 -16 -16 -16 -17 -17 -17 -18 -18 -18 -18 -18 -18
-7 -8 -8 -8 -8 -8 -8 -8 -9 -9 -9 -10 -11 -11 -10 -10 -9 -10 -11 -11 -12 -13 -14 -14 -14 -14 -15 -15 -16 -16 -17 -17 -17 -18 -18 -18 -19 -19 -19 -19 -19 -19 -19
-9 -8 -9 -9 -9 -9 -10 -10 -10 -11 -11 -12 -13 -13 -13 -12 -13 -13 -13 -14 -14 -14 -15 -16 -16 -17 -17 -17 -17 -17 -18 -19 -19 -19 -20 -20 -20 -20 -20 -20 -19 -19 -19
-10 -10 -10 -11 -11 -11 -12 -12 -13 -13 -13 -13 -14 -14 -15 -14 -15 -15 -16 -16 -16 -16 -16 -17 -17 -18 -17 -17 -18 -18 -20 -20 -20 -20 -20 -20 -21 -21 -21 -20 -20 -20 -20
-11 -12 -12 -13 -13 -13 -13 -14 -14 -15 -15 -15 -16 -16 -16 -17 -17 -17 -18 -18 -18 -18 -17 -17 -18 -18 -18 -18 -18 -19 -20 -20 -19 -19 -19 -19 -20 -22 -22 -21 -21 -21 -21
-13 -14 -14 -14 -15 -15 -15 -15 -16 -16 -16 -17 -17 -18 -18 -18 -19 -19 -18 -18 -18 -19 -19 -19 -19 -18 -18 -18 -19 -19 -19 -19 -19 -19 -19 -20 -20 -21 -22 -22 -22 -21 -21
-15 -15 -16 -16 -16 -16 -17 -17 -17 -17 -18 -18 -18 -18 -19 -19 -19 -20 -20 -19 -18 -18 -19 -19 -19 -19 -19 -19 -19 -18 -19 -20 -19 -19 -19 -20 -20 -20 -21 -22 -22 -22 -21
-17 -17 -17 -17 -17 -18 -18 -18 -19 -19 -19 -19 -19 -20 -20 -20 -20 -21 -20 -18 -19 -19 -20 -20 -20 -20 -20 -20 -19 -19 -20 -19 -19 -19 -19 -20 -20 -20 -21 -22 -22 -22 -22

GFSGL_850_temp_075.txt.gz
Temp
10 9 9 9 9 9 9 10 10 10 10 11 11 10 10 10 11 11 10 11 11 11 11 11 12 11 11 11 10 10 10 10 10 10 10 11 10 11 10 10 10 9 9
12 11 10 9 9 9 9 9 9 10 10 10 10 11 11 11 11 11 11 11 11 11 11 11 12 11 11 11 10 10 10 10 10 10 10 10 10 10 9 9 9 8 8
12 12 11 11 10 9 9 9 9 9 9 10 10 10 11 11 11 11 11 11 11 11 11 11 11 11 11 10 10 10 10 10 10 9 8 8 8 8 8 8 7 8 8
13 12 12 12 12 11 9 10 9 9 9 9 10 10 10 11 10 11 11 11 11 11 11 11 11 10 10 10 10 10 10 10 10 9 8 8 8 8 7 7 7 7 7
15 14 13 13 12 12 12 10 10 9 9 10 10 10 10 10 10 11 11 11 11 11 11 11 11 11 11 11 10 10 10 10 9 9 8 8 8 8 8 7 7 7 7
16 15 15 14 13 12 12 12 11 11 10 9 9 9 9 10 10 10 10 10 10 10 11 11 11 11 10 10 10 10 10 10 9 9 8 8 8 7 7 7 6 5 3
15 16 15 15 14 13 13 12 12 11 11 11 10 9 9 9 10 10 10 9 9 10 10 10 10 10 10 10 10 10 9 9 9 9 9 8 8 7 6 6 5 3 2
13 12 12 13 14 14 13 13 12 12 12 11 11 10 10 10 10 10 9 9 10 10 10 10 10 10 10 10 10 9 9 9 9 9 8 8 7 5 4 3 3 2 0
12 11 11 12 12 13 13 13 14 12 12 12 11 11 10 11 10 10 10 9 10 10 10 10 10 10 10 9 9 9 9 9 8 8 7 6 4 2 1 1 -0 -1 -1
12 12 11 11 11 11 12 12 12 12 12 12 11 11 10 10 10 10 10 10 10 10 9 9 9 9 9 9 9 8 8 7 4 3 2 0 0 -1 -1 -2 -2 -2 -3
7 7 8 10 10 10 10 12 12 11 11 12 11 10 10 10 10 10 10 10 10 9 9 9 9 9 8 8 8 6 4 1 -1 -2 -2 -3 -3 -3 -2 -2 -3 -3 -5
7 7 7 8 8 8 9 10 11 10 10 10 10 10 10 9 9 9 9 9 9 9 8 6 4 5 2 1 0 -0 -2 -2 -3 -3 -4 -4 -4 -4 -5 -5 -5 -6 -6
5 6 6 6 7 8 7 7 9 9 8 7 6 5 4 5 6 5 6 6 8 6 1 -1 -1 -2 -3 -2 -3 -4 -4 -4 -4 -4 -5 -5 -6 -7 -8 -8 -8 -9 -9
4 4 5 5 5 6 7 7 6 6 5 4 2 1 -1 -2 -3 -2 -2 -1 -1 -1 -2 -4 -4 -5 -5 -5 -5 -5 -5 -5 -5 -6 -7 -8 -8 -9 -9 -9 -9 -10 -10
1 1 1 1 1 2 2 1 1 1 0 2 1 -1 -3 -4 -5 -5 -4 -4 -4 -5 -5 -5 -5 -5 -6 -6 -6 -7 -7 -7 -7 -8 -9 -9 -9 -9 -10 -11 -11 -12 -12
-0 -0 -1 -1 -2 -2 -2 -3 -4 -5 -5 -4 -3 -2 -4 -5 -4 -5 -6 -6 -5 -5 -5 -6 -7 -8 -8 -8 -8 -9 -9 -9 -9 -10 -10 -11 -11 -12 -13 -13 -14 -14 -14
-3 -4 -4 -4 -4 -5 -5 -5 -6 -7 -6 -7 -8 -7 -6 -6 -6 -6 -7 -7 -6 -5 -6 -8 -8 -9 -9 -10 -10 -11 -11 -12 -12 -12 -13 -13 -14 -14 -15 -15 -15 -15 -15
-5 -5 -6 -6 -6 -6 -7 -7 -7 -7 -7 -8 -8 -8 -8 -8 -8 -8 -7 -6 -7 -7 -8 -9 -10 -11 -11 -12 -12 -13 -13 -13 -13 -14 -14 -14 -15 -15 -15 -15 -16 -17 -17
-6 -7 -7 -7 -8 -8 -8 -8 -8 -9 -9 -9 -9 -9 -9 -8 -8 -8 -8 -8 -10 -11 -11 -12 -12 -12 -13 -13 -14 -14 -14 -14 -14 -15 -15 -15 -16 -16 -17 -17 -18 -18 -18
-8 -8 -7 -8 -8 -9 -9 -9 -10 -10 -11 -11 -11 -11 -11 -10 -10 -10 -11 -11 -12 -13 -13 -13 -13 -14 -14 -14 -15 -15 -15 -16 -16 -16 -16 -16 -17 -17 -18 -19 -19 -19 -19
-8 -8 -8 -9 -9 -10 -10 -11 -11 -11 -12 -12 -13 -13 -12 -11 -12 -12 -13 -13 -14 -14 -14 -15 -15 -15 -15 -16 -16 -15 -15 -15 -16 -16 -17 -17 -18 -19 -20 -20 -20 -20 -20
-9 -10 -10 -10 -11 -11 -11 -12 -12 -12 -13 -14 -15 -15 -15 -14 -14 -14 -15 -15 -16 -16 -16 -15 -16 -16 -16 -16 -16 -16 -16 -16 -17 -18 -18 -18 -19 -19 -20 -20 -21 -21 -21
-12 -12 -12 -12 -13 -13 -13 -14 -14 -15 -15 -16 -16 -16 -16 -16 -16 -16 -16 -16 -16 -16 -16 -16 -16 -16 -17 -17 -17 -17 -17 -18 -18 -18 -19 -19 -19 -19 -19 -20 -20 -21 -21
-13 -13 -14 -14 -15 -15 -15 -16 -16 -16 -17 -17 -18 -18 -18 -18 -17 -17 -18 -18 -18 -18 -18 -17 -17 -17 -18 -17 -18 -18 -19 -19 -19 -19 -19 -19 -19 -19 -19 -20 -21 -21 -21
-14 -15 -15 -16 -16 -16 -17 -17 -17 -18 -18 -18 -19 -19 -19 -19 -19 -18 -18 -18 -19 -19 -18 -18 -18 -19 -19 -19 -19 -19 -19 -19 -18 -19 -18 -19 -19 -19 -19 -20 -21 -20 -21
-16 -16 -16 -17 -17 -17 -18 -18 -18 -18 -19 -19 -19 -19 -19 -20 -19 -18 -18 -18 -19 -19 -19 -19 -19 -19 -19 -19 -18 -18 -18 -19 -19 -19 -19 -19 -19 -20 -20 -20 -20 -20 -21

GFSGL_850_temp_078.txt.gz
Temp
9 9 9 9 9 10 10 10 10 10 10 10 10 11 10 10 10 11 11 12 11 11 10 11 11 11 11 11 11 10 11 10 10 11 11 11 11 10 10 10 10 10 10
12 10 9 9 9 9 10 10 10 10 10 10 10 10 10 10 10 11 11 10 10 10 11 11 11 11 11 11 11 10 11 11 11 11 11 10 10 11 10 9 10 9 10
14 12 11 10 9 9 9 9 9 9 10 10 10 10 10 10 10 10 11 11 10 10 10 11 11 11 11 11 11 11 10 11 11 10 10 10 10 10 9 9 9 10 9
14 13 13 12 11 10 9 9 9 9 9 9 9 9 10 10 10 10 10 10 11 10 10 11 11 10 11 11 11 11 11 11 11 10 8 8 8 8 8 8 8 9 9
13 13 14 14 13 12 11 10 9 9 9 9 9 9 9 9 9 9 10 10 10 10 10 10 10 10 11 11 11 11 11 11 10 9 8 8 8 8 8 8 8 8 8
13 13 12 12 12 12 12 12 12 11 10 9 9 9 9 9 9 9 9 9 9 9 9 9 10 10 11 11 10 10 10 10 9 8 8 8 8 8 8 9 9 8 7
11 11 10 10 11 12 12 12 12 11 11 11 11 10 10 10 10 9 9 9 9 10 10 10 10 10 10 10 10 10 10 9 9 9 8 8 8 8 8 8 8 8 7
10 10 11 11 10 10 10 10 11 11 12 12 11 11 11 11 11 10 10 9 9 9 9 10 10 10 10 10 10 10 10 10 9 9 8 8 8 8 8 7 6 5 4
9 10 10 10 10 11 11 10 10 10 10 11 11 11 11 11 10 9 10 9 9 9 10 10 9 9 10 9 9 9 9 9 9 9 9 9 8 8 6 4 3 2 1
8 6 8 9 9 10 10 10 10 10 10 10 10 10 10 10 10 10 10 10 10 10 10 9 9 9 9 9 8 8 8 8 8 7 5 6 4 1 1 0 -0 -1 -1
5 6 8 8 8 8 7 8 9 9 10 9 10 10 10 10 10 10 10 10 10 9 10 10 9 9 9 9 9 8 7 6 1 -1 -1 -1 -2 -2 -2 -3 -3 -3 -3
4 6 6 7 7 8 7 7 7 7 8 8 8 8 8 7 9 8 9 9 8 7 6 3 1 1 2 3 3 3 0 -2 -3 -3 -3 -4 -3 -4 -4 -4 -4 -4 -5
3 4 5 5 5 6 6 6 6 6 6 6 6 4 4 3 3 3 1 4 4 3 0 -1 -1 -0 -0 -1 -3 -4 -4 -3 -3 -4 -5 -5 -5 -5 -5 -6 -6 -6 -7
1 1 2 2 3 3 3 3 3 2 1 1 0 0 0 -0 -0 -0 0 -1 1 -0 -2 -3 -4 -4 -4 -5 -5 -4 -4 -4 -5 -5 -7 -7 -8 -7 -7 -8 -8 -9 -9
1 1 0 -0 -1 -1 -1 -1 -2 -3 -2 -2 -3 -3 -3 -4 -5 -5 -4 -4 -4 -4 -4 -4 -4 -4 -4 -5 -6 -7 -6 -6 -6 -7 -8 -8 -9 -9 -10 -10 -11 -11 -11
-1 -2 -2 -2 -2 -3 -4 -5 -6 -6 -5 -5 -6 -5 -6 -6 -6 -5 -5 -5 -5 -5 -5 -5 -6 -7 -7 -7 -8 -8 -9 -9 -10 -10 -10 -10 -11 -11 -11 -12 -12 -12 -13
-3 -4 -4 -4 -4 -4 -5 -6 -7 -8 -7 -7 -8 -8 -7 -7 -7 -6 -6 -6 -6 -6 -6 -7 -8 -8 -9 -10 -10 -10 -10 -11 -11 -11 -11 -12 -13 -13 -13 -14 -14 -15 -15
-6 -6 -5 -5 -6 -6 -6 -7 -7 -7 -8 -8 -8 -8 -8 -7 -7 -7 -7 -7 -7 -8 -8 -9 -10 -10 -11 -11 -12 -12 -13 -13 -13 -14 -14 -15 -15 -15 -15 -15 -16 -16 -17
-6 -7 -7 -7 -7 -7 -7 -7 -8 -8 -8 -9 -9 -9 -9 -9 -8 -8 -8 -8 -9 -10 -11 -11 -12 -12 -13 -13 -14 -14 -14 -15 -15 -16 -16 -16 -16 -15 -16 -16 -17 -17 -18
-7 -8 -8 -8 -8 -8 -8 -8 -8 -9 -9 -9 -9 -10 -10 -10 -9 -9 -10 -11 -11 -12 -13 -13 -13 -14 -14 -14 -15 -15 -15 -15 -15 -15 -16 -16 -16 -17 -17 -18 -17 -17 -17
-9 -9 -9 -9 -9 -10 -10 -10 -10 -11 -11 -11 -11 -12 -12 -11 -12 -12 -13 -13 -13 -14 -14 -15 -15 -15 -15 -15 -15 -16 -16 -16 -17 -17 -17 -17 -17 -17 -17 -17 -18 -18 -19
-10 -10 -10 -10 -11 -11 -11 -12 -12 -13 -13 -13 -14 -14 -14 -14 -14 -14 -15 -15 -15 -16 -16 -16 -16 -16 -16 -16 -16 -16 -17 -17 -17 -17 -17 -17 -17 -17 -18 -18 -19 -19 -20
-11 -12 -12 -12 -13 -13 -13 -14 -14 -14 -15 -15 -16 -16 -16 -16 -16 -16 -17 -17 -17 -17 -17 -17 -17 -17 -17 -17 -17 -17 -17 -17 -17 -17 -17 -18 -18 -18 -18 -19 -20 -20 -21
-13 -13 -13 -14 -14 -14 -15 -15 -16 -16 -16 -16 -16 -17 -17 -17 -17 -18 -18 -18 -17 -17 -17 -17 -17 -17 -17 -17 -17 -17 -17 -18 -18 -18 -18 -18 -19 -19 -19 -19 -20 -21 -21
-15 -15 -15 -15 -16 -16 -16 -16 -17 -17 -17 -18 -18 -18 -17 -18 -18 -18 -18 -18 -18 -18 -18 -17 -17 -17 -18 -18 -18 -18 -19 -19 -19 -19 -19 -19 -19 -19 -19 -20 -20 -21 -21
-15 -15 -16 -16 -17 -17 -17 -17 -18 -18 -18 -18 -19 -19 -19 -19 -19 -19 -19 -19 -19 -19 -19 -19 -19 -19 -19 -19 -19 -19 -19 -19 -19 -19 -19 -20 -20 -20 -19 -20 -20 -20 -20

GFSGL_850_temp_081.txt.gz
Temp
9 9 9 10 10 10 10 10 10 10 9 9 10 9 9 9 9 9 10 10 10 10 10 10 11 11 11 11 10 10 11 10 9 10 11 11 11 11 11 11 11 11 11
11 9 9 9 10 10 10 10 10 10 10 10 10 10 10 10 10 10 10 10 10 10 10 11 11 11 11 11 11 11 10 11 10 10 11 10 11 11 11 10 11 11 10
10 10 9 9 9 9 10 10 10 10 10 10 10 10 10 10 10 10 10 10 10 11 11 11 11 11 10 10 11 10 11 10 10 10 10 10 10 10 10 10 10 9 9
11 11 10 9 9 9 9 9 9 9 10 10 10 10 10 10 10 9 9 9 9 10 10 11 11 11 11 10 10 10 10 10 10 9 9 10 10 10 9 9 9 9 8
12 11 11 11 10 10 9 9 9 9 9 9 9 9 9 9 9 9 9 9 9 9 10 10 10 10 10 10 10 10 10 9 9 9 7 7 7 7 7 8 8 10 10
11 11 11 11 11 11 10 10 10 9 9 9 9 9 9 8 8 8 9 9 9 9 9 10 9 9 10 9 9 9 9 7 8 8 7 7 7 7 7 7 9 9 7
9 9 9 9 9 10 10 10 10 9 10 10 10 9 9 9 8 8 9 9 9 9 9 9 9 9 9 9 9 9 8 8 8 8 7 7 7 7 7 8 8 8 8
9 9 9 9 9 9 9 9 10 10 10 10 9 9 9 10 9 9 9 9 9 9 9 9 9 9 9 9 9 9 10 10 9 9 8 8 8 8 8 8 8 8 7
8 8 9 9 9 9 9 9 9 9 9 9 9 9 9 9 9 9 9 9 9 9 9 9 8 8 8 8 9 9 9 8 8 8 9 8 8 8 8 8 6 5 4
7 8 8 8 8 8 8 8 9 9 9 9 9 9 9 9 9 10 9 9 9 9 9 8 9 9 9 9 8 8 7 7 7 6 5 6 5 3 1 1 1 0 0
5 6 7 7 7 7 6 6 7 7 8 8 8 8 8 7 7 8 8 8 8 8 7 7 7 7 8 8 8 7 5 4 3 -2 -3 -4 -4 -3 -2 -2 -2 -2 -2
4 5 5 6 6 6 6 5 5 5 6 6 5 5 4 4 5 5 5 5 5 5 5 4 3 4 2 3 4 4 1 -0 -1 -2 -3 -3 -3 -4 -5 -5 -5 -4 -4
1 2 2 3 3 4 4 5 5 3 3 3 2 2 1 0 0 1 1 1 2 1 -0 -1 -2 -1 -1 -1 -3 -4 -3 -3 -3 -3 -4 -5 -5 -6 -6 -6 -6 -6 -7
1 1 0 1 1 1 2 3 2 2 1 -1 -1 -1 -2 -2 -2 -2 -2 -3 -2 -3 -4 -4 -3 -4 -4 -5 -4 -4 -4 -5 -5 -5 -6 -7 -7 -7 -7 -7 -8 -8 -8
-2 -2 -1 -1 -0 0 0 -0 -1 -3 -2 -2 -3 -3 -4 -5 -5 -4 -4 -4 -4 -4 -4 -5 -5 -5 -6 -6 -6 -7 -7 -7 -7 -8 -8 -8 -8 -8 -8 -9 -9 -9 -10
-3 -3 -3 -4 -4 -4 -5 -5 -6 -5 -5 -5 -5 -5 -6 -7 -6 -5 -5 -5 -5 -6 -5 -5 -6 -6 -6 -7 -7 -8 -8 -8 -9 -9 -9 -9 -9 -9 -10 -11 -11 -11 -12
-4 -4 -5 -5 -5 -5 -6 -6 -6 -7 -7 -7 -7 -7 -7 -7 -7 -7 -7 -6 -6 -7 -6 -7 -8 -8 -9 -9 -9 -9 -9 -10 -10 -10 -10 -11 -11 -12 -12 -12 -12 -13 -13
-6 -6 -6 -6 -6 -6 -6 -7 -7 -7 -7 -7 -8 -8 -8 -7 -7 -7 -7 -8 -7 -8 -8 -9 -10 -10 -10 -11 -11 -11 -11 -12 -12 -12 -12 -12 -12 -13 -13 -13 -14 -14 -15
-7 -7 -7 -7 -7 -7 -8 -8 -8 -8 -8 -8 -9 -8 -8 -8 -8 -8 -9 -8 -8 -9 -10 -10 -11 -12 -12 -12 -13 -13 -13 -13 -14 -14 -14 -14 -15 -15 -15 -15 -16 -16 -16
-8 -8 -8 -8 -9 -9 -9 -9 -9 -9 -9 -9 -9 -10 -10 -11 -10 -10 -10 -11 -11 -12 -13 -13 -13 -13 -14 -14 -14 -15 -15 -15 -15 -15 -16 -16 -16 -16 -16 -17 -17 -17 -17
-9 -9 -9 -9 -9 -9 -10 -10 -10 -10 -10 -11 -11 -11 -12 -12 -11 -12 -12 -13 -14 -14 -15 -15 -15 -15 -15 -15 -16 -16 -16 -16 -16 -16 -16 -16 -17 -17 -17 -17 -18 -18 -18
-10 -10 -11 -11 -11 -11 -11 -12 -12 -12 -12 -12 -13 -13 -14 -14 -14 -14 -14 -15 -15 -15 -15 -16 -16 -16 -16 -16 -17 -17 -17 -17 -17 -17 -17 -17 -17 -18 -18 -18 -18 -18 -18
-12 -12 -12 -12 -12 -13 -13 -13 -14 -14 -14 -15 -15 -15 -15 -15 -15 -15 -15 -16 -16 -16 -16 -16 -16 -17 -17 -17 -17 -17 -17 -18 -18 -18 -18 -18 -18 -18 -18 -18 -18 -18 -18
-13 -13 -13 -14 -14 -14 -15 -15 -15 -15 -16 -16 -16 -17 -17 -17 -17 -17 -17 -17 -17 -17 -17 -17 -18 -18 -18 -18 -18 -18 -18 -18 -18 -18 -18 -18 -18 -18 -18 -18 -18 -19 -20
-14 -14 -14 -14 -15 -15 -16 -16 -17 -17 -17 -17 -18 -18 -18 -18 -18 -18 -18 -18 -18 -18 -18 -18 -18 -18 -18 -18 -19 -19 -19 -19 -19 -19 -19 -19 -19 -19 -19 -19 -19 -20 -21
-15 -15 -15 -16 -16 -17 -17 -17 -18 -18 -18 -18 -19 -19 -19 -19 -19 -19 -19 -19 -19 -19 -19 -19 -19 -19 -19 -19 -19 -19 -19 -19 -19 -19 -19 -19 -19 -19 -20 -20 -20 -20 -21

GFSGL_850_temp_084.txt.gz
Temp
10 9 9 9 9 9 10 9 9 9 9 9 9 9 9 9 9 9 9 10 10 10 9 9 9 9 9 9 9 9 10 9 8 10 10 10 10 10 11 11 11 11 10
10 9 8 9 9 9 9 9 9 9 9 9 9 9 9 9 9 9 10 10 10 10 10 10 10 10 10 10 10 10 10 10 10 10 11 10 10 11 11 11 11 11 10
10 9 9 8 9 9 9 9 9 9 9 9 9 9 9 9 9 9 10 10 10 10 9 10 10 10 10 10 11 11 11 11 11 10 10 10 10 10 10 10 10 10 10
11 10 10 9 9 8 8 9 9 10 10 9 9 9 9 9 9 9 9 9 9 9 9 9 9 10 10 10 10 10 10 10 10 9 9 9 10 10 8 8 9 10 10
11 11 11 10 10 10 9 9 9 9 9 9 9 9 9 9 9 9 9 9 9 9 9 9 9 9 10 10 9 10 10 9 9 9 7 7 8 8 8 8 7 8 8
10 10 10 10 10 10 9 9 9 9 9 9 9 9 9 9 9 9 9 8 9 9 9 9 9 9 9 9 10 10 9 8 8 8 7 7 7 7 7 7 7 7 7
9 9 9 9 9 9 9 9 9 9 10 9 9 9 9 9 9 9 8 8 8 8 8 8 8 8 9 9 9 9 9 9 9 8 8 7 7 7 7 7 7 7 7
9 8 9 9 9 9 9 9 9 9 9 9 9 9 9 9 9 9 9 9 9 9 9 9 9 9 9 8 9 9 9 9 8 8 8 7 7 7 7 7 7 6 6
8 7 8 8 8 8 9 9 9 9 9 9 9 8 9 8 9 9 9 9 9 9 8 8 8 8 8 8 8 8 7 7 7 7 8 7 7 6 6 6 5 5 3
6 6 6 7 7 7 8 7 8 8 8 8 8 8 8 8 8 9 9 8 8 8 8 8 8 7 7 7 7 7 6 5 5 4 2 1 1 2 2 2 3 2 0
5 5 6 6 6 6 5 6 6 6 7 7 6 6 6 6 6 6 6 6 7 7 6 6 5 5 5 6 5 5 4 3 4 3 0 0 -0 -1 -1 -2 -2 -2 -2
2 4 4 4 5 5 5 4 4 5 5 5 5 4 4 4 3 3 3 4 4 4 3 2 1 1 1 1 2 2 2 -2 -2 -2 -3 -4 -4 -4 -5 -5 -4 -4 -5
0 0 1 2 2 3 3 3 3 2 2 2 2 1 1 0 1 1 1 1 0 1 -1 -2 -2 -3 -3 -2 -3 -4 -3 -4 -3 -3 -5 -6 -6 -7 -7 -6 -6 -6 -6
-0 -0 0 1 1 1 1 1 1 -0 -1 -2 -2 -2 -2 -3 -3 -3 -2 -2 -3 -3 -4 -4 -4 -4 -4 -5 -5 -5 -5 -5 -5 -6 -6 -7 -7 -7 -7 -7 -7 -7 -7
-2 -2 -2 -2 -2 -2 -2 -3 -4 -5 -4 -4 -5 -5 -5 -4 -5 -5 -4 -4 -4 -5 -5 -5 -5 -5 -6 -6 -6 -7 -7 -7 -7 -8 -8 -8 -8 -8 -9 -9 -9 -8 -9
-3 -3 -3 -4 -4 -4 -4 -5 -6 -6 -5 -6 -7 -6 -6 -6 -6 -6 -6 -6 -6 -6 -5 -5 -5 -6 -6 -7 -7 -7 -8 -8 -8 -9 -9 -9 -9 -9 -9 -10 -10 -11 -11
-4 -5 -5 -5 -5 -5 -5 -6 -6 -7 -7 -7 -7 -7 -7 -7 -7 -6 -7 -6 -6 -7 -5 -6 -7 -7 -8 -8 -9 -9 -9 -9 -10 -10 -10 -11 -11 -11 -12 -12 -12 -13 -13
-5 -6 -6 -6 -6 -7 -7 -7 -7 -7 -7 -7 -7 -7 -7 -8 -7 -8 -8 -8 -7 -7 -8 -9 -9 -10 -10 -11 -11 -11 -12 -12 -12 -13 -13 -13 -13 -13 -13 -13 -14 -14 -15
-7 -7 -7 -7 -7 -8 -8 -8 -8 -8 -7 -8 -9 -9 -8 -9 -9 -9 -9 -9 -9 -9 -10 -10 -11 -11 -12 -12 -12 -13 -13 -13 -13 -14 -14 -14 -14 -14 -15 -15 -15 -15 -16
-8 -9 -9 -9 -9 -9 -9 -9 -9 -9 -9 -9 -9 -10 -10 -11 -10 -10 -10 -10 -11 -11 -12 -13 -13 -13 -13 -14 -14 -14 -14 -14 -14 -15 -15 -15 -15 -16 -16 -16 -16 -17 -17
-10 -10 -10 -10 -10 -10 -10 -10 -10 -11 -11 -11 -11 -12 -12 -12 -12 -12 -13 -13 -13 -14 -14 -14 -15 -15 -15 -15 -15 -15 -15 -16 -16 -16 -16 -16 -17 -17 -17 -17 -17 -17 -17
-11 -11 -11 -11 -11 -12 -12 -12 -12 -12 -13 -13 -13 -13 -14 -14 -14 -14 -14 -15 -15 -15 -15 -16 -16 -16 -16 -16 -16 -16 -16 -17 -17 -17 -17 -17 -17 -17 -17 -17 -18 -18 -18
-12 -12 -12 -12 -13 -13 -13 -13 -14 -14 -14 -15 -15 -15 -15 -15 -16 -16 -16 -16 -16 -17 -17 -17 -17 -17 -17 -17 -17 -17 -17 -17 -17 -18 -18 -18 -18 -18 -18 -18 -18 -18 -19
-13 -13 -13 -14 -14 -14 -15 -15 -15 -15 -16 -16 -17 -17 -17 -17 -17 -17 -17 -17 -17 -17 -18 -18 -18 -18 -18 -18 -18 -18 -18 -18 -18 -18 -18 -18 -18 -18 -18 -19 -19 -19 -19
-14 -14 -14 -15 -15 -16 -16 -17 -17 -17 -18 -18 -18 -18 -18 -18 -18 -18 -18 -18 -18 -18 -18 -18 -18 -18 -18 -19 -19 -19 -19 -18 -18 -19 -19 -19 -19 -19 -19 -19 -19 -20 -20
-16 -16 -16 -16 -17 -17 -17 -18 -18 -18 -18 -18 -18 -18 -18 -18 -18 -18 -18 -18 -18 -19 -19 -19 -19 -19 -19 -19 -19 -19 -19 -19 -19 -19 -20 -20 -20 -20 -20 -20 -20 -20 -20

GFSGL_850_temp_087.txt.gz
Temp
10 9 9 9 9 9 9 9 9 9 9 10 10 9 9 9 9 9 8 8 8 9 9 10 9 10 10 9 9 10 9 9 8 9 10 10 10 10 10 10 10 10 10
10 9 9 9 9 9 9 9 9 9 9 9 9 9 9 9 9 9 8 8 9 9 9 9 9 9 9 9 9 9 9 9 9 9 10 10 10 11 10 10 10 11 11
10 9 9 8 9 9 9 9 9 9 9 9 8 9 9 9 9 9 9 9 9 9 9 9 9 9 9 9 9 9 9 10 9 9 9 10 9 9 10 10 10 10 10
10 9 8 8 8 8 9 9 9 9 9 9 9 9 9 9 9 9 9 9 9 9 9 9 9 9 9 9 9 9 9 9 9 8 8 10 10 10 8 8 8 9 9
10 9 9 8 8 8 8 8 9 9 9 9 9 9 9 9 9 9 9 9 9 9 9 9 9 9 9 9 9 9 9 8 8 8 7 7 8 8 8 8 7 8 9
9 9 9 9 9 8 8 8 8 8 8 9 9 9 9 9 9 9 9 9 9 9 9 9 9 9 9 9 8 8 8 8 8 7 7 7 7 8 8 8 8 7 7
9 9 9 9 9 9 9 9 9 9 9 9 9 9 9 8 8 8 8 8 8 8 8 8 8 9 8 8 8 8 8 8 8 8 7 7 7 7 7 7 7 7 7
8 8 8 8 8 8 8 8 9 9 9 9 9 9 9 9 9 9 9 9 9 9 8 8 8 8 8 8 8 8 8 8 8 8 7 7 7 7 6 6 6 5 5
8 7 7 8 8 8 8 8 8 8 9 9 9 8 8 8 8 8 9 8 8 8 8 8 8 8 8 8 7 7 7 7 6 6 5 6 5 5 5 4 4 4 3
6 5 6 7 7 7 7 7 7 8 8 7 7 7 7 7 7 7 8 8 8 7 7 7 8 7 7 7 6 6 5 5 5 4 3 3 2 2 1 1 1 0 -1
3 3 3 4 5 5 5 5 5 6 6 5 5 5 5 5 5 5 5 5 5 5 5 5 4 4 4 4 4 4 3 3 0 -1 -1 -1 -2 -2 -2 -2 -3 -3 -3
2 3 3 4 3 3 3 3 3 3 3 3 3 3 3 2 2 3 4 4 3 3 3 1 0 0 1 1 1 0 -2 -2 -2 -2 -3 -3 -3 -4 -4 -4 -4 -4 -4
0 1 2 3 2 2 3 3 2 1 2 1 1 0 -0 -0 -0 -0 1 1 0 0 -1 -2 -3 -2 -2 -2 -3 -3 -3 -3 -3 -3 -4 -4 -5 -5 -5 -5 -6 -6 -6
-1 -0 -0 1 1 1 1 0 -0 -1 -1 -1 -2 -2 -2 -2 -3 -3 -3 -3 -3 -3 -4 -4 -4 -4 -4 -4 -4 -4 -4 -5 -5 -4 -5 -5 -6 -6 -6 -6 -6 -7 -7
-3 -3 -3 -2 -2 -2 -2 -4 -4 -4 -4 -4 -5 -4 -4 -5 -5 -5 -5 -5 -5 -5 -5 -5 -5 -5 -5 -5 -5 -5 -6 -6 -6 -6 -7 -7 -7 -7 -7 -8 -8 -9 -9
-4 -4 -4 -4 -4 -5 -5 -6 -6 -6 -5 -5 -5 -5 -5 -6 -5 -5 -5 -5 -6 -6 -6 -5 -6 -6 -6 -7 -7 -7 -8 -8 -8 -8 -9 -9 -9 -9 -10 -10 -10 -10 -12
-5 -5 -6 -6 -6 -6 -6 -6 -6 -7 -6 -6 -7 -7 -7 -7 -7 -7 -7 -7 -7 -7 -6 -6 -7 -8 -8 -9 -9 -9 -9 -10 -11 -11 -11 -11 -11 -11 -11 -11 -12 -12 -13
-6 -7 -6 -7 -7 -7 -7 -7 -7 -7 -7 -7 -8 -7 -7 -8 -8 -7 -8 -8 -8 -8 -8 -9 -9 -10 -10 -11 -11 -11 -12 -12 -12 -12 -12 -12 -13 -13 -13 -13 -13 -14 -15
-7 -7 -7 -7 -7 -7 -8 -8 -8 -8 -7 -8 -8 -8 -8 -9 -9 -9 -9 -9 -9 -9 -10 -10 -11 -12 -12 -12 -13 -13 -13 -13 -13 -14 -14 -14 -14 -14 -15 -15 -15 -15 -15
-8 -9 -9 -9 -9 -9 -9 -9 -9 -9 -9 -9 -9 -9 -10 -10 -10 -10 -10 -10 -11 -11 -12 -12 -13 -13 -14 -14 -14 -14 -14 -15 -15 -15 -15 -15 -15 -15 -16 -16 -16 -16 -17
-10 -10 -10 -10 -9 -10 -10 -10 -10 -11 -11 -11 -11 -11 -12 -12 -12 -12 -12 -13 -13 -13 -14 -14 -14 -15 -15 -15 -15 -15 -15 -15 -16 -16 -16 -16 -16 -17 -17 -17 -17 -17 -17
-11 -11 -11 -11 -11 -11 -12 -12 -12 -12 -13 -13 -13 -14 -14 -14 -14 -14 -14 -14 -15 -15 -15 -15 -16 -16 -16 -16 -16 -16 -16 -17 -17 -17 -17 -17 -17 -17 -17 -18 -18 -18 -18
-12 -13 -13 -13 -13 -13 -14 -14 -14 -14 -15 -15 -15 -15 -16 -15 -16 -16 -16 -16 -16 -16 -16 -16 -16 -16 -17 -17 -17 -17 -17 -18 -18 -18 -18 -18 -18 -18 -18 -18 -19 -19 -19
-14 -14 -14 -14 -14 -15 -15 -15 -16 -16 -16 -16 -17 -17 -17 -17 -17 -17 -17 -17 -17 -17 -17 -17 -17 -18 -18 -18 -18 -18 -18 -18 -18 -19 -19 -19 -19 -19 -19 -19 -19 -19 -20
-15 -15 -15 -15 -15 -16 -16 -16 -17 -17 -17 -17 -17 -17 -17 -17 -17 -17 -17 -17 -17 -18 -18 -18 -19 -19 -19 -19 -19 -19 -19 -19 -19 -19 -19 -19 -19 -19 -19 -20 -20 -20 -20
-16 -16 -16 -16 -16 -17 -17 -17 -17 -17 -17 -17 -17 -18 -18 -18 -18 -18 -18 -18 -19 -19 -19 -19 -19 -19 -20 -20 -20 -20 -20 -20 -20 -20 -20 -20 -20 -20 -20 -20 -20 -20 -21

GFSGL_850_temp_090.txt.gz
Temp
11 10 9 9 9 9 9 9 9 10 9 10 10 10 11 10 10 10 10 9 8 9 9 9 10 10 10 10 10 10 10 10 9 9 9 9 9 10 10 10 10 11 11
10 9 9 10 9 9 9 10 9 9 9 10 10 10 10 9 10 10 9 9 9 9 8 8 9 10 10 9 9 10 9 9 9 9 9 10 10 10 10 10 10 9 9
10 9 9 10 10 10 10 9 9 9 9 9 9 9 9 9 9 9 9 9 9 8 8 9 10 10 9 9 9 9 9 9 9 8 9 9 9 9 9 9 9 9 9
10 9 9 9 9 10 9 9 9 9 9 9 9 9 9 9 9 9 9 9 9 9 9 9 9 9 9 9 9 9 9 8 8 8 9 9 9 10 9 9 9 9 9
9 9 9 9 9 9 9 9 9 9 9 9 9 9 9 9 9 9 9 9 9 9 9 8 9 9 9 9 9 9 9 9 8 8 8 8 8 8 8 9 8 8 8
10 9 9 9 9 9 9 9 9 9 9 9 9 9 9 9 9 8 8 9 9 9 9 9 9 9 9 9 9 9 9 8 8 8 8 8 8 8 8 8 7 7 7
9 9 9 8 8 9 8 8 9 9 9 9 8 9 8 8 9 9 8 8 8 8 8 8 8 8 8 8 8 8 8 8 8 8 8 8 7 7 7 7 7 7 7
8 8 8 9 8 8 8 9 8 9 9 9 8 8 8 9 9 9 8 8 8 8 8 8 8 8 8 8 8 8 8 8 8 8 7 7 7 7 6 6 6 5 6
7 7 8 8 8 8 8 8 8 8 8 8 8 8 8 8 8 8 9 8 8 8 8 7 7 7 7 7 7 7 7 6 6 6 5 6 5 4 5 4 3 3 2
4 5 5 6 6 6 7 7 7 7 7 7 7 7 7 7 7 8 8 8 7 7 7 7 6 6 6 6 6 6 5 5 4 1 4 -0 1 1 0 0 1 0 0
2 2 2 4 5 4 4 5 5 5 5 4 4 4 4 5 5 5 6 5 5 5 4 4 3 3 3 3 3 3 2 1 -0 -1 -1 -1 -2 -1 -1 -2 -1 -1 -2
2 0 2 2 2 1 2 2 2 2 3 2 2 2 2 2 2 3 3 4 3 3 2 1 0 1 1 1 1 -1 -1 -2 -2 -3 -3 -3 -3 -3 -3 -3 -3 -3 -4
1 1 1 0 -1 -1 -0 -0 0 0 -0 -0 -0 -0 -1 -1 -0 0 1 1 1 0 -1 -2 -2 -2 -2 -2 -3 -3 -3 -3 -3 -3 -4 -4 -4 -5 -5 -6 -6 -6 -6
-1 -1 -2 -1 -2 -3 -3 -2 -2 -3 -4 -5 -5 -4 -4 -3 -3 -3 -2 -2 -3 -3 -4 -4 -4 -4 -3 -3 -4 -4 -4 -4 -4 -5 -6 -6 -7 -7 -7 -7 -8 -9 -10
-2 -2 -2 -3 -3 -4 -4 -5 -4 -4 -4 -5 -5 -5 -4 -4 -4 -4 -4 -4 -4 -4 -5 -5 -5 -5 -5 -5 -5 -5 -5 -6 -6 -7 -8 -9 -9 -10 -10 -10 -11 -11 -11
-3 -3 -4 -5 -5 -6 -6 -5 -5 -5 -5 -4 -4 -5 -5 -5 -6 -5 -5 -6 -6 -6 -5 -5 -6 -7 -8 -8 -7 -7 -7 -7 -8 -8 -9 -10 -12 -12 -12 -12 -12 -12 -12
-5 -6 -6 -6 -6 -8 -9 -9 -7 -7 -7 -6 -6 -6 -6 -6 -6 -6 -7 -7 -7 -7 -6 -7 -8 -9 -11 -11 -10 -10 -10 -9 -10 -10 -10 -11 -13 -13 -13 -14 -14 -13 -13
-7 -7 -7 -7 -7 -7 -7 -8 -8 -8 -7 -7 -7 -7 -7 -7 -7 -8 -8 -8 -8 -8 -9 -11 -12 -13 -13 -12 -12 -12 -11 -12 -12 -12 -12 -12 -14 -15 -15 -15 -15 -15 -15
-8 -8 -8 -8 -8 -8 -9 -9 -9 -9 -10 -11 -11 -10 -9 -10 -10 -9 -10 -9 -11 -12 -13 -13 -14 -14 -14 -15 -14 -13 -13 -13 -13 -14 -14 -14 -15 -16 -16 -16 -16 -16 -15
-9 -9 -9 -10 -10 -10 -10 -11 -11 -12 -12 -12 -11 -11 -13 -13 -11 -11 -11 -11 -12 -13 -14 -14 -14 -14 -15 -16 -15 -15 -17 -15 -15 -16 -15 -15 -15 -18 -18 -18 -17 -17 -17
-11 -10 -10 -11 -11 -12 -12 -12 -12 -12 -12 -12 -11 -11 -12 -13 -12 -13 -13 -13 -13 -14 -14 -15 -15 -15 -16 -16 -16 -16 -15 -16 -15 -16 -16 -16 -16 -17 -18 -18 -18 -18 -18
-12 -12 -11 -12 -12 -12 -13 -13 -14 -14 -15 -15 -15 -13 -13 -14 -14 -14 -14 -14 -14 -14 -15 -16 -16 -16 -15 -16 -16 -17 -17 -17 -17 -17 -17 -17 -17 -20 -19 -19 -19 -19 -19
-14 -15 -15 -15 -14 -14 -16 -16 -16 -16 -16 -16 -17 -16 -15 -15 -15 -16 -15 -15 -15 -16 -16 -16 -17 -17 -16 -17 -17 -17 -18 -18 -17 -18 -18 -18 -18 -20 -19 -20 -20 -20 -20
-16 -16 -16 -15 -15 -17 -17 -17 -16 -16 -17 -18 -18 -18 -17 -16 -16 -16 -16 -16 -16 -17 -17 -17 -17 -17 -17 -18 -18 -19 -18 -18 -18 -18 -18 -18 -18 -19 -19 -21 -21 -21 -21
-17 -17 -17 -18 -18 -18 -18 -18 -19 -19 -19 -19 -19 -19 -18 -18 -18 -17 -17 -17 -17 -17 -18 -18 -18 -18 -18 -19 -19 -19 -19 -19 -19 -19 -19 -19 -19 -19 -20 -20 -22 -22 -22
-17 -17 -18 -18 -19 -19 -19 -19 -19 -20 -19 -19 -19 -19 -18 -19 -18 -18 -18 -18 -18 -19 -19 -19 -19 -19 -19 -19 -19 -19 -19 -19 -19 -19 -20 -20 -20 -20 -21 -22 -22 -23 -23

GFSGL_850_temp_096.txt.gz
Temp
14 13 12 11 11 10 10 11 11 11 10 10 10 9 10 10 10 10 10 9 9 9 10 11 11 11 11 11 11 12 12 11 11 11 11 11 10 10 10 10 10 11 10
13 11 11 10 10 10 10 10 10 10 9 9 9 9 9 10 10 9 10 9 10 10 10 10 10 10 10 10 10 10 11 11 11 11 11 11 10 10 10 10 10 10 10
11 11 10 10 10 9 10 10 9 9 9 9 9 9 9 9 9 9 10 9 9 9 9 10 10 10 10 10 10 9 9 9 10 11 11 10 10 10 11 11 10 10 10
11 10 10 10 10 9 9 10 10 9 9 9 9 9 9 9 9 9 9 8 9 9 9 9 9 9 9 9 9 9 9 9 10 10 10 10 11 11 10 10 10 10 10
10 10 10 10 10 10 10 10 10 9 9 9 9 9 9 9 9 9 9 9 8 8 9 9 9 8 8 8 9 9 9 10 9 9 10 10 10 10 10 9 9 9 9
9 9 9 10 10 10 9 10 9 9 9 9 9 9 9 8 9 9 9 9 8 8 9 9 9 8 8 8 8 8 8 8 8 8 9 9 8 9 9 9 9 9 8
9 9 9 9 9 9 9 9 9 9 10 9 9 9 9 9 9 9 9 8 9 8 9 9 8 8 8 8 8 7 7 7 8 8 8 8 8 8 8 8 8 8 7
9 9 9 9 9 9 9 9 9 9 9 9 9 9 9 9 9 9 9 9 9 9 8 8 8 8 9 9 9 8 8 8 8 8 8 8 8 7 7 7 7 6 5
5 8 8 8 8 8 8 8 9 8 8 8 8 8 8 8 8 8 9 9 8 8 8 8 8 8 8 8 8 8 8 8 7 7 7 6 5 5 6 5 5 4 3
-1 2 3 5 6 8 8 8 8 8 8 8 8 7 8 8 8 8 8 8 8 8 7 7 8 8 7 7 7 6 5 4 4 5 3 2 2 1 1 2 2 2 2
-4 -1 0 0 1 2 4 5 6 6 6 5 5 4 4 5 6 6 6 5 5 5 4 3 3 4 4 4 4 3 2 1 -0 -0 0 -0 -0 -1 -1 -1 -1 -1 -1
-2 -1 -2 -2 -3 -3 -3 -2 -1 0 1 1 1 0 -0 0 1 2 2 2 1 2 1 0 -1 0 0 0 0 -1 -1 -2 -2 -2 -2 -2 -2 -3 -3 -3 -3 -3 -3
-3 -2 -2 -1 -2 -3 -2 -4 -4 -3 -2 -3 -1 -1 -1 -2 -3 -0 1 0 -0 -0 -1 -1 -1 -1 -2 -2 -4 -3 -3 -3 -4 -4 -4 -4 -4 -5 -5 -4 -5 -5 -5
-4 -4 -3 -2 -2 -2 -2 -2 -4 -4 -2 -6 -4 -3 -4 -4 -3 -5 -3 -4 -4 -3 -4 -4 -4 -4 -4 -4 -4 -5 -5 -6 -6 -7 -8 -7 -8 -7 -6 -6 -7 -8 -8
-5 -6 -5 -5 -4 -5 -4 -4 -5 -5 -5 -5 -6 -6 -4 -6 -7 -7 -6 -5 -4 -5 -5 -6 -6 -6 -7 -6 -6 -6 -7 -7 -7 -7 -8 -8 -8 -8 -9 -9 -9 -9 -10
-7 -6 -7 -7 -7 -7 -6 -6 -7 -6 -6 -5 -5 -5 -5 -6 -6 -6 -6 -5 -5 -6 -5 -5 -7 -8 -8 -9 -9 -8 -8 -8 -8 -8 -8 -9 -10 -10 -10 -11 -10 -10 -11
-8 -8 -8 -8 -8 -8 -8 -7 -8 -8 -7 -6 -7 -6 -6 -6 -6 -6 -7 -7 -6 -7 -7 -9 -10 -10 -10 -10 -10 -10 -9 -9 -10 -10 -9 -10 -11 -12 -12 -12 -12 -11 -11
-8 -8 -7 -8 -9 -9 -9 -9 -10 -9 -9 -9 -9 -8 -9 -8 -9 -9 -10 -9 -9 -9 -10 -11 -11 -12 -12 -11 -11 -11 -11 -11 -11 -11 -11 -11 -12 -13 -13 -13 -14 -13 -13
-8 -10 -9 -9 -9 -10 -10 -10 -10 -10 -10 -10 -11 -11 -11 -10 -10 -10 -10 -9 -11 -11 -12 -12 -13 -13 -13 -13 -13 -14 -13 -12 -13 -13 -13 -12 -12 -13 -15 -15 -15 -15 -15
-10 -11 -11 -11 -11 -11 -11 -11 -11 -10 -10 -10 -10 -11 -13 -12 -10 -11 -11 -12 -12 -13 -14 -14 -14 -14 -14 -15 -15 -15 -15 -14 -13 -14 -14 -13 -14 -16 -16 -16 -17 -17 -16
-12 -12 -12 -12 -12 -12 -12 -13 -13 -13 -13 -12 -12 -13 -14 -14 -14 -14 -14 -14 -14 -15 -15 -15 -15 -15 -15 -15 -16 -16 -16 -15 -15 -15 -15 -15 -16 -18 -18 -18 -18 -18 -17
-12 -13 -13 -13 -13 -13 -13 -13 -14 -14 -14 -15 -15 -15 -15 -16 -16 -15 -15 -15 -15 -15 -15 -16 -16 -15 -16 -16 -16 -17 -17 -16 -16 -15 -16 -16 -17 -18 -18 -18 -19 -18 -19
-13 -13 -14 -13 -14 -14 -14 -14 -14 -15 -15 -15 -16 -16 -17 -17 -17 -17 -17 -17 -17 -16 -16 -16 -16 -15 -16 -16 -17 -17 -16 -17 -17 -16 -17 -17 -17 -18 -18 -18 -19 -19 -19
-15 -15 -14 -15 -15 -15 -15 -15 -15 -16 -16 -16 -16 -17 -18 -18 -18 -19 -17 -17 -17 -17 -17 -16 -16 -17 -18 -18 -18 -17 -17 -18 -18 -17 -17 -17 -18 -18 -19 -19 -21 -21 -21
-16 -16 -16 -16 -16 -16 -16 -16 -16 -17 -17 -17 -17 -18 -18 -18 -19 -19 -20 -18 -18 -18 -18 -18 -19 -18 -18 -18 -17 -18 -18 -19 -19 -19 -18 -18 -18 -19 -21 -21 -21 -21 -21
-17 -17 -17 -17 -17 -17 -17 -17 -17 -18 -18 -18 -18 -19 -19 -19 -20 -20 -20 -20 -19 -19 -19 -20 -19 -19 -19 -18 -18 -19 -19 -19 -19 -19 -19 -19 -19 -19 -20 -20 -20 -21 -22

GFSGL_850_temp_099.txt.gz
Temp
15 15 14 14 13 13 12 11 11 11 11 10 10 10 10 10 10 10 10 10 10 10 10 9 9 10 11 11 12 12 12 12 12 11 11 11 11 10 11 11 10 10 11
14 14 14 13 12 11 11 10 11 11 10 9 9 9 9 10 10 10 10 10 10 10 10 9 9 9 10 10 12 12 12 12 11 11 11 11 11 11 11 11 10 10 10
12 12 12 11 11 11 10 10 10 9 9 9 9 9 9 9 10 10 10 9 10 10 9 9 9 9 10 11 12 12 12 12 11 10 10 11 11 11 11 11 11 11 10
11 11 11 11 10 10 10 9 10 9 9 9 9 9 9 9 9 10 10 10 9 9 9 9 10 9 10 10 10 10 10 10 9 10 10 10 10 10 10 10 11 10 9
9 10 10 10 10 10 9 9 10 9 9 9 9 9 9 9 9 9 9 9 9 9 9 9 9 9 9 9 9 9 9 9 9 9 9 9 9 9 9 9 10 9 8
9 9 9 10 10 9 10 10 10 9 9 9 9 9 9 9 9 9 9 9 9 9 9 9 8 8 8 8 7 7 8 8 8 9 9 8 8 9 9 9 9 8 8
8 9 9 9 10 9 9 10 9 9 9 9 9 8 8 9 8 8 8 8 8 8 8 8 8 8 8 7 7 8 8 8 8 7 7 7 8 8 8 8 8 8 8
4 7 8 9 10 10 10 10 9 9 9 9 9 9 9 9 9 8 8 8 8 8 8 8 8 8 8 8 8 7 7 7 7 7 7 7 7 7 7 7 7 6 6
1 2 4 7 9 9 9 9 9 8 8 8 8 8 8 8 9 9 8 8 8 8 8 8 7 8 8 8 8 8 8 7 7 7 7 7 6 6 6 5 5 4 4
-1 -1 -0 1 4 7 7 7 7 7 7 7 7 7 7 8 8 7 7 8 8 8 7 8 7 7 7 8 7 6 6 5 4 5 4 3 2 2 2 2 2 2 2
-3 -3 -1 -2 -3 0 3 3 2 2 2 2 3 4 4 5 5 5 5 6 6 6 6 5 5 5 6 5 5 4 3 2 1 1 0 0 -0 -1 0 0 0 0 0
-3 -3 -2 -2 -3 -3 -1 -1 -0 -1 -1 -1 -1 -1 0 0 0 1 2 2 2 3 2 1 0 1 1 2 2 1 1 1 -0 -0 -1 -2 -2 -2 -1 -1 -1 -2 -2
-3 -3 -3 -3 -3 -3 -2 -2 -1 -1 -2 -3 -3 -3 -4 -3 -3 -2 -1 -1 -0 0 -1 -2 -2 -1 -0 -1 -1 -2 -2 -1 -1 -2 -2 -3 -3 -3 -3 -3 -3 -3 -4
-5 -4 -4 -3 -3 -3 -4 -3 -3 -3 -3 -2 -3 -4 -4 -5 -4 -4 -5 -3 -4 -3 -4 -4 -4 -3 -3 -3 -4 -4 -4 -4 -3 -3 -4 -5 -5 -5 -4 -5 -5 -6 -7
-6 -6 -6 -5 -5 -4 -5 -5 -5 -6 -4 -5 -6 -5 -4 -5 -5 -5 -5 -5 -4 -4 -5 -4 -4 -5 -5 -5 -5 -5 -6 -6 -6 -6 -6 -6 -6 -6 -6 -7 -7 -8 -9
-7 -7 -7 -7 -7 -7 -7 -7 -7 -7 -7 -6 -6 -6 -7 -7 -7 -6 -5 -6 -7 -7 -5 -5 -6 -6 -7 -7 -7 -8 -8 -8 -8 -8 -8 -8 -9 -9 -8 -9 -9 -9 -10
-8 -8 -8 -8 -8 -8 -8 -8 -8 -8 -8 -8 -8 -8 -8 -8 -8 -8 -7 -6 -7 -8 -7 -8 -9 -9 -9 -9 -9 -9 -9 -9 -9 -9 -9 -10 -10 -11 -11 -10 -10 -11 -11
-9 -9 -9 -9 -9 -9 -9 -9 -8 -8 -8 -8 -8 -9 -9 -9 -9 -9 -9 -9 -8 -9 -9 -9 -9 -10 -10 -9 -9 -9 -10 -10 -10 -10 -10 -11 -11 -11 -12 -12 -12 -12 -13
-10 -11 -11 -10 -11 -11 -10 -10 -10 -10 -10 -10 -10 -9 -10 -10 -10 -10 -10 -9 -9 -10 -11 -11 -12 -12 -12 -12 -12 -11 -12 -12 -11 -11 -12 -12 -13 -13 -14 -14 -14 -15 -15
-11 -11 -11 -11 -12 -12 -12 -11 -11 -11 -11 -11 -12 -12 -12 -11 -11 -11 -11 -12 -12 -13 -13 -13 -13 -13 -13 -14 -14 -13 -13 -13 -13 -13 -13 -13 -14 -14 -14 -15 -15 -15 -15
-12 -12 -12 -12 -12 -13 -13 -13 -13 -13 -13 -13 -14 -14 -14 -12 -13 -13 -14 -14 -14 -14 -14 -14 -15 -15 -15 -14 -14 -14 -13 -14 -14 -14 -14 -14 -14 -14 -15 -16 -16 -17 -17
-13 -13 -13 -13 -13 -13 -14 -14 -14 -15 -15 -15 -15 -15 -16 -15 -14 -14 -14 -15 -15 -15 -15 -15 -15 -15 -15 -14 -14 -14 -14 -14 -14 -15 -15 -15 -15 -15 -16 -17 -17 -18 -18
-14 -14 -14 -14 -14 -14 -14 -15 -15 -15 -16 -16 -16 -17 -17 -16 -17 -17 -17 -16 -16 -16 -16 -15 -15 -16 -15 -15 -16 -16 -16 -16 -16 -16 -16 -17 -17 -17 -17 -17 -18 -18 -19
-15 -15 -15 -15 -15 -15 -16 -16 -16 -16 -16 -17 -17 -17 -18 -18 -18 -17 -17 -17 -16 -16 -15 -16 -16 -17 -17 -16 -17 -17 -17 -17 -17 -17 -18 -18 -18 -18 -17 -17 -17 -18 -19
-16 -16 -16 -16 -17 -16 -17 -17 -17 -17 -17 -17 -18 -18 -19 -19 -19 -19 -18 -18 -18 -18 -17 -17 -17 -17 -17 -17 -18 -18 -18 -19 -19 -18 -18 -18 -18 -18 -18 -18 -18 -19 -19
-17 -17 -17 -18 -18 -18 -18 -18 -18 -18 -18 -19 -19 -19 -19 -19 -20 -20 -20 -19 -19 -19 -19 -18 -18 -19 -18 -18 -18 -18 -18 -19 -19 -19 -19 -19 -19 -19 -19 -19 -19 -20 -20

GFSGL_850_temp_102.txt.gz
Temp
15 15 15 15 15 14 13 13 13 12 11 10 10 10 10 10 10 10 10 10 10 10 10 10 10 10 10 10 11 11 11 11 11 11 11 11 12 12 11 11 11 10 10
13 14 15 15 14 13 13 12 12 11 10 10 10 9 9 9 10 10 10 10 10 10 10 10 10 9 9 10 9 10 11 11 11 12 12 11 11 11 12 10 11 10 11
11 11 13 12 13 12 11 11 10 10 10 9 9 9 9 9 9 9 10 10 10 10 10 10 9 10 9 9 9 10 10 10 11 11 10 11 10 11 10 10 10 10 10
10 10 11 11 12 11 11 10 9 10 9 9 9 9 9 9 9 9 9 10 10 10 10 9 9 10 9 9 9 8 9 9 10 10 11 10 10 10 8 9 10 10 9
9 10 10 10 10 10 10 10 9 10 9 9 9 8 9 9 9 9 9 10 9 9 9 9 9 10 9 9 9 9 9 9 9 9 10 10 10 9 8 9 10 9 9
8 9 10 10 9 9 10 9 9 9 9 9 8 8 8 9 9 9 9 9 9 9 9 9 9 9 9 8 8 8 9 8 9 10 10 9 9 9 9 9 9 8 8
5 8 9 9 9 9 9 9 9 9 9 9 8 9 8 9 8 8 9 8 9 9 9 9 9 9 8 8 8 9 8 8 8 8 8 8 8 8 8 8 8 7 7
3 4 6 7 8 9 9 9 9 9 9 9 9 8 9 9 8 8 8 8 8 8 8 8 8 8 8 8 8 8 7 7 7 7 8 7 8 7 7 7 7 7 7
1 2 2 2 4 6 6 8 9 9 9 8 8 8 8 8 9 8 8 8 8 8 8 8 8 8 8 8 8 7 7 7 8 8 8 8 7 7 7 7 6 6 5
-2 -2 -1 0 -1 0 2 2 5 7 8 7 6 6 7 7 8 8 8 7 7 7 7 7 7 7 8 8 7 7 7 7 7 7 6 6 6 6 6 4 4 3 3
-4 -3 -2 -2 -1 -3 -3 -1 1 0 4 4 4 4 4 5 5 5 5 6 6 5 5 5 5 5 6 5 4 5 5 4 4 3 3 2 2 2 2 1 1 0 -0
-3 -3 -3 -3 -2 -2 -2 -3 -2 -2 -1 0 1 -0 0 1 2 2 3 3 3 3 2 1 1 2 2 2 1 1 1 1 0 0 0 -0 -1 -1 -1 -1 -1 -2 -2
-4 -4 -4 -3 -3 -3 -3 -2 -2 -3 -4 -3 -2 -3 -4 -3 -2 -1 -1 0 0 1 0 -1 -1 -0 -1 -1 -1 -1 -2 -1 -2 -2 -2 -2 -3 -3 -4 -3 -3 -4 -4
-5 -5 -5 -4 -4 -4 -4 -5 -4 -4 -5 -6 -5 -5 -5 -4 -4 -3 -3 -3 -2 -2 -3 -3 -3 -3 -3 -3 -4 -3 -3 -4 -4 -4 -5 -5 -5 -5 -5 -5 -5 -5 -4
-5 -6 -6 -5 -5 -5 -5 -6 -6 -7 -6 -6 -7 -7 -6 -6 -7 -6 -4 -4 -4 -3 -3 -3 -3 -4 -4 -4 -5 -5 -6 -6 -5 -5 -5 -5 -5 -6 -6 -6 -7 -7 -7
-6 -7 -7 -7 -7 -6 -6 -6 -6 -7 -7 -7 -7 -7 -8 -7 -7 -6 -6 -6 -6 -6 -5 -5 -5 -6 -6 -6 -6 -7 -7 -7 -6 -7 -7 -7 -7 -7 -7 -8 -8 -9 -9
-8 -8 -7 -8 -8 -8 -8 -8 -7 -7 -7 -7 -7 -8 -8 -8 -8 -7 -7 -7 -7 -7 -6 -6 -7 -7 -8 -8 -8 -7 -7 -7 -8 -9 -9 -9 -8 -8 -8 -9 -9 -10 -10
-9 -9 -9 -9 -9 -9 -9 -9 -9 -8 -8 -9 -9 -9 -9 -9 -9 -9 -9 -8 -8 -8 -8 -9 -9 -10 -10 -10 -10 -10 -10 -10 -10 -10 -10 -10 -10 -10 -10 -11 -11 -12 -12
-10 -10 -10 -10 -10 -10 -10 -9 -9 -10 -10 -10 -11 -10 -10 -10 -10 -10 -10 -9 -9 -10 -11 -11 -11 -11 -11 -12 -12 -12 -12 -12 -12 -12 -12 -12 -12 -13 -13 -13 -13 -13 -13
-11 -11 -12 -12 -11 -11 -11 -11 -11 -11 -11 -12 -11 -12 -12 -12 -12 -12 -12 -12 -12 -12 -12 -13 -13 -13 -13 -13 -13 -13 -13 -13 -13 -13 -13 -13 -14 -14 -14 -14 -14 -14 -14
-13 -12 -13 -13 -13 -13 -13 -13 -13 -13 -13 -13 -14 -14 -14 -13 -13 -14 -14 -14 -14 -14 -14 -14 -14 -14 -14 -14 -14 -14 -14 -14 -14 -14 -14 -14 -15 -15 -15 -15 -15 -16 -16
-13 -13 -13 -14 -14 -14 -14 -15 -15 -15 -15 -15 -16 -16 -16 -15 -15 -15 -15 -15 -15 -16 -16 -16 -16 -16 -16 -16 -15 -15 -15 -16 -15 -15 -15 -16 -16 -16 -16 -16 -16 -16 -16
-14 -14 -14 -15 -15 -15 -15 -16 -16 -16 -16 -17 -17 -17 -17 -17 -17 -17 -17 -17 -17 -17 -17 -17 -16 -16 -17 -16 -17 -17 -16 -16 -16 -17 -16 -16 -16 -16 -16 -16 -16 -17 -17
-15 -15 -15 -16 -16 -16 -16 -16 -17 -17 -17 -18 -18 -18 -18 -19 -19 -19 -19 -18 -17 -17 -17 -17 -17 -17 -17 -17 -17 -17 -17 -17 -17 -17 -17 -17 -17 -17 -17 -17 -17 -18 -18
-16 -16 -17 -17 -17 -17 -17 -18 -18 -18 -18 -18 -18 -19 -19 -19 -19 -20 -20 -20 -19 -18 -18 -18 -18 -18 -18 -18 -18 -18 -18 -18 -18 -18 -18 -18 -18 -18 -18 -18 -18 -19 -19
-18 -18 -18 -18 -18 -18 -18 -18 -19 -19 -19 -19 -19 -19 -20 -20 -20 -20 -20 -20 -20 -20 -19 -19 -18 -18 -18 -19 -19 -19 -18 -18 -19 -18 -19 -19 -19 -19 -19 -19 -19 -19 -19

GFSGL_850_temp_105.txt.gz
Temp
12 13 14 16 15 16 15 15 14 13 13 12 12 11 11 10 10 10 10 10 10 10 10 10 9 10 10 9 10 10 10 10 11 12 12 11 11 11 11 10 10 10 10
12 14 14 15 15 14 14 14 13 12 12 12 11 10 10 9 9 9 10 10 10 10 10 10 10 10 9 10 9 9 9 10 10 12 12 11 10 11 11 11 11 11 10
10 13 14 14 14 14 13 13 12 12 11 11 10 9 10 9 9 9 9 10 10 10 10 10 10 10 10 10 9 9 9 10 9 10 12 11 10 11 11 11 10 9 10
10 11 11 11 12 11 11 11 11 10 10 10 8 9 9 8 9 8 9 9 9 9 9 10 10 10 10 10 9 9 9 9 9 9 11 10 10 10 10 11 10 9 9
7 9 10 10 10 10 9 10 10 10 9 9 8 9 9 8 8 9 8 9 9 9 10 10 10 10 10 10 10 9 9 9 9 9 10 9 9 9 9 9 9 8 8
4 5 8 9 10 10 9 9 9 9 10 9 8 8 8 8 8 8 8 9 9 9 9 9 10 9 9 9 9 9 9 9 9 9 8 8 9 8 9 8 8 8 8
2 4 5 8 9 9 9 9 9 9 10 8 9 8 8 8 8 8 8 8 9 9 9 9 9 9 9 9 9 8 9 9 8 8 9 8 8 8 8 8 8 8 8
1 2 3 3 5 6 7 8 8 8 9 8 8 8 8 9 9 8 8 8 8 8 8 9 9 9 9 9 9 8 8 8 8 8 8 8 8 8 8 8 8 7 7
-1 -1 1 1 2 2 3 3 4 4 7 7 7 8 8 8 8 8 8 8 8 8 8 7 7 7 8 8 8 8 8 8 8 8 8 7 7 7 7 7 7 7 6
-3 -3 -2 -1 -0 1 1 0 -1 -0 1 2 5 5 7 8 8 8 7 7 7 7 8 7 7 7 8 8 7 7 7 7 7 7 7 7 7 7 7 7 6 6 6
-3 -2 -2 -2 -2 -2 -1 -0 -1 -2 -3 -3 -0 2 3 3 6 5 4 5 6 6 6 6 7 7 7 7 7 7 6 6 5 4 5 4 4 4 4 4 3 2 2
-3 -3 -3 -3 -3 -3 -3 -2 -2 -1 -2 -4 -5 -3 -2 -1 -0 1 2 3 2 3 3 3 2 3 3 3 4 3 2 2 1 1 0 -0 0 -0 -0 0 0 -0 -1
-4 -4 -4 -3 -3 -3 -3 -4 -4 -4 -4 -4 -6 -6 -5 -4 -4 -3 -1 -1 0 1 -1 -1 -1 -0 -0 -0 -1 -1 -1 -1 -1 -1 -2 -2 -3 -3 -3 -2 -2 -3 -3
-5 -5 -5 -4 -4 -4 -3 -4 -4 -5 -5 -5 -6 -6 -6 -6 -6 -5 -4 -4 -3 -3 -4 -3 -3 -3 -2 -3 -3 -3 -3 -3 -3 -3 -3 -4 -4 -5 -5 -5 -5 -5 -4
-5 -5 -6 -6 -6 -6 -5 -6 -6 -7 -7 -7 -7 -6 -6 -6 -7 -6 -5 -5 -5 -4 -4 -4 -4 -4 -4 -4 -4 -4 -5 -5 -5 -5 -6 -7 -7 -7 -6 -7 -7 -7 -6
-6 -6 -6 -6 -7 -7 -7 -7 -7 -7 -7 -8 -8 -7 -8 -8 -7 -7 -6 -6 -6 -6 -5 -5 -6 -6 -6 -7 -7 -8 -8 -8 -8 -9 -8 -8 -7 -7 -8 -8 -8 -8 -8
-7 -8 -7 -7 -7 -7 -7 -7 -8 -8 -8 -8 -8 -8 -8 -8 -8 -8 -7 -7 -7 -7 -6 -7 -7 -8 -8 -8 -8 -8 -9 -9 -9 -8 -8 -8 -8 -8 -8 -8 -9 -9 -10
-9 -9 -9 -9 -8 -8 -9 -9 -9 -8 -8 -8 -9 -9 -10 -9 -9 -9 -9 -9 -8 -8 -8 -8 -9 -9 -10 -10 -10 -10 -10 -11 -10 -9 -8 -8 -9 -9 -10 -10 -11 -11 -12
-10 -10 -10 -10 -10 -10 -10 -10 -10 -10 -10 -10 -10 -10 -10 -11 -11 -10 -11 -10 -10 -10 -11 -11 -11 -11 -11 -11 -11 -11 -11 -11 -11 -11 -11 -11 -11 -11 -11 -12 -12 -12 -12
-11 -12 -12 -12 -12 -12 -12 -12 -12 -12 -12 -12 -12 -12 -12 -13 -11 -11 -12 -12 -12 -13 -13 -13 -13 -13 -13 -13 -13 -13 -13 -13 -13 -13 -13 -13 -12 -12 -13 -13 -13 -13 -14
-12 -12 -13 -13 -13 -13 -13 -14 -14 -14 -14 -14 -14 -15 -14 -14 -14 -14 -14 -14 -14 -14 -14 -14 -14 -15 -15 -15 -14 -15 -14 -14 -14 -14 -14 -14 -14 -14 -14 -14 -14 -15 -15
-13 -13 -14 -14 -14 -15 -15 -15 -15 -16 -16 -16 -16 -16 -17 -16 -16 -15 -15 -15 -16 -16 -16 -16 -16 -16 -15 -15 -15 -15 -15 -15 -15 -15 -15 -15 -15 -15 -15 -16 -16 -16 -16
-14 -14 -15 -15 -15 -16 -16 -16 -16 -17 -17 -17 -18 -18 -18 -18 -17 -17 -17 -17 -17 -17 -16 -16 -16 -16 -16 -16 -16 -16 -16 -16 -16 -16 -16 -16 -16 -16 -16 -16 -17 -17 -17
-14 -15 -16 -16 -17 -17 -17 -17 -17 -18 -18 -18 -18 -18 -19 -19 -19 -19 -18 -18 -18 -18 -17 -17 -17 -17 -17 -17 -17 -17 -17 -17 -17 -17 -17 -17 -17 -17 -18 -18 -18 -18 -17
-16 -17 -17 -17 -18 -18 -18 -18 -19 -19 -19 -19 -19 -19 -19 -19 -20 -20 -20 -20 -19 -19 -19 -19 -19 -18 -18 -18 -18 -18 -18 -18 -18 -18 -18 -18 -18 -18 -18 -18 -18 -19 -18
-18 -18 -19 -19 -19 -19 -19 -19 -19 -19 -20 -20 -20 -20 -21 -21 -21 -21 -21 -21 -21 -20 -20 -19 -19 -19 -19 -19 -19 -19 -19 -18 -19 -19 -19 -19 -19 -19 -19 -19 -19 -19 -19

GFSGL_850_temp_111.txt.gz
Temp
9 11 12 12 12 12 12 12 13 13 14 14 14 15 15 14 13 12 12 12 12 11 11 11 11 11 10 10 9 10 9 9 9 9 9 10 9 10 10 11 10 10 10
7 10 11 12 11 12 12 13 13 13 13 13 14 14 13 12 12 12 11 11 11 10 11 10 11 11 10 9 9 9 10 9 9 9 9 9 9 10 10 10 11 10 10
6 8 10 11 11 11 12 12 12 12 13 13 13 13 12 11 11 11 10 10 10 9 10 10 9 10 10 10 10 9 10 9 9 9 9 9 10 9 10 10 10 10 10
4 7 8 9 10 10 10 11 11 11 11 11 11 11 11 11 10 10 10 9 9 9 9 9 9 9 9 9 10 9 9 9 9 9 9 9 9 10 10 10 9 10 10
2 5 6 7 9 9 10 10 10 10 10 10 9 9 9 10 9 9 8 8 8 9 9 9 8 8 9 9 9 9 9 9 9 9 8 8 8 9 9 10 10 11 10
-1 1 2 4 5 8 8 9 9 9 8 8 8 9 8 8 8 8 8 8 8 8 8 9 9 9 9 9 9 9 9 9 9 9 9 8 8 9 9 9 9 9 8
-1 -0 1 1 1 2 3 5 7 7 8 9 8 7 7 7 7 7 8 8 7 7 8 8 9 9 10 9 10 9 9 9 9 9 9 9 8 8 9 8 8 9 9
-3 -2 -0 -0 0 2 2 2 2 2 5 5 6 6 6 6 7 7 7 7 7 7 8 8 8 9 9 9 9 9 9 9 9 9 9 9 8 8 9 9 9 7 8
-3 -2 -2 -1 -1 -1 -1 1 0 -0 1 1 1 2 3 4 5 5 6 5 6 6 6 7 7 8 8 9 8 9 8 8 8 9 8 8 8 8 8 8 7 7 8
-5 -4 -3 -3 -3 -3 -3 -3 -3 -2 -1 -1 -1 -1 -0 0 0 1 3 3 3 4 4 4 5 6 7 6 6 6 6 6 6 6 8 8 8 8 8 8 8 8 8
-5 -5 -4 -3 -4 -4 -4 -3 -4 -3 -3 -3 -2 -3 -2 -1 -1 0 -1 0 0 1 2 2 3 2 4 4 4 4 5 5 6 6 6 6 6 7 7 7 7 7 8
-5 -5 -5 -4 -4 -4 -4 -4 -4 -3 -4 -4 -4 -5 -5 -4 -3 -3 -2 -2 -3 -2 -1 -2 -2 -1 0 1 2 2 1 1 3 5 5 5 5 4 5 5 5 4 3
-5 -5 -5 -5 -5 -4 -4 -4 -4 -4 -4 -4 -4 -4 -5 -5 -5 -5 -4 -3 -3 -3 -3 -4 -4 -3 -3 -2 -2 -2 -2 -1 -1 1 0 -1 -1 -0 0 0 0 0 0
-5 -5 -5 -5 -5 -5 -5 -5 -5 -6 -6 -6 -5 -6 -6 -5 -5 -5 -5 -5 -5 -4 -4 -4 -3 -4 -4 -4 -4 -3 -4 -3 -3 -3 -4 -4 -5 -4 -3 -3 -3 -3 -3
-6 -7 -7 -7 -7 -7 -7 -8 -8 -9 -8 -7 -8 -8 -8 -8 -8 -7 -6 -6 -6 -6 -5 -5 -4 -4 -4 -5 -5 -5 -6 -6 -6 -6 -6 -6 -6 -6 -5 -6 -6 -5 -5
-7 -7 -8 -8 -8 -8 -9 -9 -9 -9 -9 -8 -8 -8 -8 -9 -9 -8 -7 -7 -7 -6 -5 -5 -6 -6 -6 -7 -7 -7 -7 -7 -7 -7 -7 -8 -8 -8 -8 -8 -8 -8 -8
-8 -9 -9 -9 -9 -9 -9 -9 -9 -10 -9 -9 -9 -9 -8 -8 -9 -8 -8 -8 -7 -7 -6 -7 -8 -8 -9 -8 -8 -8 -8 -9 -9 -9 -9 -9 -9 -10 -10 -10 -9 -8 -8
-9 -9 -10 -10 -10 -10 -10 -11 -10 -10 -10 -10 -10 -10 -10 -10 -10 -10 -10 -10 -8 -8 -9 -9 -10 -10 -10 -10 -10 -10 -10 -10 -10 -10 -10 -10 -10 -10 -10 -10 -10 -10 -10
-11 -11 -11 -11 -11 -11 -11 -11 -12 -12 -12 -12 -12 -11 -11 -12 -12 -11 -11 -10 -11 -11 -12 -12 -12 -12 -12 -12 -12 -12 -12 -11 -11 -11 -11 -11 -11 -11 -11 -11 -11 -11 -11
-12 -12 -12 -12 -12 -13 -13 -13 -13 -13 -13 -14 -13 -13 -13 -13 -12 -12 -13 -13 -13 -13 -13 -14 -14 -14 -14 -13 -13 -13 -13 -13 -13 -13 -13 -12 -12 -12 -12 -12 -12 -12 -12
-12 -12 -13 -13 -14 -15 -15 -16 -16 -16 -17 -17 -16 -16 -16 -15 -15 -15 -15 -15 -15 -15 -15 -15 -15 -15 -15 -14 -14 -14 -14 -14 -14 -14 -14 -14 -14 -14 -14 -14 -14 -14 -14
-13 -13 -13 -14 -15 -15 -16 -17 -17 -17 -18 -18 -18 -18 -18 -17 -17 -17 -17 -17 -17 -17 -17 -17 -17 -16 -16 -16 -15 -15 -15 -15 -15 -15 -15 -15 -15 -15 -15 -15 -15 -15 -15
-14 -15 -15 -15 -16 -16 -17 -17 -18 -19 -19 -19 -19 -19 -19 -19 -19 -19 -19 -19 -19 -18 -18 -18 -18 -18 -17 -17 -17 -17 -16 -16 -16 -16 -16 -16 -16 -16 -16 -16 -16 -16 -16
-16 -16 -16 -17 -17 -17 -18 -18 -18 -19 -19 -19 -19 -19 -20 -20 -20 -20 -20 -20 -20 -20 -20 -19 -19 -19 -19 -19 -18 -18 -18 -18 -17 -17 -17 -17 -17 -17 -17 -17 -17 -17 -17
-16 -17 -17 -18 -18 -18 -18 -19 -19 -19 -20 -20 -20 -20 -20 -20 -21 -21 -21 -21 -21 -21 -21 -21 -21 -20 -20 -20 -19 -19 -19 -19 -18 -18 -18 -18 -18 -18 -18 -18 -18 -18 -18
-17 -18 -18 -18 -18 -19 -19 -19 -19 -20 -20 -20 -20 -21 -21 -21 -21 -21 -21 -22 -22 -22 -22 -21 -21 -21 -21 -21 -20 -20 -19 -19 -19 -19 -19 -19 -19 -19 -19 -19 -19 -19 -19

GFSGL_850_temp_114.txt.gz
Temp
2 4 8 10 11 12 12 12 13 13 13 13 12 12 12 13 14 16 16 15 14 13 12 12 12 12 12 11 11 11 10 10 10 10 10 9 10 10 10 10 10 10 9
1 5 9 11 12 12 12 12 12 12 13 13 13 12 12 13 13 13 15 13 13 12 12 12 11 11 11 11 10 10 10 10 10 10 9 9 10 10 10 9 9 9 9
1 4 8 11 11 11 11 11 11 12 12 11 12 12 12 12 12 13 13 12 11 11 11 10 10 10 10 10 10 10 10 10 10 9 9 9 9 10 10 9 9 9 9
1 4 6 8 9 10 10 11 11 11 11 11 10 11 11 11 11 11 11 11 11 10 10 10 10 9 9 9 9 10 9 10 10 9 9 9 9 10 9 9 9 9 9
-0 1 2 3 5 7 9 9 10 10 10 10 10 11 11 11 11 10 10 10 9 9 8 9 9 9 9 9 9 9 9 9 9 9 9 9 9 8 9 9 9 9 8
-0 0 -0 1 2 2 4 6 8 9 9 9 9 9 9 9 9 9 9 9 9 8 8 8 9 8 9 9 9 9 9 9 9 9 9 9 9 9 9 9 8 8 8
-2 -1 -1 -0 1 1 1 0 2 3 5 6 6 6 7 7 8 7 8 8 8 7 8 8 8 8 8 9 9 9 9 9 9 8 9 9 9 9 9 9 8 9 8
-3 -3 -2 -1 -0 -0 1 0 0 -1 1 2 3 3 4 4 7 7 7 7 7 7 7 7 7 7 8 9 9 8 8 9 9 9 9 8 8 9 9 9 10 8 7
-4 -3 -3 -2 -2 -2 -1 -1 -0 -0 0 0 1 1 2 0 1 2 3 5 4 5 5 6 6 7 8 8 8 8 7 7 7 9 8 8 8 8 8 8 8 7 6
-4 -4 -3 -3 -4 -3 -3 -4 -3 -2 -2 -2 -1 -2 -2 -2 -1 1 1 1 1 1 1 2 3 4 5 6 6 6 5 5 5 5 5 6 7 8 8 8 8 7 6
-5 -4 -4 -4 -4 -4 -4 -4 -4 -3 -2 -3 -4 -4 -3 -3 -2 -2 -1 -1 -0 -0 -0 -0 0 0 1 2 4 4 3 3 2 4 3 4 5 5 6 7 7 7 7
-4 -4 -4 -4 -4 -4 -4 -4 -4 -3 -4 -4 -4 -5 -5 -5 -4 -4 -3 -3 -3 -2 -2 -2 -2 -3 -2 -1 0 0 -0 0 1 2 1 2 3 4 3 3 4 4 5
-5 -5 -5 -5 -4 -4 -4 -4 -4 -4 -4 -5 -5 -6 -5 -4 -4 -5 -5 -5 -4 -4 -4 -4 -4 -4 -3 -2 -2 -2 -2 -1 -1 -0 -1 -2 -2 -1 0 2 3 3 4
-6 -6 -6 -6 -6 -6 -6 -6 -6 -6 -6 -6 -6 -6 -6 -5 -4 -5 -5 -5 -5 -5 -5 -5 -4 -4 -4 -5 -4 -3 -3 -3 -3 -3 -4 -5 -5 -4 -3 -3 -2 -3 -1
-6 -6 -7 -7 -7 -10 -9 -9 -9 -9 -8 -9 -9 -11 -9 -8 -8 -8 -7 -6 -6 -6 -6 -5 -5 -5 -5 -6 -6 -6 -6 -6 -6 -6 -5 -5 -5 -5 -5 -5 -4 -5 -4
-10 -10 -8 -9 -9 -9 -10 -11 -9 -9 -9 -8 -8 -8 -9 -9 -8 -8 -7 -7 -7 -7 -6 -6 -7 -7 -8 -8 -8 -8 -7 -8 -8 -7 -7 -7 -7 -7 -7 -7 -6 -6 -6
-8 -10 -11 -11 -11 -10 -10 -10 -11 -11 -9 -9 -8 -9 -9 -9 -9 -9 -9 -9 -8 -8 -10 -11 -11 -11 -12 -11 -10 -10 -10 -9 -9 -9 -8 -8 -9 -9 -9 -8 -8 -8 -8
-10 -10 -12 -12 -12 -13 -13 -13 -13 -13 -12 -12 -11 -10 -10 -9 -10 -10 -10 -11 -11 -12 -13 -14 -14 -14 -14 -14 -13 -12 -11 -11 -10 -10 -10 -10 -10 -10 -10 -10 -10 -10 -10
-10 -11 -14 -14 -14 -14 -14 -14 -14 -14 -15 -15 -13 -12 -11 -11 -12 -11 -11 -13 -15 -15 -15 -15 -16 -16 -15 -15 -15 -15 -15 -13 -13 -13 -12 -12 -12 -13 -12 -11 -11 -11 -11
-13 -11 -11 -14 -14 -14 -14 -15 -15 -15 -15 -15 -16 -16 -14 -16 -16 -16 -16 -17 -17 -17 -17 -17 -17 -17 -17 -17 -17 -17 -16 -16 -16 -16 -16 -15 -15 -15 -15 -15 -15 -14 -15
-15 -15 -14 -15 -15 -16 -15 -15 -16 -16 -16 -16 -16 -16 -16 -18 -17 -18 -18 -19 -19 -19 -19 -18 -18 -19 -19 -18 -18 -18 -17 -17 -17 -17 -17 -17 -16 -16 -16 -16 -16 -15 -15
-15 -16 -16 -16 -16 -17 -17 -16 -16 -16 -17 -17 -17 -18 -19 -18 -18 -19 -19 -20 -20 -20 -20 -20 -20 -20 -18 -18 -18 -19 -18 -18 -18 -19 -18 -17 -17 -17 -17 -17 -16 -16 -16
-16 -17 -16 -16 -17 -17 -17 -17 -17 -18 -18 -18 -18 -18 -18 -19 -19 -20 -20 -21 -21 -21 -20 -20 -21 -20 -19 -18 -18 -18 -17 -17 -17 -17 -19 -19 -18 -18 -18 -18 -18 -17 -17
-17 -17 -17 -17 -17 -18 -18 -18 -18 -18 -19 -18 -18 -19 -19 -19 -20 -20 -21 -21 -21 -22 -22 -22 -20 -19 -19 -19 -19 -19 -18 -18 -18 -18 -18 -20 -20 -19 -19 -19 -19 -17 -18
-17 -17 -17 -17 -17 -17 -18 -18 -18 -18 -18 -19 -19 -19 -19 -20 -20 -20 -20 -21 -22 -22 -22 -22 -21 -21 -20 -20 -20 -19 -19 -19 -19 -18 -18 -19 -18 -18 -18 -19 -20 -19 -18
-17 -17 -17 -17 -17 -17 -18 -18 -18 -18 -18 -19 -19 -19 -20 -20 -20 -20 -21 -21 -22 -22 -22 -23 -23 -21 -21 -22 -21 -20 -20 -19 -19 -19 -19 -19 -20 -20 -21 -19 -19 -21 -20

GFSGL_850_temp_117.txt.gz
Temp
-1 1 2 3 6 8 9 11 13 13 13 13 13 13 12 12 12 13 13 15 13 13 15 13 14 12 12 13 12 12 12 11 11 12 11 11 11 10 11 11 11 10 10
-1 1 0 3 6 9 11 12 12 13 13 13 13 13 12 12 12 12 13 13 13 13 14 14 12 13 12 12 12 12 11 11 11 10 10 10 10 10 10 10 10 10 10
-1 -2 -0 3 7 10 10 10 12 12 12 12 12 12 12 12 12 12 12 12 13 13 14 13 12 12 11 11 11 11 11 11 11 10 10 10 10 10 10 10 10 10 10
-3 -4 -2 3 6 8 9 11 11 11 12 13 12 12 12 12 12 12 12 12 12 12 12 11 11 11 10 10 10 10 10 10 10 10 10 10 9 10 9 9 9 10 10
-4 -2 -2 1 2 4 6 6 7 8 9 9 10 11 11 11 11 11 11 11 11 11 11 10 10 10 10 10 10 10 10 9 9 9 9 9 9 9 9 9 9 9 9
-4 -3 -2 -1 1 1 1 1 3 4 5 6 7 9 9 10 9 9 10 10 10 10 10 9 9 9 9 9 9 8 9 9 9 8 8 9 9 9 9 9 9 9 8
-5 -5 -3 -3 -1 -1 -0 0 0 0 1 2 2 4 6 8 7 8 8 8 8 8 8 8 8 8 8 8 8 8 8 9 9 8 7 8 9 9 9 9 8 8 9
-4 -5 -4 -2 -3 -3 -3 -1 -1 -1 -1 -0 -1 -0 1 2 3 4 5 5 6 4 6 7 7 8 7 8 8 8 8 8 7 7 8 8 8 9 8 8 9 9 8
-5 -4 -4 -4 -4 -4 -4 -5 -3 -3 -2 -2 -2 -2 -1 -1 1 1 2 2 1 1 2 3 3 4 5 5 5 6 6 5 5 6 7 8 8 8 8 8 8 8 8
-6 -5 -5 -4 -3 -4 -4 -4 -4 -4 -4 -3 -3 -4 -3 -2 -0 -1 0 0 -0 0 -0 0 1 2 2 2 3 4 3 4 4 4 4 4 4 6 7 8 7 7 8
-5 -4 -4 -4 -4 -3 -3 -2 -3 -3 -3 -4 -4 -3 -3 -4 -4 -3 -2 -2 -2 -2 -1 -1 -1 -1 -0 -0 0 0 1 1 1 3 3 3 3 4 5 5 6 5 5
-5 -4 -4 -4 -4 -4 -3 -3 -3 -2 -2 -3 -4 -5 -5 -4 -4 -3 -4 -4 -3 -3 -3 -4 -4 -3 -3 -2 -2 -2 -2 -2 -1 0 1 2 2 2 2 2 3 4 4
-5 -5 -5 -5 -5 -4 -4 -4 -4 -4 -4 -5 -4 -5 -5 -4 -4 -5 -5 -5 -5 -5 -6 -5 -5 -4 -4 -4 -3 -3 -3 -3 -3 -2 -2 -2 -2 -1 -2 -1 -1 0 2
-7 -8 -8 -7 -8 -6 -6 -6 -5 -5 -5 -6 -7 -7 -6 -6 -5 -5 -5 -5 -5 -5 -6 -6 -6 -6 -5 -5 -4 -5 -5 -6 -6 -5 -5 -5 -5 -3 -3 -3 -2 -2 -1
-10 -9 -10 -10 -10 -11 -10 -10 -10 -10 -9 -9 -9 -9 -7 -7 -8 -8 -7 -7 -7 -7 -7 -7 -6 -6 -6 -6 -7 -7 -7 -7 -7 -7 -7 -7 -6 -6 -5 -5 -4 -4 -4
-10 -10 -10 -10 -10 -11 -11 -11 -12 -12 -11 -10 -10 -10 -11 -10 -9 -8 -8 -8 -8 -8 -9 -10 -11 -11 -11 -11 -11 -10 -9 -9 -8 -9 -9 -9 -8 -8 -7 -7 -7 -6 -6
-11 -11 -11 -11 -11 -11 -11 -11 -11 -12 -12 -12 -10 -10 -10 -10 -9 -9 -10 -12 -11 -10 -12 -12 -12 -12 -12 -12 -13 -13 -12 -11 -11 -11 -10 -10 -10 -10 -9 -9 -8 -8 -8
-10 -12 -11 -12 -12 -12 -12 -12 -12 -12 -12 -13 -13 -11 -11 -14 -14 -11 -10 -12 -13 -13 -13 -13 -14 -14 -14 -13 -14 -14 -14 -13 -13 -12 -12 -12 -11 -11 -11 -11 -10 -10 -10
-12 -12 -13 -12 -13 -13 -13 -13 -13 -13 -13 -13 -13 -14 -13 -15 -15 -15 -16 -15 -15 -15 -14 -14 -15 -15 -15 -15 -15 -15 -14 -14 -14 -14 -13 -13 -13 -13 -13 -12 -12 -11 -12
-13 -13 -14 -13 -13 -13 -13 -13 -13 -13 -13 -14 -14 -16 -16 -16 -15 -15 -16 -17 -17 -16 -17 -16 -16 -17 -17 -17 -16 -16 -15 -15 -15 -15 -15 -15 -14 -13 -13 -13 -14 -14 -14
-13 -14 -14 -14 -14 -14 -14 -14 -14 -14 -14 -14 -14 -15 -17 -16 -16 -16 -17 -18 -18 -18 -18 -18 -18 -18 -18 -18 -18 -17 -18 -17 -17 -16 -16 -16 -15 -15 -14 -14 -14 -14 -14
-14 -14 -14 -14 -14 -15 -15 -15 -15 -15 -15 -15 -15 -16 -17 -16 -17 -17 -18 -18 -19 -19 -20 -20 -19 -19 -20 -20 -20 -20 -19 -19 -19 -19 -17 -17 -16 -16 -16 -15 -15 -15 -15
-14 -14 -14 -14 -15 -15 -15 -15 -15 -16 -16 -16 -16 -17 -17 -17 -18 -18 -18 -19 -20 -20 -20 -21 -21 -21 -21 -21 -21 -21 -21 -21 -21 -19 -18 -18 -18 -17 -16 -16 -16 -16 -16
-15 -15 -15 -15 -15 -15 -15 -16 -16 -16 -16 -17 -17 -17 -17 -18 -18 -18 -18 -19 -20 -20 -20 -21 -21 -22 -21 -20 -22 -22 -19 -19 -18 -19 -20 -20 -19 -18 -18 -18 -18 -18 -18
-15 -15 -15 -15 -15 -15 -16 -16 -16 -16 -16 -17 -17 -17 -18 -18 -18 -18 -19 -19 -20 -20 -21 -21 -21 -22 -22 -22 -21 -20 -20 -20 -19 -19 -20 -21 -21 -20 -19 -19 -19 -19 -19
-16 -16 -16 -16 -16 -16 -16 -17 -17 -17 -17 -17 -17 -18 -18 -18 -18 -19 -19 -19 -20 -20 -21 -21 -21 -22 -22 -23 -23 -22 -22 -21 -20 -20 -20 -22 -21 -21 -20 -20 -19 -19 -20

GFSGL_850_temp_120.txt.gz
Temp
-4 -3 -2 -1 0 2 3 4 7 9 10 12 12 14 13 11 13 13 13 13 12 13 13 13 13 13 13 13 14 13 13 12 12 13 13 12 12 11 11 11 11 11 11
-5 -3 -2 -1 0 2 3 5 7 7 9 11 11 13 13 12 13 13 13 12 12 12 13 13 13 14 12 12 14 14 13 13 12 12 12 11 11 11 11 11 11 11 11
-5 -4 -3 -3 -1 0 2 6 8 9 10 12 12 12 11 12 12 12 12 12 12 12 12 12 13 13 12 12 12 12 12 12 11 11 12 11 10 11 11 10 10 11 10
-5 -5 -4 -4 -3 -2 -0 4 5 7 9 8 8 10 10 13 12 12 12 12 12 12 12 11 12 12 12 11 11 11 11 11 10 10 10 10 10 10 10 10 10 10 10
-5 -5 -5 -6 -5 -2 1 1 2 6 9 5 6 8 9 9 10 11 12 12 12 12 11 11 11 11 11 11 11 12 11 10 10 10 10 10 9 9 10 9 9 9 9
-5 -6 -5 -5 -5 -4 -0 0 1 1 1 0 3 4 6 5 6 8 11 11 11 10 10 10 10 10 10 10 10 10 9 9 9 9 10 9 9 8 8 9 8 9 9
-4 -4 -4 -4 -4 -4 -3 -2 -1 -2 -1 -0 -0 -0 -0 0 1 4 6 7 6 8 7 7 8 8 8 8 8 9 8 8 9 9 9 8 8 6 7 8 8 8 9
-5 -4 -4 -4 -3 -3 -3 -4 -1 -4 -2 -1 -1 -1 -1 -1 -1 -0 2 3 0 4 3 5 4 4 5 5 6 6 7 7 7 6 6 6 6 6 7 8 8 8 8
-5 -5 -5 -3 -3 -3 -4 -3 -2 -3 -3 -2 -2 -1 -3 -1 -2 1 1 0 -0 1 -1 0 2 2 2 3 3 3 4 5 5 4 3 3 3 5 7 7 7 7 8
-6 -5 -4 -4 -3 -3 -4 -3 -3 -4 -4 -3 -4 -2 -4 -3 -3 -2 -2 -0 -0 0 -0 -0 1 -0 -1 0 1 1 1 1 2 2 2 2 2 2 2 4 6 6 6
-6 -5 -4 -4 -4 -4 -4 -3 -3 -3 -3 -3 -4 -4 -4 -5 -4 -4 -3 -3 -3 -3 -3 -2 -2 -2 -2 -1 -1 -1 -1 -1 -1 -1 0 1 1 2 2 3 3 3 5
-7 -5 -6 -5 -5 -4 -4 -3 -3 -3 -3 -3 -3 -4 -4 -4 -4 -4 -4 -5 -4 -4 -4 -4 -4 -5 -4 -3 -2 -3 -3 -2 -2 -3 -2 -1 -1 0 1 1 1 1 2
-7 -7 -7 -6 -6 -5 -5 -5 -4 -4 -4 -4 -5 -5 -5 -4 -4 -5 -6 -6 -5 -6 -6 -6 -6 -6 -5 -5 -5 -4 -4 -5 -5 -5 -5 -5 -4 -4 -3 -2 -2 -1 -0
-8 -9 -9 -9 -9 -8 -7 -7 -6 -7 -7 -6 -7 -7 -7 -6 -6 -6 -6 -6 -6 -6 -7 -7 -7 -7 -7 -7 -6 -6 -6 -7 -8 -9 -8 -7 -6 -5 -4 -4 -3 -2 -3
-10 -9 -10 -10 -10 -11 -11 -11 -11 -11 -11 -10 -11 -10 -9 -9 -10 -10 -10 -9 -9 -10 -8 -7 -7 -8 -9 -9 -9 -9 -8 -8 -8 -9 -9 -8 -7 -7 -6 -6 -5 -5 -5
-10 -10 -10 -10 -10 -11 -11 -11 -12 -12 -12 -12 -12 -13 -13 -14 -12 -10 -12 -12 -10 -10 -9 -11 -11 -12 -12 -12 -12 -11 -11 -11 -11 -11 -10 -10 -10 -9 -8 -8 -7 -7 -7
-10 -11 -11 -10 -11 -11 -11 -12 -12 -12 -12 -13 -13 -13 -13 -14 -14 -14 -12 -13 -13 -12 -13 -13 -13 -14 -14 -14 -14 -14 -14 -13 -12 -12 -11 -11 -11 -11 -10 -9 -9 -9 -9
-9 -10 -11 -12 -12 -12 -12 -12 -12 -12 -13 -13 -13 -13 -13 -14 -14 -15 -15 -13 -14 -14 -15 -15 -15 -15 -15 -15 -15 -15 -14 -14 -14 -13 -13 -12 -12 -12 -12 -11 -11 -10 -10
-11 -11 -12 -13 -13 -13 -13 -13 -13 -13 -13 -14 -14 -13 -13 -14 -15 -16 -16 -15 -16 -17 -17 -16 -16 -17 -17 -17 -16 -16 -16 -15 -15 -15 -14 -14 -13 -13 -13 -13 -13 -12 -12
-13 -13 -13 -13 -13 -14 -14 -14 -14 -14 -14 -14 -15 -15 -15 -15 -16 -16 -16 -17 -18 -18 -18 -18 -18 -18 -18 -18 -18 -17 -17 -17 -16 -16 -16 -15 -14 -14 -14 -14 -14 -14 -14
-13 -13 -13 -14 -14 -14 -14 -14 -14 -15 -15 -15 -15 -16 -16 -16 -17 -17 -17 -18 -18 -19 -19 -19 -19 -19 -19 -20 -19 -19 -19 -19 -18 -17 -17 -16 -16 -15 -15 -15 -15 -14 -14
-14 -14 -14 -14 -14 -14 -15 -15 -15 -15 -15 -16 -16 -16 -16 -17 -17 -17 -17 -18 -18 -19 -20 -20 -20 -20 -20 -20 -21 -21 -20 -19 -19 -18 -18 -17 -17 -16 -16 -16 -15 -15 -15
-14 -14 -14 -14 -14 -15 -15 -15 -15 -15 -16 -16 -16 -16 -17 -17 -17 -18 -18 -18 -19 -19 -20 -20 -21 -21 -21 -21 -21 -21 -20 -19 -19 -18 -18 -18 -18 -17 -17 -17 -16 -16 -16
-14 -14 -15 -15 -15 -15 -15 -15 -16 -16 -16 -16 -16 -17 -17 -17 -17 -18 -18 -18 -19 -19 -20 -20 -21 -21 -21 -22 -21 -21 -21 -20 -20 -19 -20 -19 -19 -18 -18 -18 -18 -18 -18
-15 -15 -15 -16 -16 -16 -16 -16 -16 -17 -17 -17 -17 -17 -17 -17 -18 -18 -18 -18 -19 -19 -20 -20 -21 -21 -21 -22 -22 -22 -22 -22 -21 -20 -21 -20 -20 -20 -19 -19 -19 -19 -18
-15 -16 -16 -16 -16 -17 -17 -17 -17 -18 -18 -18 -18 -18 -18 -18 -18 -18 -18 -19 -19 -19 -20 -20 -21 -21 -21 -22 -22 -22 -23 -22 -22 -22 -21 -20 -20 -20 -20 -20 -19 -19 -19

GFSGL_850_temp_123.txt.gz
Temp
-6 -5 -5 -4 -3 -2 -1 1 2 3 6 8 9 9 10 11 12 13 13 13 11 12 13 14 13 13 13 13 13 12 14 13 13 15 14 13 13 12 12 12 12 12 11
-6 -6 -5 -4 -3 -3 -1 1 2 4 7 6 5 6 8 9 11 12 13 14 12 10 13 14 14 13 12 12 13 14 13 14 14 14 13 12 12 12 11 11 11 11 11
-6 -6 -6 -5 -4 -4 -2 -1 1 3 4 5 6 7 8 10 10 12 12 12 11 11 12 12 14 13 12 11 12 13 13 13 13 12 13 13 11 12 11 11 10 10 10
-6 -6 -6 -6 -6 -5 -4 -3 -2 1 3 4 6 7 8 8 9 10 12 13 12 11 11 12 12 12 12 11 11 12 12 12 12 12 12 11 11 11 10 10 10 10 10
-6 -6 -6 -6 -6 -6 -5 -3 -2 0 0 1 3 4 5 7 8 8 9 10 10 10 11 11 11 11 11 11 11 11 11 11 11 12 12 11 10 10 9 10 9 10 10
-5 -5 -5 -5 -4 -5 -4 -5 -2 -2 -3 -0 1 0 -0 1 2 1 4 3 5 7 8 9 9 10 11 11 11 10 10 10 10 9 9 9 9 9 9 8 8 8 8
-5 -5 -4 -4 -5 -5 -5 -4 -3 -1 -3 -1 -2 -1 1 0 0 1 1 3 0 2 3 3 4 5 6 8 10 8 8 8 9 8 9 9 9 9 9 8 6 7 8
-4 -4 -4 -3 -3 -4 -4 -4 -6 -5 -3 -4 -4 -3 -2 -3 -1 0 0 0 0 1 0 -0 1 1 2 3 6 5 5 6 7 5 6 5 7 5 5 6 6 6 7
-6 -4 -4 -4 -3 -3 -3 -4 -4 -4 -4 -4 -4 -4 -3 -3 -2 -2 -0 -1 -0 -1 -0 0 0 -0 -1 0 3 2 2 2 1 4 2 3 4 3 3 4 4 4 5
-7 -6 -6 -5 -5 -5 -4 -4 -4 -4 -4 -4 -4 -4 -4 -4 -3 -3 -3 -3 -2 -4 -3 -2 -2 -2 -1 -1 1 1 1 0 -1 0 1 0 1 0 2 3 2 3 3
-7 -6 -6 -5 -5 -4 -4 -4 -4 -3 -3 -3 -4 -4 -4 -4 -4 -4 -3 -3 -4 -4 -4 -4 -3 -3 -3 -2 -2 -3 -4 -2 -2 -2 -2 -2 -1 -1 -0 1 1 1 1
-7 -6 -7 -6 -5 -5 -4 -4 -4 -3 -3 -4 -4 -4 -5 -5 -6 -6 -5 -5 -5 -6 -6 -7 -6 -5 -5 -5 -4 -4 -4 -4 -3 -3 -3 -3 -3 -2 -2 -1 -1 -1 -1
-7 -8 -8 -7 -6 -6 -5 -5 -5 -5 -5 -5 -5 -5 -6 -6 -6 -7 -8 -7 -6 -7 -8 -8 -7 -6 -6 -5 -6 -6 -5 -5 -5 -5 -6 -6 -6 -5 -5 -4 -3 -3 -3
-8 -9 -9 -10 -10 -10 -9 -9 -8 -9 -9 -9 -8 -8 -9 -7 -8 -10 -9 -8 -8 -8 -8 -8 -8 -8 -7 -7 -7 -7 -8 -8 -8 -8 -8 -7 -7 -6 -5 -5 -4 -4 -4
-11 -10 -11 -11 -11 -12 -12 -12 -12 -13 -13 -12 -13 -13 -13 -13 -14 -13 -12 -10 -10 -10 -9 -8 -8 -8 -9 -9 -10 -10 -10 -9 -9 -9 -9 -9 -8 -8 -7 -7 -7 -7 -6
-9 -10 -10 -10 -11 -12 -12 -12 -12 -13 -13 -14 -13 -13 -14 -14 -15 -14 -14 -14 -12 -11 -10 -11 -12 -13 -13 -13 -13 -13 -13 -12 -12 -12 -11 -11 -10 -10 -9 -9 -9 -8 -8
-10 -11 -11 -11 -11 -12 -12 -12 -13 -13 -14 -14 -14 -14 -15 -15 -15 -16 -14 -13 -13 -12 -12 -14 -15 -15 -15 -15 -15 -15 -15 -14 -14 -13 -13 -13 -12 -12 -11 -10 -10 -10 -10
-10 -11 -11 -11 -12 -12 -13 -13 -13 -13 -13 -14 -14 -14 -15 -16 -16 -17 -16 -14 -13 -15 -16 -17 -17 -16 -16 -16 -16 -16 -16 -16 -15 -15 -14 -14 -13 -13 -13 -12 -12 -11 -11
-11 -11 -12 -12 -12 -13 -13 -14 -14 -14 -14 -14 -14 -14 -15 -16 -16 -16 -17 -17 -17 -17 -18 -18 -18 -18 -18 -18 -17 -17 -17 -17 -17 -16 -15 -15 -15 -14 -14 -14 -14 -13 -12
-13 -13 -13 -13 -14 -14 -14 -14 -14 -15 -15 -15 -15 -16 -16 -15 -16 -17 -17 -18 -18 -18 -19 -19 -19 -19 -19 -19 -18 -18 -18 -18 -17 -17 -17 -16 -16 -16 -15 -15 -14 -14 -14
-13 -13 -14 -14 -14 -14 -15 -15 -15 -15 -15 -16 -16 -16 -16 -16 -17 -17 -17 -18 -18 -19 -19 -19 -20 -20 -20 -20 -19 -19 -19 -19 -18 -18 -18 -18 -17 -16 -16 -16 -15 -15 -14
-14 -14 -14 -14 -15 -15 -15 -15 -15 -16 -16 -16 -16 -17 -17 -17 -17 -17 -18 -18 -18 -19 -19 -19 -20 -20 -21 -21 -20 -20 -20 -19 -19 -19 -19 -18 -18 -17 -17 -17 -16 -16 -15
-14 -14 -15 -15 -15 -15 -15 -16 -16 -16 -17 -17 -17 -17 -17 -17 -17 -18 -18 -18 -18 -18 -19 -19 -20 -20 -21 -21 -21 -21 -21 -21 -20 -20 -20 -19 -19 -18 -18 -18 -17 -17 -16
-15 -15 -15 -15 -16 -16 -16 -16 -17 -17 -17 -17 -18 -18 -18 -18 -18 -18 -18 -18 -18 -19 -19 -19 -19 -20 -21 -21 -21 -22 -22 -22 -21 -21 -21 -20 -20 -20 -19 -19 -18 -18 -18
-15 -15 -16 -16 -16 -17 -17 -17 -18 -18 -18 -18 -19 -19 -19 -19 -19 -19 -19 -19 -19 -19 -19 -19 -20 -20 -20 -21 -21 -22 -22 -22 -22 -22 -21 -21 -21 -21 -20 -20 -19 -19 -19
-15 -16 -16 -17 -17 -18 -18 -18 -19 -19 -19 -20 -20 -20 -20 -20 -20 -20 -20 -20 -20 -20 -20 -20 -20 -20 -20 -21 -21 -22 -22 -22 -22 -22 -22 -22 -21 -21 -21 -21 -20 -20 -19

GFSGL_850_temp_126.txt.gz
Temp
-6 -6 -6 -6 -5 -4 -3 -3 -2 -0 1 2 5 6 7 9 9 9 10 12 12 12 12 12 12 12 10 12 12 11 11 12 13 15 14 14 14 14 14 13 13 13 12
-7 -7 -7 -6 -5 -5 -4 -3 -2 -0 1 3 5 6 5 6 7 8 10 11 12 12 12 12 12 11 10 11 13 12 11 11 12 14 14 14 14 13 13 12 14 13 12
-6 -6 -7 -7 -6 -6 -5 -4 -3 -1 0 2 3 4 4 5 5 7 8 11 10 10 11 11 12 13 11 11 11 11 12 11 12 13 14 13 13 13 13 12 14 13 11
-6 -6 -7 -7 -7 -6 -6 -4 -3 -3 -2 -0 1 2 3 4 5 7 8 8 9 9 9 10 9 9 10 11 12 12 12 12 11 11 13 13 13 13 12 12 12 11 11
-5 -5 -6 -6 -6 -6 -5 -4 -3 -2 -2 -3 -2 -1 1 4 4 5 6 7 7 8 8 9 9 8 10 11 11 11 12 12 11 11 12 12 12 12 11 11 10 10 11
-4 -5 -5 -4 -4 -4 -4 -3 -3 -3 -3 -3 -3 -3 -2 -1 -0 1 2 3 4 3 4 5 5 7 8 9 11 11 11 11 11 11 10 10 10 10 10 10 10 9 9
-4 -4 -4 -4 -3 -4 -3 -3 -4 -3 -3 -4 -3 -3 -4 -3 -0 0 0 0 0 1 0 1 2 2 4 4 5 4 6 8 10 10 10 10 9 9 9 8 9 8 7
-5 -4 -4 -4 -4 -3 -3 -3 -3 -3 -3 -3 -4 -4 -4 -4 -2 -2 -1 -0 -1 -1 -1 -0 -0 -0 1 3 4 3 3 1 4 3 6 7 7 7 6 6 6 6 6
-5 -5 -5 -4 -4 -4 -3 -4 -4 -4 -3 -3 -4 -4 -4 -5 -3 -2 -2 -3 -4 -3 -2 -1 -1 -1 -1 0 2 1 1 0 1 0 1 1 2 4 3 4 4 3 4
-8 -7 -6 -5 -5 -5 -5 -5 -5 -5 -5 -4 -4 -5 -5 -5 -4 -4 -4 -4 -4 -4 -4 -4 -3 -3 -2 -1 0 -1 1 0 0 -0 -2 -0 -2 0 1 2 2 2 2
-8 -8 -7 -7 -6 -6 -6 -6 -6 -6 -6 -6 -6 -6 -6 -8 -8 -6 -5 -5 -6 -6 -6 -5 -6 -4 -4 -2 -2 -3 -4 -3 -3 -2 -2 -1 -1 -2 -1 -1 -0 -1 0
-7 -7 -7 -7 -7 -7 -7 -7 -6 -6 -6 -7 -7 -8 -8 -9 -10 -9 -8 -7 -7 -6 -7 -8 -7 -6 -5 -4 -4 -5 -5 -5 -4 -4 -4 -4 -3 -4 -4 -3 -3 -2 -2
-7 -7 -7 -8 -8 -7 -7 -7 -8 -8 -8 -9 -9 -10 -10 -10 -9 -9 -8 -9 -9 -8 -8 -8 -7 -7 -7 -6 -7 -6 -5 -5 -6 -6 -6 -7 -7 -7 -6 -5 -5 -4 -4
-7 -7 -8 -9 -9 -9 -10 -10 -10 -10 -11 -12 -12 -13 -12 -12 -13 -12 -10 -9 -9 -9 -8 -8 -8 -8 -8 -8 -8 -8 -8 -9 -9 -9 -9 -8 -8 -7 -7 -7 -6 -6 -5
-9 -10 -10 -11 -11 -11 -12 -13 -14 -15 -14 -14 -14 -14 -14 -14 -15 -15 -13 -12 -11 -11 -9 -8 -8 -8 -9 -9 -10 -10 -10 -10 -10 -10 -10 -10 -9 -9 -9 -8 -8 -8 -7
-8 -9 -10 -10 -11 -12 -13 -13 -13 -15 -15 -15 -15 -15 -15 -15 -16 -13 -13 -12 -11 -11 -9 -10 -12 -12 -13 -13 -13 -13 -13 -13 -13 -13 -13 -12 -12 -11 -11 -10 -10 -10 -9
-10 -11 -12 -12 -11 -12 -12 -13 -13 -14 -14 -15 -15 -16 -16 -16 -17 -17 -14 -14 -13 -12 -12 -14 -15 -15 -15 -15 -15 -15 -15 -15 -15 -14 -14 -14 -13 -13 -13 -12 -12 -11 -11
-11 -12 -12 -12 -12 -12 -13 -13 -13 -13 -14 -14 -15 -15 -16 -17 -17 -17 -15 -14 -14 -14 -15 -16 -16 -16 -16 -16 -16 -16 -16 -16 -16 -16 -16 -15 -15 -14 -14 -14 -14 -13 -13
-10 -11 -12 -13 -13 -13 -13 -14 -14 -14 -15 -15 -15 -15 -16 -16 -16 -16 -17 -16 -17 -17 -17 -18 -18 -18 -18 -18 -18 -17 -17 -17 -17 -17 -17 -17 -16 -16 -15 -15 -15 -14 -14
-11 -12 -13 -13 -13 -14 -14 -14 -15 -15 -15 -16 -16 -16 -16 -16 -16 -17 -17 -17 -18 -18 -18 -18 -19 -19 -19 -19 -19 -18 -17 -17 -17 -17 -17 -18 -17 -17 -17 -16 -16 -15 -15
-12 -13 -13 -14 -14 -15 -15 -15 -15 -16 -16 -16 -16 -17 -17 -17 -17 -17 -17 -17 -18 -18 -18 -18 -19 -19 -19 -20 -20 -19 -19 -19 -19 -19 -18 -19 -18 -18 -17 -17 -17 -16 -16
-13 -14 -14 -15 -15 -15 -15 -16 -16 -16 -16 -17 -17 -17 -17 -17 -18 -18 -18 -18 -18 -18 -19 -19 -19 -19 -19 -20 -20 -20 -21 -20 -20 -20 -19 -19 -19 -19 -19 -18 -18 -17 -17
-13 -14 -15 -15 -15 -16 -16 -16 -16 -17 -17 -17 -18 -18 -18 -18 -18 -18 -18 -18 -19 -19 -19 -19 -19 -19 -20 -20 -21 -21 -21 -21 -21 -21 -20 -20 -20 -20 -20 -19 -19 -18 -18
-14 -15 -15 -15 -16 -16 -17 -17 -17 -18 -18 -18 -19 -19 -19 -19 -20 -19 -19 -19 -19 -19 -19 -20 -20 -20 -20 -20 -20 -21 -21 -22 -22 -22 -22 -22 -21 -21 -21 -20 -20 -19 -19
-14 -15 -16 -16 -16 -17 -17 -18 -18 -18 -19 -19 -20 -20 -20 -21 -20 -20 -21 -21 -21 -20 -20 -20 -20 -21 -21 -21 -21 -21 -22 -22 -22 -22 -22 -22 -22 -22 -21 -21 -21 -20 -19
-15 -16 -16 -16 -16 -17 -17 -17 -18 -18 -19 -20 -20 -21 -21 -22 -22 -21 -22 -22 -22 -22 -21 -21 -21 -21 -21 -21 -21 -21 -22 -22 -22 -22 -22 -22 -23 -22 -22 -22 -22 -21 -20

GFSGL_850_temp_129.txt.gz
Temp
-6 -7 -7 -7 -7 -6 -5 -5 -4 -3 -2 -0 1 3 3 3 4 5 7 8 9 10 10 11 12 13 13 12 12 9 11 10 10 12 13 13 14 14 14 15 15 14 13
-7 -7 -7 -7 -7 -7 -6 -5 -4 -4 -2 -1 1 2 4 4 4 5 5 6 7 8 9 11 12 12 13 12 12 11 11 10 10 10 12 14 13 13 14 14 14 14 13
-6 -7 -7 -7 -8 -7 -6 -5 -5 -4 -3 -2 0 2 3 3 4 4 4 5 7 7 8 10 10 11 10 10 10 11 11 12 11 10 11 11 13 13 13 14 14 13 13
-5 -5 -6 -7 -7 -7 -6 -5 -5 -5 -4 -4 -3 -2 -1 0 2 3 4 5 6 7 8 9 9 10 10 10 10 10 12 12 11 10 11 12 11 11 12 13 13 13 13
-5 -5 -5 -5 -5 -5 -5 -5 -4 -4 -4 -4 -3 -3 -3 -3 -1 1 1 3 5 5 6 6 7 8 8 8 9 9 9 10 10 10 11 11 11 11 11 12 12 12 12
-4 -4 -4 -4 -3 -4 -3 -3 -3 -3 -3 -2 -2 -3 -3 -4 -2 -3 -1 -0 2 2 2 2 3 4 5 7 7 7 8 9 10 11 10 10 10 10 10 11 11 11 10
-3 -4 -4 -4 -4 -3 -3 -3 -2 -3 -2 -2 -3 -4 -4 -4 -3 -3 -3 -3 -2 -1 -1 -0 0 0 1 2 3 3 3 7 7 9 9 8 8 9 9 10 9 9 9
-4 -4 -4 -4 -4 -4 -3 -3 -3 -3 -3 -3 -5 -5 -5 -6 -4 -3 -2 -3 -3 -3 -3 -3 -2 -2 -1 0 1 2 2 3 4 3 3 4 2 3 3 6 5 8 8
-4 -5 -5 -5 -4 -4 -4 -4 -4 -4 -4 -4 -4 -5 -4 -6 -5 -4 -3 -4 -4 -4 -3 -4 -3 -4 -4 -1 -0 0 0 -0 -1 1 1 1 3 2 2 3 3 3 4
-6 -7 -6 -6 -5 -5 -5 -5 -6 -6 -6 -6 -6 -6 -7 -6 -6 -5 -4 -3 -3 -4 -5 -5 -5 -5 -4 -3 -2 -3 -2 -2 -2 -1 0 -0 0 0 0 3 0 0 1
-7 -7 -7 -7 -6 -6 -6 -6 -5 -6 -6 -6 -7 -7 -7 -8 -9 -8 -7 -6 -6 -6 -6 -5 -6 -6 -5 -4 -4 -4 -5 -5 -3 -4 -3 -4 -4 -3 -3 -2 -1 -1 -1
-7 -7 -8 -8 -8 -7 -7 -7 -6 -6 -6 -7 -7 -8 -8 -9 -9 -8 -9 -9 -8 -7 -8 -8 -8 -7 -7 -7 -6 -7 -6 -6 -5 -5 -5 -5 -4 -4 -4 -5 -4 -4 -3
-8 -8 -8 -8 -8 -8 -8 -8 -8 -8 -10 -10 -10 -10 -9 -9 -9 -9 -9 -9 -9 -9 -9 -10 -8 -8 -8 -7 -7 -7 -6 -6 -7 -7 -8 -8 -8 -8 -7 -5 -6 -6 -5
-7 -8 -8 -9 -10 -10 -10 -10 -10 -11 -12 -12 -12 -12 -12 -12 -11 -10 -10 -10 -10 -10 -10 -9 -9 -9 -9 -9 -8 -9 -9 -10 -10 -10 -10 -10 -9 -8 -7 -7 -6 -6 -6
-7 -9 -10 -10 -11 -11 -12 -13 -13 -14 -14 -14 -15 -15 -15 -15 -15 -14 -12 -11 -11 -11 -10 -9 -9 -9 -10 -10 -11 -11 -11 -11 -10 -11 -11 -10 -10 -10 -10 -10 -9 -9 -8
-8 -9 -9 -9 -10 -11 -12 -13 -14 -15 -16 -15 -15 -15 -15 -16 -17 -15 -14 -14 -13 -12 -10 -11 -12 -12 -12 -13 -12 -13 -13 -13 -14 -14 -13 -13 -13 -12 -12 -12 -11 -11 -11
-8 -9 -10 -11 -12 -13 -13 -14 -14 -14 -14 -15 -15 -16 -16 -17 -17 -16 -15 -15 -14 -13 -14 -15 -15 -15 -15 -15 -14 -14 -14 -15 -15 -14 -15 -15 -14 -14 -14 -14 -13 -13 -12
-10 -11 -12 -13 -13 -13 -14 -14 -14 -14 -14 -15 -15 -16 -17 -17 -16 -16 -16 -15 -15 -16 -17 -17 -17 -17 -17 -17 -17 -16 -16 -16 -15 -15 -15 -16 -16 -16 -15 -15 -15 -15 -14
-11 -12 -13 -13 -13 -13 -13 -14 -14 -14 -15 -15 -15 -16 -16 -17 -17 -17 -17 -17 -18 -18 -18 -18 -18 -18 -18 -18 -18 -18 -18 -18 -18 -17 -17 -17 -17 -17 -16 -16 -16 -16 -15
-11 -12 -12 -12 -12 -13 -14 -14 -14 -15 -15 -16 -16 -16 -16 -16 -16 -17 -17 -18 -18 -18 -19 -19 -19 -19 -19 -19 -19 -18 -18 -18 -18 -18 -18 -18 -18 -18 -18 -18 -17 -17 -16
-11 -11 -12 -12 -13 -13 -14 -14 -14 -14 -15 -16 -16 -17 -17 -17 -17 -17 -17 -18 -18 -19 -19 -19 -19 -19 -19 -20 -20 -20 -20 -20 -19 -19 -19 -19 -19 -19 -19 -19 -18 -18 -18
-11 -11 -12 -12 -13 -14 -14 -15 -16 -16 -16 -16 -17 -17 -17 -18 -18 -18 -18 -18 -19 -19 -19 -19 -19 -20 -20 -20 -20 -20 -20 -20 -20 -20 -20 -20 -20 -20 -20 -20 -19 -19 -19
-12 -12 -13 -14 -14 -14 -15 -16 -17 -17 -17 -17 -18 -18 -18 -19 -19 -19 -19 -19 -19 -20 -19 -19 -20 -20 -20 -20 -21 -21 -21 -21 -21 -21 -21 -21 -21 -21 -21 -20 -20 -20 -20
-13 -13 -14 -14 -14 -15 -15 -16 -17 -17 -17 -17 -18 -18 -19 -19 -19 -20 -20 -20 -20 -20 -21 -21 -20 -21 -21 -21 -21 -21 -21 -22 -22 -22 -22 -22 -22 -22 -22 -21 -21 -21 -20
-13 -14 -14 -14 -15 -15 -16 -17 -17 -17 -17 -18 -18 -19 -19 -20 -20 -20 -20 -21 -21 -21 -21 -21 -21 -21 -21 -21 -21 -21 -22 -22 -22 -22 -22 -22 -23 -23 -23 -22 -22 -22 -21
-14 -14 -15 -15 -15 -16 -16 -17 -17 -17 -18 -18 -19 -19 -20 -20 -20 -20 -21 -21 -21 -22 -22 -22 -22 -22 -22 -22 -22 -21 -22 -22 -22 -23 -23 -23 -23 -23 -23 -23 -23 -22 -22